<?xml version='1.0' encoding='UTF-8'?>
<gpx version="1.1" creator="https://www.komoot.de" xmlns="http://www.topografix.com/GPX/1/1" xmlns:xsi="http://www.w3.org/2001/XMLSchema-instance" xsi:schemaLocation="http://www.topografix.com/GPX/1/1 http://www.topografix.com/GPX/1/1/gpx.xsd">
  <metadata>
    <name>69_820GersbachSchopfh</name>
    <author>
      <link href="https://www.komoot.de">
        <text>komoot</text>
        <type>text/html</type>
      </link>
    </author>
  </metadata>
  <trk>
    <name>69_820GersbachSchopfh</name>
    <trkseg>
      <trkpt lat="47.540894" lon="7.871220">
        <ele>340.123258</ele>
        <time>2021-11-19T21:59:14.895Z</time>
      </trkpt>
      <trkpt lat="47.540933" lon="7.871187">
        <ele>340.123258</ele>
        <time>2021-11-19T21:59:15.430Z</time>
      </trkpt>
      <trkpt lat="47.541410" lon="7.870791">
        <ele>340.123258</ele>
        <time>2021-11-19T21:59:24.150Z</time>
      </trkpt>
      <trkpt lat="47.541576" lon="7.870664">
        <ele>340.123258</ele>
        <time>2021-11-19T21:59:28.114Z</time>
      </trkpt>
      <trkpt lat="47.541796" lon="7.871042">
        <ele>340.728334</ele>
        <time>2021-11-19T21:59:35.056Z</time>
      </trkpt>
      <trkpt lat="47.541953" lon="7.871286">
        <ele>341.365354</ele>
        <time>2021-11-19T21:59:39.826Z</time>
      </trkpt>
      <trkpt lat="47.542039" lon="7.871556">
        <ele>341.929542</ele>
        <time>2021-11-19T21:59:44.019Z</time>
      </trkpt>
      <trkpt lat="47.542067" lon="7.871664">
        <ele>342.148173</ele>
        <time>2021-11-19T21:59:45.680Z</time>
      </trkpt>
      <trkpt lat="47.542091" lon="7.871721">
        <ele>342.275126</ele>
        <time>2021-11-19T21:59:46.287Z</time>
      </trkpt>
      <trkpt lat="47.542218" lon="7.871866">
        <ele>342.724001</ele>
        <time>2021-11-19T21:59:51.366Z</time>
      </trkpt>
      <trkpt lat="47.542394" lon="7.872341">
        <ele>343.747972</ele>
        <time>2021-11-19T22:00:01.431Z</time>
      </trkpt>
      <trkpt lat="47.542436" lon="7.872494">
        <ele>344.060098</ele>
        <time>2021-11-19T22:00:04.822Z</time>
      </trkpt>
      <trkpt lat="47.542537" lon="7.872430">
        <ele>344.367626</ele>
        <time>2021-11-19T22:00:06.934Z</time>
      </trkpt>
      <trkpt lat="47.542714" lon="7.872334">
        <ele>344.895298</ele>
        <time>2021-11-19T22:00:13.891Z</time>
      </trkpt>
      <trkpt lat="47.542814" lon="7.872280">
        <ele>345.230811</ele>
        <time>2021-11-19T22:00:16.905Z</time>
      </trkpt>
      <trkpt lat="47.542919" lon="7.872226">
        <ele>345.878037</ele>
        <time>2021-11-19T22:00:20.743Z</time>
      </trkpt>
      <trkpt lat="47.543013" lon="7.872182">
        <ele>346.452087</ele>
        <time>2021-11-19T22:00:24.250Z</time>
      </trkpt>
      <trkpt lat="47.543233" lon="7.872082">
        <ele>347.792125</ele>
        <time>2021-11-19T22:00:31.488Z</time>
      </trkpt>
      <trkpt lat="47.543251" lon="7.872152">
        <ele>348.086569</ele>
        <time>2021-11-19T22:00:34.862Z</time>
      </trkpt>
      <trkpt lat="47.543332" lon="7.872237">
        <ele>348.664593</ele>
        <time>2021-11-19T22:00:38.167Z</time>
      </trkpt>
      <trkpt lat="47.544390" lon="7.872423">
        <ele>354.868697</ele>
        <time>2021-11-19T22:01:19.887Z</time>
      </trkpt>
      <trkpt lat="47.544883" lon="7.872555">
        <ele>358.171440</ele>
        <time>2021-11-19T22:01:42.295Z</time>
      </trkpt>
      <trkpt lat="47.545131" lon="7.872664">
        <ele>359.947361</ele>
        <time>2021-11-19T22:01:53.299Z</time>
      </trkpt>
      <trkpt lat="47.545375" lon="7.872836">
        <ele>361.802436</ele>
        <time>2021-11-19T22:02:04.240Z</time>
      </trkpt>
      <trkpt lat="47.545478" lon="7.872968">
        <ele>362.737415</ele>
        <time>2021-11-19T22:02:11.048Z</time>
      </trkpt>
      <trkpt lat="47.545515" lon="7.873015">
        <ele>363.072018</ele>
        <time>2021-11-19T22:02:13.004Z</time>
      </trkpt>
      <trkpt lat="47.545746" lon="7.873302">
        <ele>365.141748</ele>
        <time>2021-11-19T22:02:26.204Z</time>
      </trkpt>
      <trkpt lat="47.545934" lon="7.873549">
        <ele>366.866833</ele>
        <time>2021-11-19T22:02:36.304Z</time>
      </trkpt>
      <trkpt lat="47.546077" lon="7.873763">
        <ele>368.179624</ele>
        <time>2021-11-19T22:02:45.501Z</time>
      </trkpt>
      <trkpt lat="47.546135" lon="7.873859">
        <ele>368.601686</ele>
        <time>2021-11-19T22:02:48.740Z</time>
      </trkpt>
      <trkpt lat="47.546309" lon="7.874154">
        <ele>369.885048</ele>
        <time>2021-11-19T22:02:59.854Z</time>
      </trkpt>
      <trkpt lat="47.547126" lon="7.875801">
        <ele>376.580687</ele>
        <time>2021-11-19T22:03:45.615Z</time>
      </trkpt>
      <trkpt lat="47.547574" lon="7.876801">
        <ele>377.257017</ele>
        <time>2021-11-19T22:04:04.611Z</time>
      </trkpt>
      <trkpt lat="47.547992" lon="7.877974">
        <ele>377.882604</ele>
        <time>2021-11-19T22:04:17.412Z</time>
      </trkpt>
      <trkpt lat="47.548234" lon="7.878638">
        <ele>376.578619</ele>
        <time>2021-11-19T22:04:22.724Z</time>
      </trkpt>
      <trkpt lat="47.548422" lon="7.878959">
        <ele>375.556893</ele>
        <time>2021-11-19T22:04:25.567Z</time>
      </trkpt>
      <trkpt lat="47.548718" lon="7.879258">
        <ele>374.280875</ele>
        <time>2021-11-19T22:04:29.105Z</time>
      </trkpt>
      <trkpt lat="47.549140" lon="7.879391">
        <ele>372.744172</ele>
        <time>2021-11-19T22:04:33.292Z</time>
      </trkpt>
      <trkpt lat="47.549318" lon="7.879398">
        <ele>372.109952</ele>
        <time>2021-11-19T22:04:34.919Z</time>
      </trkpt>
      <trkpt lat="47.549327" lon="7.879547">
        <ele>371.750318</ele>
        <time>2021-11-19T22:04:35.905Z</time>
      </trkpt>
      <trkpt lat="47.549726" lon="7.880786">
        <ele>368.126582</ele>
        <time>2021-11-19T22:04:44.840Z</time>
      </trkpt>
      <trkpt lat="47.549927" lon="7.881490">
        <ele>366.097815</ele>
        <time>2021-11-19T22:04:49.872Z</time>
      </trkpt>
      <trkpt lat="47.550234" lon="7.883221">
        <ele>361.432277</ele>
        <time>2021-11-19T22:05:02.272Z</time>
      </trkpt>
      <trkpt lat="47.550332" lon="7.884727">
        <ele>357.493805</ele>
        <time>2021-11-19T22:05:12.117Z</time>
      </trkpt>
      <trkpt lat="47.550391" lon="7.885109">
        <ele>356.088040</ele>
        <time>2021-11-19T22:05:14.649Z</time>
      </trkpt>
      <trkpt lat="47.550548" lon="7.885799">
        <ele>353.475949</ele>
        <time>2021-11-19T22:05:19.254Z</time>
      </trkpt>
      <trkpt lat="47.550677" lon="7.886476">
        <ele>350.952442</ele>
        <time>2021-11-19T22:05:23.684Z</time>
      </trkpt>
      <trkpt lat="47.550758" lon="7.887295">
        <ele>347.972732</ele>
        <time>2021-11-19T22:05:28.826Z</time>
      </trkpt>
      <trkpt lat="47.550789" lon="7.887816">
        <ele>345.783847</ele>
        <time>2021-11-19T22:05:32.058Z</time>
      </trkpt>
      <trkpt lat="47.550831" lon="7.888611">
        <ele>342.446532</ele>
        <time>2021-11-19T22:05:37.014Z</time>
      </trkpt>
      <trkpt lat="47.550833" lon="7.889069">
        <ele>340.529726</ele>
        <time>2021-11-19T22:05:39.824Z</time>
      </trkpt>
      <trkpt lat="47.550915" lon="7.890600">
        <ele>334.534896</ele>
        <time>2021-11-19T22:05:49.217Z</time>
      </trkpt>
      <trkpt lat="47.550904" lon="7.891725">
        <ele>330.556342</ele>
        <time>2021-11-19T22:05:56.220Z</time>
      </trkpt>
      <trkpt lat="47.550892" lon="7.893176">
        <ele>326.789544</ele>
        <time>2021-11-19T22:06:05.833Z</time>
      </trkpt>
      <trkpt lat="47.550908" lon="7.894308">
        <ele>325.458595</ele>
        <time>2021-11-19T22:06:15.038Z</time>
      </trkpt>
      <trkpt lat="47.550878" lon="7.895158">
        <ele>324.458061</ele>
        <time>2021-11-19T22:06:22.223Z</time>
      </trkpt>
      <trkpt lat="47.550838" lon="7.895509">
        <ele>324.006854</ele>
        <time>2021-11-19T22:06:25.387Z</time>
      </trkpt>
      <trkpt lat="47.550660" lon="7.896255">
        <ele>322.974060</ele>
        <time>2021-11-19T22:06:31.875Z</time>
      </trkpt>
      <trkpt lat="47.550639" lon="7.896345">
        <ele>322.849763</ele>
        <time>2021-11-19T22:06:33.062Z</time>
      </trkpt>
      <trkpt lat="47.550648" lon="7.896481">
        <ele>322.671393</ele>
        <time>2021-11-19T22:06:34.018Z</time>
      </trkpt>
      <trkpt lat="47.550819" lon="7.898109">
        <ele>320.146182</ele>
        <time>2021-11-19T22:06:45.766Z</time>
      </trkpt>
      <trkpt lat="47.550801" lon="7.900244">
        <ele>314.262393</ele>
        <time>2021-11-19T22:06:59.603Z</time>
      </trkpt>
      <trkpt lat="47.550769" lon="7.901362">
        <ele>311.338449</ele>
        <time>2021-11-19T22:07:06.875Z</time>
      </trkpt>
      <trkpt lat="47.550757" lon="7.901591">
        <ele>310.748769</ele>
        <time>2021-11-19T22:07:09.011Z</time>
      </trkpt>
      <trkpt lat="47.550688" lon="7.902451">
        <ele>308.525348</ele>
        <time>2021-11-19T22:07:17.445Z</time>
      </trkpt>
      <trkpt lat="47.550498" lon="7.903445">
        <ele>305.865819</ele>
        <time>2021-11-19T22:07:27.695Z</time>
      </trkpt>
      <trkpt lat="47.550302" lon="7.904164">
        <ele>303.856965</ele>
        <time>2021-11-19T22:07:34.955Z</time>
      </trkpt>
      <trkpt lat="47.550025" lon="7.904774">
        <ele>301.952300</ele>
        <time>2021-11-19T22:07:41.880Z</time>
      </trkpt>
      <trkpt lat="47.549868" lon="7.905010">
        <ele>301.093843</ele>
        <time>2021-11-19T22:07:45.011Z</time>
      </trkpt>
      <trkpt lat="47.549867" lon="7.905155">
        <ele>300.718177</ele>
        <time>2021-11-19T22:07:46.408Z</time>
      </trkpt>
      <trkpt lat="47.550067" lon="7.905245">
        <ele>299.915888</ele>
        <time>2021-11-19T22:07:49.333Z</time>
      </trkpt>
      <trkpt lat="47.550283" lon="7.905413">
        <ele>299.205975</ele>
        <time>2021-11-19T22:07:52.783Z</time>
      </trkpt>
      <trkpt lat="47.550497" lon="7.905558">
        <ele>298.561824</ele>
        <time>2021-11-19T22:07:56.141Z</time>
      </trkpt>
      <trkpt lat="47.549539" lon="7.908625">
        <ele>293.264728</ele>
        <time>2021-11-19T22:08:20.583Z</time>
      </trkpt>
      <trkpt lat="47.549520" lon="7.908678">
        <ele>293.195385</ele>
        <time>2021-11-19T22:08:21.086Z</time>
      </trkpt>
      <trkpt lat="47.549324" lon="7.909327">
        <ele>292.373831</ele>
        <time>2021-11-19T22:08:26.881Z</time>
      </trkpt>
      <trkpt lat="47.549195" lon="7.909756">
        <ele>291.831158</ele>
        <time>2021-11-19T22:08:30.729Z</time>
      </trkpt>
      <trkpt lat="47.549102" lon="7.910058">
        <ele>291.552241</ele>
        <time>2021-11-19T22:08:33.424Z</time>
      </trkpt>
      <trkpt lat="47.549012" lon="7.910340">
        <ele>291.310153</ele>
        <time>2021-11-19T22:08:35.941Z</time>
      </trkpt>
      <trkpt lat="47.548412" lon="7.912168">
        <ele>289.732614</ele>
        <time>2021-11-19T22:08:52.274Z</time>
      </trkpt>
      <trkpt lat="47.548027" lon="7.913334">
        <ele>289.148985</ele>
        <time>2021-11-19T22:09:03.035Z</time>
      </trkpt>
      <trkpt lat="47.547994" lon="7.913433">
        <ele>289.100616</ele>
        <time>2021-11-19T22:09:03.956Z</time>
      </trkpt>
      <trkpt lat="47.547423" lon="7.915080">
        <ele>288.624858</ele>
        <time>2021-11-19T22:09:21.432Z</time>
      </trkpt>
      <trkpt lat="47.547113" lon="7.915971">
        <ele>288.795977</ele>
        <time>2021-11-19T22:09:31.880Z</time>
      </trkpt>
      <trkpt lat="47.547091" lon="7.916039">
        <ele>288.808849</ele>
        <time>2021-11-19T22:09:32.904Z</time>
      </trkpt>
      <trkpt lat="47.547032" lon="7.916218">
        <ele>288.842855</ele>
        <time>2021-11-19T22:09:35.107Z</time>
      </trkpt>
      <trkpt lat="47.546821" lon="7.916867">
        <ele>288.965828</ele>
        <time>2021-11-19T22:09:43.216Z</time>
      </trkpt>
      <trkpt lat="47.546262" lon="7.919081">
        <ele>289.717863</ele>
        <time>2021-11-19T22:10:10.727Z</time>
      </trkpt>
      <trkpt lat="47.546128" lon="7.919617">
        <ele>289.927964</ele>
        <time>2021-11-19T22:10:16.196Z</time>
      </trkpt>
      <trkpt lat="47.545973" lon="7.920313">
        <ele>290.280247</ele>
        <time>2021-11-19T22:10:24.659Z</time>
      </trkpt>
      <trkpt lat="47.545913" lon="7.920765">
        <ele>290.501671</ele>
        <time>2021-11-19T22:10:28.832Z</time>
      </trkpt>
      <trkpt lat="47.545881" lon="7.921096">
        <ele>290.662397</ele>
        <time>2021-11-19T22:10:32.849Z</time>
      </trkpt>
      <trkpt lat="47.545810" lon="7.921755">
        <ele>290.983168</ele>
        <time>2021-11-19T22:10:41.758Z</time>
      </trkpt>
      <trkpt lat="47.545778" lon="7.921947">
        <ele>291.078229</ele>
        <time>2021-11-19T22:10:45.366Z</time>
      </trkpt>
      <trkpt lat="47.545714" lon="7.922249">
        <ele>291.519962</ele>
        <time>2021-11-19T22:10:48.565Z</time>
      </trkpt>
      <trkpt lat="47.545699" lon="7.922325">
        <ele>291.673166</ele>
        <time>2021-11-19T22:10:49.762Z</time>
      </trkpt>
      <trkpt lat="47.545690" lon="7.922369">
        <ele>291.762121</ele>
        <time>2021-11-19T22:10:51.861Z</time>
      </trkpt>
      <trkpt lat="47.545641" lon="7.922610">
        <ele>292.249108</ele>
        <time>2021-11-19T22:10:54.215Z</time>
      </trkpt>
      <trkpt lat="47.545587" lon="7.922895">
        <ele>292.821845</ele>
        <time>2021-11-19T22:11:00.011Z</time>
      </trkpt>
      <trkpt lat="47.545553" lon="7.923142">
        <ele>293.309584</ele>
        <time>2021-11-19T22:11:02.658Z</time>
      </trkpt>
      <trkpt lat="47.545536" lon="7.923407">
        <ele>293.824624</ele>
        <time>2021-11-19T22:11:08.547Z</time>
      </trkpt>
      <trkpt lat="47.545521" lon="7.923709">
        <ele>294.410523</ele>
        <time>2021-11-19T22:11:12.701Z</time>
      </trkpt>
      <trkpt lat="47.545481" lon="7.924396">
        <ele>295.744687</ele>
        <time>2021-11-19T22:11:27.304Z</time>
      </trkpt>
      <trkpt lat="47.545466" lon="7.924880">
        <ele>296.741538</ele>
        <time>2021-11-19T22:11:38.611Z</time>
      </trkpt>
      <trkpt lat="47.545446" lon="7.925350">
        <ele>297.790851</ele>
        <time>2021-11-19T22:11:48.986Z</time>
      </trkpt>
      <trkpt lat="47.545417" lon="7.925848">
        <ele>298.904595</ele>
        <time>2021-11-19T22:11:59.465Z</time>
      </trkpt>
      <trkpt lat="47.545409" lon="7.926773">
        <ele>300.965812</ele>
        <time>2021-11-19T22:12:16.666Z</time>
      </trkpt>
      <trkpt lat="47.545407" lon="7.927001">
        <ele>301.473875</ele>
        <time>2021-11-19T22:12:20.475Z</time>
      </trkpt>
      <trkpt lat="47.545406" lon="7.927306">
        <ele>302.153472</ele>
        <time>2021-11-19T22:12:25.079Z</time>
      </trkpt>
      <trkpt lat="47.545421" lon="7.927686">
        <ele>302.149438</ele>
        <time>2021-11-19T22:12:30.615Z</time>
      </trkpt>
      <trkpt lat="47.545475" lon="7.928419">
        <ele>301.983737</ele>
        <time>2021-11-19T22:12:39.932Z</time>
      </trkpt>
      <trkpt lat="47.545563" lon="7.929641">
        <ele>301.707568</ele>
        <time>2021-11-19T22:12:49.812Z</time>
      </trkpt>
      <trkpt lat="47.545661" lon="7.930955">
        <ele>300.439964</ele>
        <time>2021-11-19T22:12:59.207Z</time>
      </trkpt>
      <trkpt lat="47.545696" lon="7.931497">
        <ele>299.773440</ele>
        <time>2021-11-19T22:13:03.176Z</time>
      </trkpt>
      <trkpt lat="47.545721" lon="7.931992">
        <ele>299.165787</ele>
        <time>2021-11-19T22:13:06.969Z</time>
      </trkpt>
      <trkpt lat="47.545724" lon="7.932758">
        <ele>298.390064</ele>
        <time>2021-11-19T22:13:13.178Z</time>
      </trkpt>
      <trkpt lat="47.545702" lon="7.933290">
        <ele>298.499760</ele>
        <time>2021-11-19T22:13:17.821Z</time>
      </trkpt>
      <trkpt lat="47.545674" lon="7.933625">
        <ele>298.569232</ele>
        <time>2021-11-19T22:13:21.021Z</time>
      </trkpt>
      <trkpt lat="47.545457" lon="7.935110">
        <ele>298.881939</ele>
        <time>2021-11-19T22:13:39.156Z</time>
      </trkpt>
      <trkpt lat="47.545074" lon="7.936484">
        <ele>300.354296</ele>
        <time>2021-11-19T22:14:00.684Z</time>
      </trkpt>
      <trkpt lat="47.544903" lon="7.936917">
        <ele>300.899115</ele>
        <time>2021-11-19T22:14:08.000Z</time>
      </trkpt>
      <trkpt lat="47.544705" lon="7.937395">
        <ele>301.508189</ele>
        <time>2021-11-19T22:14:16.184Z</time>
      </trkpt>
      <trkpt lat="47.544472" lon="7.937932">
        <ele>302.246915</ele>
        <time>2021-11-19T22:14:25.591Z</time>
      </trkpt>
      <trkpt lat="47.543826" lon="7.939433">
        <ele>304.404014</ele>
        <time>2021-11-19T22:14:52.473Z</time>
      </trkpt>
      <trkpt lat="47.543435" lon="7.940670">
        <ele>305.659695</ele>
        <time>2021-11-19T22:15:12.433Z</time>
      </trkpt>
      <trkpt lat="47.543161" lon="7.942213">
        <ele>306.836871</ele>
        <time>2021-11-19T22:15:33.283Z</time>
      </trkpt>
      <trkpt lat="47.543007" lon="7.943867">
        <ele>306.093101</ele>
        <time>2021-11-19T22:15:48.827Z</time>
      </trkpt>
      <trkpt lat="47.542913" lon="7.945267">
        <ele>304.993036</ele>
        <time>2021-11-19T22:15:59.586Z</time>
      </trkpt>
      <trkpt lat="47.542872" lon="7.945781">
        <ele>304.074832</ele>
        <time>2021-11-19T22:16:03.183Z</time>
      </trkpt>
      <trkpt lat="47.542875" lon="7.946089">
        <ele>303.528369</ele>
        <time>2021-11-19T22:16:05.274Z</time>
      </trkpt>
      <trkpt lat="47.542902" lon="7.946514">
        <ele>302.771067</ele>
        <time>2021-11-19T22:16:08.153Z</time>
      </trkpt>
      <trkpt lat="47.542943" lon="7.946806">
        <ele>302.241958</ele>
        <time>2021-11-19T22:16:10.199Z</time>
      </trkpt>
      <trkpt lat="47.542974" lon="7.946965">
        <ele>301.948356</ele>
        <time>2021-11-19T22:16:11.410Z</time>
      </trkpt>
      <trkpt lat="47.542979" lon="7.946989">
        <ele>301.903797</ele>
        <time>2021-11-19T22:16:11.565Z</time>
      </trkpt>
      <trkpt lat="47.543007" lon="7.947104">
        <ele>301.686917</ele>
        <time>2021-11-19T22:16:12.414Z</time>
      </trkpt>
      <trkpt lat="47.543087" lon="7.947317">
        <ele>301.254494</ele>
        <time>2021-11-19T22:16:14.156Z</time>
      </trkpt>
      <trkpt lat="47.543191" lon="7.947615">
        <ele>300.659357</ele>
        <time>2021-11-19T22:16:16.598Z</time>
      </trkpt>
      <trkpt lat="47.543242" lon="7.947745">
        <ele>300.525815</ele>
        <time>2021-11-19T22:16:17.728Z</time>
      </trkpt>
      <trkpt lat="47.543273" lon="7.947816">
        <ele>300.474137</ele>
        <time>2021-11-19T22:16:18.355Z</time>
      </trkpt>
      <trkpt lat="47.543358" lon="7.947967">
        <ele>300.353978</ele>
        <time>2021-11-19T22:16:19.798Z</time>
      </trkpt>
      <trkpt lat="47.543455" lon="7.948127">
        <ele>300.222547</ele>
        <time>2021-11-19T22:16:21.464Z</time>
      </trkpt>
      <trkpt lat="47.543532" lon="7.948214">
        <ele>300.134872</ele>
        <time>2021-11-19T22:16:22.545Z</time>
      </trkpt>
      <trkpt lat="47.543579" lon="7.948287">
        <ele>300.073219</ele>
        <time>2021-11-19T22:16:23.309Z</time>
      </trkpt>
      <trkpt lat="47.543760" lon="7.948548">
        <ele>299.844535</ele>
        <time>2021-11-19T22:16:26.198Z</time>
      </trkpt>
      <trkpt lat="47.543864" lon="7.948694">
        <ele>299.714816</ele>
        <time>2021-11-19T22:16:27.868Z</time>
      </trkpt>
      <trkpt lat="47.544239" lon="7.949202">
        <ele>299.254759</ele>
        <time>2021-11-19T22:16:35.232Z</time>
      </trkpt>
      <trkpt lat="47.544521" lon="7.949558">
        <ele>298.924222</ele>
        <time>2021-11-19T22:16:41.405Z</time>
      </trkpt>
      <trkpt lat="47.544901" lon="7.950044">
        <ele>298.516039</ele>
        <time>2021-11-19T22:16:50.205Z</time>
      </trkpt>
      <trkpt lat="47.545166" lon="7.950366">
        <ele>298.237366</ele>
        <time>2021-11-19T22:16:55.445Z</time>
      </trkpt>
      <trkpt lat="47.545434" lon="7.950668">
        <ele>297.963585</ele>
        <time>2021-11-19T22:16:59.686Z</time>
      </trkpt>
      <trkpt lat="47.545542" lon="7.950842">
        <ele>297.833851</ele>
        <time>2021-11-19T22:17:01.465Z</time>
      </trkpt>
      <trkpt lat="47.545667" lon="7.950979">
        <ele>297.707426</ele>
        <time>2021-11-19T22:17:03.234Z</time>
      </trkpt>
      <trkpt lat="47.545737" lon="7.951055">
        <ele>297.636862</ele>
        <time>2021-11-19T22:17:04.165Z</time>
      </trkpt>
      <trkpt lat="47.545759" lon="7.950982">
        <ele>297.592986</ele>
        <time>2021-11-19T22:17:04.731Z</time>
      </trkpt>
      <trkpt lat="47.545852" lon="7.950808">
        <ele>297.353014</ele>
        <time>2021-11-19T22:17:06.303Z</time>
      </trkpt>
      <trkpt lat="47.545858" lon="7.950769">
        <ele>297.254249</ele>
        <time>2021-11-19T22:17:06.583Z</time>
      </trkpt>
      <trkpt lat="47.545875" lon="7.950668">
        <ele>296.997233</ele>
        <time>2021-11-19T22:17:07.326Z</time>
      </trkpt>
      <trkpt lat="47.545948" lon="7.950297">
        <ele>296.043066</ele>
        <time>2021-11-19T22:17:09.926Z</time>
      </trkpt>
      <trkpt lat="47.545949" lon="7.950185">
        <ele>295.766501</ele>
        <time>2021-11-19T22:17:10.684Z</time>
      </trkpt>
      <trkpt lat="47.546159" lon="7.949303">
        <ele>293.457243</ele>
        <time>2021-11-19T22:17:16.707Z</time>
      </trkpt>
      <trkpt lat="47.546572" lon="7.947545">
        <ele>289.780290</ele>
        <time>2021-11-19T22:17:29.179Z</time>
      </trkpt>
      <trkpt lat="47.546664" lon="7.947227">
        <ele>289.306360</ele>
        <time>2021-11-19T22:17:31.703Z</time>
      </trkpt>
      <trkpt lat="47.546749" lon="7.946929">
        <ele>288.863202</ele>
        <time>2021-11-19T22:17:34.087Z</time>
      </trkpt>
      <trkpt lat="47.546772" lon="7.946847">
        <ele>288.741565</ele>
        <time>2021-11-19T22:17:34.762Z</time>
      </trkpt>
      <trkpt lat="47.546815" lon="7.946690">
        <ele>288.509473</ele>
        <time>2021-11-19T22:17:36.052Z</time>
      </trkpt>
      <trkpt lat="47.546959" lon="7.946071">
        <ele>287.612610</ele>
        <time>2021-11-19T22:17:41.360Z</time>
      </trkpt>
      <trkpt lat="47.547022" lon="7.945790">
        <ele>287.263841</ele>
        <time>2021-11-19T22:17:44.195Z</time>
      </trkpt>
      <trkpt lat="47.547075" lon="7.945550">
        <ele>287.205192</ele>
        <time>2021-11-19T22:17:46.516Z</time>
      </trkpt>
      <trkpt lat="47.547150" lon="7.945242">
        <ele>287.129146</ele>
        <time>2021-11-19T22:17:50.322Z</time>
      </trkpt>
      <trkpt lat="47.547161" lon="7.945196">
        <ele>287.117811</ele>
        <time>2021-11-19T22:17:50.801Z</time>
      </trkpt>
      <trkpt lat="47.547282" lon="7.944699">
        <ele>286.995103</ele>
        <time>2021-11-19T22:17:56.448Z</time>
      </trkpt>
      <trkpt lat="47.547318" lon="7.944515">
        <ele>286.950609</ele>
        <time>2021-11-19T22:17:58.132Z</time>
      </trkpt>
      <trkpt lat="47.547344" lon="7.944382">
        <ele>286.918450</ele>
        <time>2021-11-19T22:17:59.507Z</time>
      </trkpt>
      <trkpt lat="47.547354" lon="7.944331">
        <ele>286.906116</ele>
        <time>2021-11-19T22:18:00.038Z</time>
      </trkpt>
      <trkpt lat="47.547734" lon="7.942722">
        <ele>286.349258</ele>
        <time>2021-11-19T22:18:15.022Z</time>
      </trkpt>
      <trkpt lat="47.547790" lon="7.942490">
        <ele>286.229099</ele>
        <time>2021-11-19T22:18:17.057Z</time>
      </trkpt>
      <trkpt lat="47.548087" lon="7.941446">
        <ele>285.676587</ele>
        <time>2021-11-19T22:18:27.105Z</time>
      </trkpt>
      <trkpt lat="47.548484" lon="7.940313">
        <ele>285.005693</ele>
        <time>2021-11-19T22:18:37.434Z</time>
      </trkpt>
      <trkpt lat="47.548550" lon="7.940126">
        <ele>284.886363</ele>
        <time>2021-11-19T22:18:39.176Z</time>
      </trkpt>
      <trkpt lat="47.548587" lon="7.940118">
        <ele>284.855036</ele>
        <time>2021-11-19T22:18:39.664Z</time>
      </trkpt>
      <trkpt lat="47.548632" lon="7.940087">
        <ele>284.813459</ele>
        <time>2021-11-19T22:18:40.304Z</time>
      </trkpt>
      <trkpt lat="47.548653" lon="7.940052">
        <ele>284.786977</ele>
        <time>2021-11-19T22:18:40.709Z</time>
      </trkpt>
      <trkpt lat="47.548676" lon="7.939951">
        <ele>284.726701</ele>
        <time>2021-11-19T22:18:41.590Z</time>
      </trkpt>
      <trkpt lat="47.548673" lon="7.939890">
        <ele>284.692115</ele>
        <time>2021-11-19T22:18:42.122Z</time>
      </trkpt>
      <trkpt lat="47.548643" lon="7.939810">
        <ele>284.640363</ele>
        <time>2021-11-19T22:18:42.890Z</time>
      </trkpt>
      <trkpt lat="47.548614" lon="7.939778">
        <ele>284.610069</ele>
        <time>2021-11-19T22:18:43.324Z</time>
      </trkpt>
      <trkpt lat="47.548563" lon="7.939753">
        <ele>284.565063</ele>
        <time>2021-11-19T22:18:43.993Z</time>
      </trkpt>
      <trkpt lat="47.548509" lon="7.939765">
        <ele>284.519316</ele>
        <time>2021-11-19T22:18:44.709Z</time>
      </trkpt>
      <trkpt lat="47.548230" lon="7.939581">
        <ele>284.263458</ele>
        <time>2021-11-19T22:18:48.537Z</time>
      </trkpt>
      <trkpt lat="47.548150" lon="7.939478">
        <ele>284.174662</ele>
        <time>2021-11-19T22:18:49.939Z</time>
      </trkpt>
      <trkpt lat="47.548129" lon="7.939460">
        <ele>284.154336</ele>
        <time>2021-11-19T22:18:50.236Z</time>
      </trkpt>
      <trkpt lat="47.548085" lon="7.939422">
        <ele>284.111667</ele>
        <time>2021-11-19T22:18:50.879Z</time>
      </trkpt>
      <trkpt lat="47.547474" lon="7.938844">
        <ele>283.747791</ele>
        <time>2021-11-19T22:19:00.520Z</time>
      </trkpt>
      <trkpt lat="47.547174" lon="7.938475">
        <ele>283.651134</ele>
        <time>2021-11-19T22:19:05.583Z</time>
      </trkpt>
      <trkpt lat="47.547115" lon="7.938377">
        <ele>283.629161</ele>
        <time>2021-11-19T22:19:06.747Z</time>
      </trkpt>
      <trkpt lat="47.547044" lon="7.938237">
        <ele>283.599861</ele>
        <time>2021-11-19T22:19:08.440Z</time>
      </trkpt>
      <trkpt lat="47.546969" lon="7.938023">
        <ele>283.559515</ele>
        <time>2021-11-19T22:19:10.843Z</time>
      </trkpt>
      <trkpt lat="47.546915" lon="7.937800">
        <ele>283.519873</ele>
        <time>2021-11-19T22:19:13.197Z</time>
      </trkpt>
      <trkpt lat="47.546915" lon="7.937800">
        <ele>283.519873</ele>
        <time>2021-11-19T22:19:13.224Z</time>
      </trkpt>
      <trkpt lat="47.546890" lon="7.937602">
        <ele>283.486168</ele>
        <time>2021-11-19T22:19:15.411Z</time>
      </trkpt>
      <trkpt lat="47.546895" lon="7.937196">
        <ele>283.418223</ele>
        <time>2021-11-19T22:19:19.496Z</time>
      </trkpt>
      <trkpt lat="47.547020" lon="7.936617">
        <ele>283.514058</ele>
        <time>2021-11-19T22:19:25.813Z</time>
      </trkpt>
      <trkpt lat="47.547523" lon="7.935115">
        <ele>283.865284</ele>
        <time>2021-11-19T22:19:43.905Z</time>
      </trkpt>
      <trkpt lat="47.547539" lon="7.935068">
        <ele>283.876310</ele>
        <time>2021-11-19T22:19:44.471Z</time>
      </trkpt>
      <trkpt lat="47.547663" lon="7.934665">
        <ele>283.977314</ele>
        <time>2021-11-19T22:19:49.424Z</time>
      </trkpt>
      <trkpt lat="47.547956" lon="7.933604">
        <ele>284.514103</ele>
        <time>2021-11-19T22:20:02.774Z</time>
      </trkpt>
      <trkpt lat="47.548144" lon="7.932614">
        <ele>284.995668</ele>
        <time>2021-11-19T22:20:15.700Z</time>
      </trkpt>
      <trkpt lat="47.548252" lon="7.930989">
        <ele>285.807870</ele>
        <time>2021-11-19T22:20:35.198Z</time>
      </trkpt>
      <trkpt lat="47.548241" lon="7.930335">
        <ele>286.140719</ele>
        <time>2021-11-19T22:20:42.397Z</time>
      </trkpt>
      <trkpt lat="47.548236" lon="7.930144">
        <ele>286.237970</ele>
        <time>2021-11-19T22:20:44.376Z</time>
      </trkpt>
      <trkpt lat="47.548226" lon="7.929841">
        <ele>286.392316</ele>
        <time>2021-11-19T22:20:48.358Z</time>
      </trkpt>
      <trkpt lat="47.548192" lon="7.928866">
        <ele>287.269062</ele>
        <time>2021-11-19T22:21:00.998Z</time>
      </trkpt>
      <trkpt lat="47.548186" lon="7.928343">
        <ele>287.848270</ele>
        <time>2021-11-19T22:21:08.503Z</time>
      </trkpt>
      <trkpt lat="47.548228" lon="7.928033">
        <ele>288.198383</ele>
        <time>2021-11-19T22:21:12.566Z</time>
      </trkpt>
      <trkpt lat="47.548275" lon="7.927880">
        <ele>288.384522</ele>
        <time>2021-11-19T22:21:14.895Z</time>
      </trkpt>
      <trkpt lat="47.548298" lon="7.927820">
        <ele>288.460928</ele>
        <time>2021-11-19T22:21:16.633Z</time>
      </trkpt>
      <trkpt lat="47.548534" lon="7.927518">
        <ele>288.972519</ele>
        <time>2021-11-19T22:21:23.025Z</time>
      </trkpt>
      <trkpt lat="47.548777" lon="7.927430">
        <ele>289.382905</ele>
        <time>2021-11-19T22:21:29.021Z</time>
      </trkpt>
      <trkpt lat="47.548912" lon="7.927437">
        <ele>289.610179</ele>
        <time>2021-11-19T22:21:32.654Z</time>
      </trkpt>
      <trkpt lat="47.549059" lon="7.927444">
        <ele>289.867036</ele>
        <time>2021-11-19T22:21:36.306Z</time>
      </trkpt>
      <trkpt lat="47.549697" lon="7.927581">
        <ele>290.992900</ele>
        <time>2021-11-19T22:21:51.928Z</time>
      </trkpt>
      <trkpt lat="47.550041" lon="7.927651">
        <ele>291.599311</ele>
        <time>2021-11-19T22:21:59.491Z</time>
      </trkpt>
      <trkpt lat="47.550381" lon="7.927709">
        <ele>292.197020</ele>
        <time>2021-11-19T22:22:06.637Z</time>
      </trkpt>
      <trkpt lat="47.550481" lon="7.927724">
        <ele>292.372555</ele>
        <time>2021-11-19T22:22:08.576Z</time>
      </trkpt>
      <trkpt lat="47.550669" lon="7.927757">
        <ele>292.669578</ele>
        <time>2021-11-19T22:22:11.794Z</time>
      </trkpt>
      <trkpt lat="47.551076" lon="7.927850">
        <ele>292.854584</ele>
        <time>2021-11-19T22:22:18.773Z</time>
      </trkpt>
      <trkpt lat="47.551163" lon="7.927871">
        <ele>292.894184</ele>
        <time>2021-11-19T22:22:20.167Z</time>
      </trkpt>
      <trkpt lat="47.551192" lon="7.927575">
        <ele>292.984876</ele>
        <time>2021-11-19T22:22:23.528Z</time>
      </trkpt>
      <trkpt lat="47.551183" lon="7.927256">
        <ele>293.081685</ele>
        <time>2021-11-19T22:22:27.042Z</time>
      </trkpt>
      <trkpt lat="47.551209" lon="7.927048">
        <ele>293.145826</ele>
        <time>2021-11-19T22:22:29.310Z</time>
      </trkpt>
      <trkpt lat="47.551236" lon="7.926890">
        <ele>293.195245</ele>
        <time>2021-11-19T22:22:31.180Z</time>
      </trkpt>
      <trkpt lat="47.551262" lon="7.926787">
        <ele>293.228589</ele>
        <time>2021-11-19T22:22:32.280Z</time>
      </trkpt>
      <trkpt lat="47.551300" lon="7.926708">
        <ele>293.258003</ele>
        <time>2021-11-19T22:22:33.284Z</time>
      </trkpt>
      <trkpt lat="47.551345" lon="7.926636">
        <ele>293.287757</ele>
        <time>2021-11-19T22:22:34.295Z</time>
      </trkpt>
      <trkpt lat="47.551423" lon="7.926561">
        <ele>293.329531</ele>
        <time>2021-11-19T22:22:35.918Z</time>
      </trkpt>
      <trkpt lat="47.551676" lon="7.926477">
        <ele>293.446010</ele>
        <time>2021-11-19T22:22:39.851Z</time>
      </trkpt>
      <trkpt lat="47.551788" lon="7.926512">
        <ele>293.489262</ele>
        <time>2021-11-19T22:22:41.854Z</time>
      </trkpt>
      <trkpt lat="47.552250" lon="7.926787">
        <ele>293.654833</ele>
        <time>2021-11-19T22:22:49.609Z</time>
      </trkpt>
      <trkpt lat="47.552388" lon="7.926860">
        <ele>293.703561</ele>
        <time>2021-11-19T22:22:52.038Z</time>
      </trkpt>
      <trkpt lat="47.552729" lon="7.927061">
        <ele>293.825603</ele>
        <time>2021-11-19T22:22:58.071Z</time>
      </trkpt>
      <trkpt lat="47.552928" lon="7.927209">
        <ele>293.899648</ele>
        <time>2021-11-19T22:23:01.724Z</time>
      </trkpt>
      <trkpt lat="47.553166" lon="7.927389">
        <ele>293.988509</ele>
        <time>2021-11-19T22:23:06.306Z</time>
      </trkpt>
      <trkpt lat="47.553221" lon="7.927438">
        <ele>294.009850</ele>
        <time>2021-11-19T22:23:07.261Z</time>
      </trkpt>
      <trkpt lat="47.553257" lon="7.927322">
        <ele>294.038506</ele>
        <time>2021-11-19T22:23:08.709Z</time>
      </trkpt>
      <trkpt lat="47.553294" lon="7.927186">
        <ele>294.064746</ele>
        <time>2021-11-19T22:23:10.347Z</time>
      </trkpt>
      <trkpt lat="47.553381" lon="7.926895">
        <ele>294.070949</ele>
        <time>2021-11-19T22:23:13.680Z</time>
      </trkpt>
      <trkpt lat="47.553408" lon="7.926803">
        <ele>294.072904</ele>
        <time>2021-11-19T22:23:14.795Z</time>
      </trkpt>
      <trkpt lat="47.553539" lon="7.926451">
        <ele>294.080739</ele>
        <time>2021-11-19T22:23:18.923Z</time>
      </trkpt>
      <trkpt lat="47.553834" lon="7.925632">
        <ele>294.098833</ele>
        <time>2021-11-19T22:23:28.062Z</time>
      </trkpt>
      <trkpt lat="47.554226" lon="7.924713">
        <ele>294.092772</ele>
        <time>2021-11-19T22:23:38.580Z</time>
      </trkpt>
      <trkpt lat="47.554705" lon="7.923835">
        <ele>293.963640</ele>
        <time>2021-11-19T22:23:49.416Z</time>
      </trkpt>
      <trkpt lat="47.555272" lon="7.922934">
        <ele>293.822737</ele>
        <time>2021-11-19T22:24:01.055Z</time>
      </trkpt>
      <trkpt lat="47.556470" lon="7.921630">
        <ele>293.647285</ele>
        <time>2021-11-19T22:24:22.452Z</time>
      </trkpt>
      <trkpt lat="47.556514" lon="7.921582">
        <ele>293.640971</ele>
        <time>2021-11-19T22:24:23.265Z</time>
      </trkpt>
      <trkpt lat="47.556542" lon="7.921551">
        <ele>293.636931</ele>
        <time>2021-11-19T22:24:23.758Z</time>
      </trkpt>
      <trkpt lat="47.557147" lon="7.921064">
        <ele>293.529148</ele>
        <time>2021-11-19T22:24:33.933Z</time>
      </trkpt>
      <trkpt lat="47.558098" lon="7.920440">
        <ele>293.335229</ele>
        <time>2021-11-19T22:24:49.073Z</time>
      </trkpt>
      <trkpt lat="47.561244" lon="7.918902">
        <ele>291.262991</ele>
        <time>2021-11-19T22:25:32.516Z</time>
      </trkpt>
      <trkpt lat="47.561405" lon="7.918835">
        <ele>291.108779</ele>
        <time>2021-11-19T22:25:34.427Z</time>
      </trkpt>
      <trkpt lat="47.561792" lon="7.918633">
        <ele>290.730409</ele>
        <time>2021-11-19T22:25:39.113Z</time>
      </trkpt>
      <trkpt lat="47.562098" lon="7.918473">
        <ele>290.364644</ele>
        <time>2021-11-19T22:25:42.847Z</time>
      </trkpt>
      <trkpt lat="47.562192" lon="7.918413">
        <ele>290.243763</ele>
        <time>2021-11-19T22:25:44.004Z</time>
      </trkpt>
      <trkpt lat="47.562330" lon="7.918325">
        <ele>290.066325</ele>
        <time>2021-11-19T22:25:45.759Z</time>
      </trkpt>
      <trkpt lat="47.562491" lon="7.918206">
        <ele>289.853832</ele>
        <time>2021-11-19T22:25:47.797Z</time>
      </trkpt>
      <trkpt lat="47.562766" lon="7.918001">
        <ele>289.490259</ele>
        <time>2021-11-19T22:25:51.381Z</time>
      </trkpt>
      <trkpt lat="47.562783" lon="7.917983">
        <ele>289.465582</ele>
        <time>2021-11-19T22:25:51.600Z</time>
      </trkpt>
      <trkpt lat="47.563304" lon="7.917434">
        <ele>288.710544</ele>
        <time>2021-11-19T22:25:59.344Z</time>
      </trkpt>
      <trkpt lat="47.563485" lon="7.917258">
        <ele>288.543460</ele>
        <time>2021-11-19T22:26:02.198Z</time>
      </trkpt>
      <trkpt lat="47.564482" lon="7.916219">
        <ele>288.537901</ele>
        <time>2021-11-19T22:26:20.579Z</time>
      </trkpt>
      <trkpt lat="47.564500" lon="7.916200">
        <ele>288.537800</ele>
        <time>2021-11-19T22:26:20.933Z</time>
      </trkpt>
      <trkpt lat="47.564526" lon="7.916174">
        <ele>288.537657</ele>
        <time>2021-11-19T22:26:21.420Z</time>
      </trkpt>
      <trkpt lat="47.564899" lon="7.915798">
        <ele>288.535607</ele>
        <time>2021-11-19T22:26:28.613Z</time>
      </trkpt>
      <trkpt lat="47.565627" lon="7.915066">
        <ele>288.641681</ele>
        <time>2021-11-19T22:26:42.506Z</time>
      </trkpt>
      <trkpt lat="47.565672" lon="7.915025">
        <ele>288.648050</ele>
        <time>2021-11-19T22:26:43.343Z</time>
      </trkpt>
      <trkpt lat="47.565748" lon="7.914949">
        <ele>288.659104</ele>
        <time>2021-11-19T22:26:44.799Z</time>
      </trkpt>
      <trkpt lat="47.565830" lon="7.914880">
        <ele>288.670474</ele>
        <time>2021-11-19T22:26:46.305Z</time>
      </trkpt>
      <trkpt lat="47.565995" lon="7.914739">
        <ele>288.693439</ele>
        <time>2021-11-19T22:26:49.231Z</time>
      </trkpt>
      <trkpt lat="47.566025" lon="7.914720">
        <ele>288.697373</ele>
        <time>2021-11-19T22:26:49.660Z</time>
      </trkpt>
      <trkpt lat="47.566096" lon="7.914676">
        <ele>288.706652</ele>
        <time>2021-11-19T22:26:50.842Z</time>
      </trkpt>
      <trkpt lat="47.566250" lon="7.914580">
        <ele>288.726796</ele>
        <time>2021-11-19T22:26:53.362Z</time>
      </trkpt>
      <trkpt lat="47.566474" lon="7.914468">
        <ele>288.742592</ele>
        <time>2021-11-19T22:26:56.673Z</time>
      </trkpt>
      <trkpt lat="47.566489" lon="7.914461">
        <ele>288.735972</ele>
        <time>2021-11-19T22:26:56.913Z</time>
      </trkpt>
      <trkpt lat="47.566534" lon="7.914439">
        <ele>288.716025</ele>
        <time>2021-11-19T22:26:57.589Z</time>
      </trkpt>
      <trkpt lat="47.566601" lon="7.914411">
        <ele>288.686722</ele>
        <time>2021-11-19T22:26:58.604Z</time>
      </trkpt>
      <trkpt lat="47.566984" lon="7.914229">
        <ele>288.517413</ele>
        <time>2021-11-19T22:27:04.138Z</time>
      </trkpt>
      <trkpt lat="47.567335" lon="7.914048">
        <ele>288.360972</ele>
        <time>2021-11-19T22:27:09.069Z</time>
      </trkpt>
      <trkpt lat="47.567374" lon="7.914028">
        <ele>288.343600</ele>
        <time>2021-11-19T22:27:09.548Z</time>
      </trkpt>
      <trkpt lat="47.568301" lon="7.913554">
        <ele>287.959599</ele>
        <time>2021-11-19T22:27:22.550Z</time>
      </trkpt>
      <trkpt lat="47.568566" lon="7.913414">
        <ele>287.894015</ele>
        <time>2021-11-19T22:27:26.256Z</time>
      </trkpt>
      <trkpt lat="47.569155" lon="7.913298">
        <ele>287.755499</ele>
        <time>2021-11-19T22:27:34.296Z</time>
      </trkpt>
      <trkpt lat="47.569682" lon="7.913220">
        <ele>287.632032</ele>
        <time>2021-11-19T22:27:41.866Z</time>
      </trkpt>
      <trkpt lat="47.571638" lon="7.913041">
        <ele>287.806615</ele>
        <time>2021-11-19T22:28:12.442Z</time>
      </trkpt>
      <trkpt lat="47.571807" lon="7.913030">
        <ele>287.781001</ele>
        <time>2021-11-19T22:28:15.094Z</time>
      </trkpt>
      <trkpt lat="47.571801" lon="7.912878">
        <ele>287.739656</ele>
        <time>2021-11-19T22:28:16.612Z</time>
      </trkpt>
      <trkpt lat="47.571815" lon="7.912822">
        <ele>287.723440</ele>
        <time>2021-11-19T22:28:17.199Z</time>
      </trkpt>
      <trkpt lat="47.571842" lon="7.912780">
        <ele>287.707686</ele>
        <time>2021-11-19T22:28:17.681Z</time>
      </trkpt>
      <trkpt lat="47.572195" lon="7.912650">
        <ele>287.561289</ele>
        <time>2021-11-19T22:28:22.850Z</time>
      </trkpt>
      <trkpt lat="47.572843" lon="7.912399">
        <ele>287.291721</ele>
        <time>2021-11-19T22:28:31.903Z</time>
      </trkpt>
      <trkpt lat="47.572921" lon="7.912369">
        <ele>287.259287</ele>
        <time>2021-11-19T22:28:32.859Z</time>
      </trkpt>
      <trkpt lat="47.573759" lon="7.912034">
        <ele>286.781842</ele>
        <time>2021-11-19T22:28:43.861Z</time>
      </trkpt>
      <trkpt lat="47.573998" lon="7.911915">
        <ele>286.609462</ele>
        <time>2021-11-19T22:28:46.978Z</time>
      </trkpt>
      <trkpt lat="47.574566" lon="7.911447">
        <ele>286.165150</ele>
        <time>2021-11-19T22:28:55.302Z</time>
      </trkpt>
      <trkpt lat="47.574901" lon="7.911251">
        <ele>285.918910</ele>
        <time>2021-11-19T22:28:59.988Z</time>
      </trkpt>
      <trkpt lat="47.575508" lon="7.910912">
        <ele>285.723896</ele>
        <time>2021-11-19T22:29:08.616Z</time>
      </trkpt>
      <trkpt lat="47.575539" lon="7.910898">
        <ele>285.715923</ele>
        <time>2021-11-19T22:29:09.127Z</time>
      </trkpt>
      <trkpt lat="47.575854" lon="7.910743">
        <ele>285.634274</ele>
        <time>2021-11-19T22:29:13.632Z</time>
      </trkpt>
      <trkpt lat="47.576932" lon="7.910134">
        <ele>285.525662</ele>
        <time>2021-11-19T22:29:30.618Z</time>
      </trkpt>
      <trkpt lat="47.577424" lon="7.909886">
        <ele>285.715054</ele>
        <time>2021-11-19T22:29:38.773Z</time>
      </trkpt>
      <trkpt lat="47.577771" lon="7.909710">
        <ele>285.848715</ele>
        <time>2021-11-19T22:29:44.865Z</time>
      </trkpt>
      <trkpt lat="47.578895" lon="7.909087">
        <ele>286.280195</ele>
        <time>2021-11-19T22:30:05.555Z</time>
      </trkpt>
      <trkpt lat="47.579056" lon="7.908962">
        <ele>286.344579</ele>
        <time>2021-11-19T22:30:09.020Z</time>
      </trkpt>
      <trkpt lat="47.579708" lon="7.908314">
        <ele>286.622659</ele>
        <time>2021-11-19T22:30:21.933Z</time>
      </trkpt>
      <trkpt lat="47.580105" lon="7.908168">
        <ele>286.582827</ele>
        <time>2021-11-19T22:30:27.682Z</time>
      </trkpt>
      <trkpt lat="47.580194" lon="7.908192">
        <ele>286.504827</ele>
        <time>2021-11-19T22:30:28.847Z</time>
      </trkpt>
      <trkpt lat="47.580422" lon="7.908273">
        <ele>286.302666</ele>
        <time>2021-11-19T22:30:31.976Z</time>
      </trkpt>
      <trkpt lat="47.580470" lon="7.908164">
        <ele>286.226954</ele>
        <time>2021-11-19T22:30:32.965Z</time>
      </trkpt>
      <trkpt lat="47.580552" lon="7.908081">
        <ele>286.141340</ele>
        <time>2021-11-19T22:30:34.332Z</time>
      </trkpt>
      <trkpt lat="47.581568" lon="7.907612">
        <ele>285.223801</ele>
        <time>2021-11-19T22:30:47.190Z</time>
      </trkpt>
      <trkpt lat="47.581793" lon="7.907472">
        <ele>285.083921</ele>
        <time>2021-11-19T22:30:49.962Z</time>
      </trkpt>
      <trkpt lat="47.582248" lon="7.907090">
        <ele>284.845767</ele>
        <time>2021-11-19T22:30:56.175Z</time>
      </trkpt>
      <trkpt lat="47.582657" lon="7.906618">
        <ele>284.609702</ele>
        <time>2021-11-19T22:31:02.808Z</time>
      </trkpt>
      <trkpt lat="47.582951" lon="7.906415">
        <ele>284.461988</ele>
        <time>2021-11-19T22:31:07.736Z</time>
      </trkpt>
      <trkpt lat="47.583077" lon="7.906399">
        <ele>284.404391</ele>
        <time>2021-11-19T22:31:09.615Z</time>
      </trkpt>
      <trkpt lat="47.583245" lon="7.906443">
        <ele>284.413759</ele>
        <time>2021-11-19T22:31:13.028Z</time>
      </trkpt>
      <trkpt lat="47.583451" lon="7.906619">
        <ele>284.860396</ele>
        <time>2021-11-19T22:31:17.570Z</time>
      </trkpt>
      <trkpt lat="47.583711" lon="7.906911">
        <ele>285.473132</ele>
        <time>2021-11-19T22:31:24.312Z</time>
      </trkpt>
      <trkpt lat="47.583887" lon="7.907113">
        <ele>285.891249</ele>
        <time>2021-11-19T22:31:29.295Z</time>
      </trkpt>
      <trkpt lat="47.584719" lon="7.908091">
        <ele>288.023578</ele>
        <time>2021-11-19T22:31:54.917Z</time>
      </trkpt>
      <trkpt lat="47.585084" lon="7.908692">
        <ele>289.912304</ele>
        <time>2021-11-19T22:32:09.603Z</time>
      </trkpt>
      <trkpt lat="47.585149" lon="7.908804">
        <ele>290.257369</ele>
        <time>2021-11-19T22:32:12.559Z</time>
      </trkpt>
      <trkpt lat="47.585222" lon="7.908901">
        <ele>290.596790</ele>
        <time>2021-11-19T22:32:15.721Z</time>
      </trkpt>
      <trkpt lat="47.585337" lon="7.909031">
        <ele>291.097516</ele>
        <time>2021-11-19T22:32:19.900Z</time>
      </trkpt>
      <trkpt lat="47.585078" lon="7.909509">
        <ele>292.529443</ele>
        <time>2021-11-19T22:32:31.939Z</time>
      </trkpt>
      <trkpt lat="47.585045" lon="7.909674">
        <ele>292.931371</ele>
        <time>2021-11-19T22:32:35.351Z</time>
      </trkpt>
      <trkpt lat="47.585051" lon="7.909751">
        <ele>293.112395</ele>
        <time>2021-11-19T22:32:37.208Z</time>
      </trkpt>
      <trkpt lat="47.585066" lon="7.909809">
        <ele>293.257466</ele>
        <time>2021-11-19T22:32:38.488Z</time>
      </trkpt>
      <trkpt lat="47.585093" lon="7.909869">
        <ele>293.425914</ele>
        <time>2021-11-19T22:32:39.820Z</time>
      </trkpt>
      <trkpt lat="47.585157" lon="7.909965">
        <ele>293.741148</ele>
        <time>2021-11-19T22:32:42.197Z</time>
      </trkpt>
      <trkpt lat="47.585271" lon="7.910136">
        <ele>294.401370</ele>
        <time>2021-11-19T22:32:47.168Z</time>
      </trkpt>
      <trkpt lat="47.585430" lon="7.910346">
        <ele>295.345205</ele>
        <time>2021-11-19T22:32:54.090Z</time>
      </trkpt>
      <trkpt lat="47.585610" lon="7.910640">
        <ele>296.532246</ele>
        <time>2021-11-19T22:33:03.719Z</time>
      </trkpt>
      <trkpt lat="47.586028" lon="7.911561">
        <ele>299.850957</ele>
        <time>2021-11-19T22:33:29.799Z</time>
      </trkpt>
      <trkpt lat="47.586263" lon="7.911881">
        <ele>301.265222</ele>
        <time>2021-11-19T22:33:40.054Z</time>
      </trkpt>
      <trkpt lat="47.586433" lon="7.912047">
        <ele>302.038870</ele>
        <time>2021-11-19T22:33:46.632Z</time>
      </trkpt>
      <trkpt lat="47.586622" lon="7.912140">
        <ele>302.458111</ele>
        <time>2021-11-19T22:33:52.355Z</time>
      </trkpt>
      <trkpt lat="47.586917" lon="7.912301">
        <ele>303.119910</ele>
        <time>2021-11-19T22:34:00.212Z</time>
      </trkpt>
      <trkpt lat="47.587725" lon="7.912508">
        <ele>304.846188</ele>
        <time>2021-11-19T22:34:18.907Z</time>
      </trkpt>
      <trkpt lat="47.587897" lon="7.912517">
        <ele>305.208523</ele>
        <time>2021-11-19T22:34:22.463Z</time>
      </trkpt>
      <trkpt lat="47.588907" lon="7.912607">
        <ele>305.909198</ele>
        <time>2021-11-19T22:34:37.920Z</time>
      </trkpt>
      <trkpt lat="47.589326" lon="7.912720">
        <ele>306.019248</ele>
        <time>2021-11-19T22:34:44.259Z</time>
      </trkpt>
      <trkpt lat="47.589873" lon="7.912855">
        <ele>306.162542</ele>
        <time>2021-11-19T22:34:52.759Z</time>
      </trkpt>
      <trkpt lat="47.590231" lon="7.912830">
        <ele>306.444996</ele>
        <time>2021-11-19T22:34:58.483Z</time>
      </trkpt>
      <trkpt lat="47.590570" lon="7.912784">
        <ele>306.738667</ele>
        <time>2021-11-19T22:35:04.604Z</time>
      </trkpt>
      <trkpt lat="47.591044" lon="7.912710">
        <ele>307.149839</ele>
        <time>2021-11-19T22:35:13.677Z</time>
      </trkpt>
      <trkpt lat="47.591348" lon="7.912662">
        <ele>307.413577</ele>
        <time>2021-11-19T22:35:19.758Z</time>
      </trkpt>
      <trkpt lat="47.591443" lon="7.912678">
        <ele>307.496059</ele>
        <time>2021-11-19T22:35:21.337Z</time>
      </trkpt>
      <trkpt lat="47.591605" lon="7.912829">
        <ele>307.661133</ele>
        <time>2021-11-19T22:35:25.581Z</time>
      </trkpt>
      <trkpt lat="47.591714" lon="7.913064">
        <ele>307.900104</ele>
        <time>2021-11-19T22:35:28.887Z</time>
      </trkpt>
      <trkpt lat="47.591721" lon="7.913096">
        <ele>307.933768</ele>
        <time>2021-11-19T22:35:29.273Z</time>
      </trkpt>
      <trkpt lat="47.591746" lon="7.913330">
        <ele>308.170847</ele>
        <time>2021-11-19T22:35:32.998Z</time>
      </trkpt>
      <trkpt lat="47.591809" lon="7.913704">
        <ele>308.556597</ele>
        <time>2021-11-19T22:35:37.216Z</time>
      </trkpt>
      <trkpt lat="47.591858" lon="7.913783">
        <ele>308.664001</ele>
        <time>2021-11-19T22:35:39.128Z</time>
      </trkpt>
      <trkpt lat="47.591953" lon="7.913843">
        <ele>308.817215</ele>
        <time>2021-11-19T22:35:41.125Z</time>
      </trkpt>
      <trkpt lat="47.592496" lon="7.914014">
        <ele>309.640880</ele>
        <time>2021-11-19T22:35:52.080Z</time>
      </trkpt>
      <trkpt lat="47.592589" lon="7.914035">
        <ele>309.780463</ele>
        <time>2021-11-19T22:35:55.101Z</time>
      </trkpt>
      <trkpt lat="47.592672" lon="7.914009">
        <ele>309.906335</ele>
        <time>2021-11-19T22:35:56.763Z</time>
      </trkpt>
      <trkpt lat="47.592807" lon="7.913929">
        <ele>310.122050</ele>
        <time>2021-11-19T22:35:59.226Z</time>
      </trkpt>
      <trkpt lat="47.593189" lon="7.913725">
        <ele>310.902726</ele>
        <time>2021-11-19T22:36:08.669Z</time>
      </trkpt>
      <trkpt lat="47.593511" lon="7.913649">
        <ele>311.647763</ele>
        <time>2021-11-19T22:36:16.603Z</time>
      </trkpt>
      <trkpt lat="47.593654" lon="7.913672">
        <ele>311.976436</ele>
        <time>2021-11-19T22:36:20.347Z</time>
      </trkpt>
      <trkpt lat="47.594163" lon="7.913924">
        <ele>313.202622</ele>
        <time>2021-11-19T22:36:33.502Z</time>
      </trkpt>
      <trkpt lat="47.594719" lon="7.914022">
        <ele>314.482032</ele>
        <time>2021-11-19T22:36:47.345Z</time>
      </trkpt>
      <trkpt lat="47.594871" lon="7.914141">
        <ele>314.775021</ele>
        <time>2021-11-19T22:36:51.322Z</time>
      </trkpt>
      <trkpt lat="47.595031" lon="7.914316">
        <ele>315.106962</ele>
        <time>2021-11-19T22:36:56.196Z</time>
      </trkpt>
      <trkpt lat="47.595292" lon="7.914664">
        <ele>315.692977</ele>
        <time>2021-11-19T22:37:03.823Z</time>
      </trkpt>
      <trkpt lat="47.595476" lon="7.914889">
        <ele>316.091163</ele>
        <time>2021-11-19T22:37:08.909Z</time>
      </trkpt>
      <trkpt lat="47.595688" lon="7.915084">
        <ele>316.507681</ele>
        <time>2021-11-19T22:37:14.342Z</time>
      </trkpt>
      <trkpt lat="47.595861" lon="7.915155">
        <ele>316.807379</ele>
        <time>2021-11-19T22:37:17.862Z</time>
      </trkpt>
      <trkpt lat="47.595909" lon="7.915188">
        <ele>316.895714</ele>
        <time>2021-11-19T22:37:18.945Z</time>
      </trkpt>
      <trkpt lat="47.595949" lon="7.915202">
        <ele>316.964333</ele>
        <time>2021-11-19T22:37:19.877Z</time>
      </trkpt>
      <trkpt lat="47.596117" lon="7.915243">
        <ele>317.248598</ele>
        <time>2021-11-19T22:37:23.472Z</time>
      </trkpt>
      <trkpt lat="47.596349" lon="7.915301">
        <ele>317.584223</ele>
        <time>2021-11-19T22:37:27.903Z</time>
      </trkpt>
      <trkpt lat="47.596736" lon="7.915598">
        <ele>318.001373</ele>
        <time>2021-11-19T22:37:35.740Z</time>
      </trkpt>
      <trkpt lat="47.596850" lon="7.915674">
        <ele>318.121027</ele>
        <time>2021-11-19T22:37:37.730Z</time>
      </trkpt>
      <trkpt lat="47.597083" lon="7.915733">
        <ele>318.347308</ele>
        <time>2021-11-19T22:37:41.862Z</time>
      </trkpt>
      <trkpt lat="47.597656" lon="7.915778">
        <ele>318.896612</ele>
        <time>2021-11-19T22:37:52.036Z</time>
      </trkpt>
      <trkpt lat="47.599120" lon="7.915596">
        <ele>320.487131</ele>
        <time>2021-11-19T22:38:22.007Z</time>
      </trkpt>
      <trkpt lat="47.599374" lon="7.915625">
        <ele>320.772819</ele>
        <time>2021-11-19T22:38:26.719Z</time>
      </trkpt>
      <trkpt lat="47.599906" lon="7.915798">
        <ele>321.299253</ele>
        <time>2021-11-19T22:38:36.545Z</time>
      </trkpt>
      <trkpt lat="47.600078" lon="7.915859">
        <ele>321.375759</ele>
        <time>2021-11-19T22:38:39.609Z</time>
      </trkpt>
      <trkpt lat="47.600344" lon="7.915900">
        <ele>321.491450</ele>
        <time>2021-11-19T22:38:44.099Z</time>
      </trkpt>
      <trkpt lat="47.600545" lon="7.915898">
        <ele>321.578405</ele>
        <time>2021-11-19T22:38:47.565Z</time>
      </trkpt>
      <trkpt lat="47.600689" lon="7.915853">
        <ele>321.642068</ele>
        <time>2021-11-19T22:38:49.894Z</time>
      </trkpt>
      <trkpt lat="47.601054" lon="7.915633">
        <ele>321.812510</ele>
        <time>2021-11-19T22:38:56.311Z</time>
      </trkpt>
      <trkpt lat="47.601546" lon="7.915285">
        <ele>322.070361</ele>
        <time>2021-11-19T22:39:04.716Z</time>
      </trkpt>
      <trkpt lat="47.602131" lon="7.915025">
        <ele>322.577820</ele>
        <time>2021-11-19T22:39:14.400Z</time>
      </trkpt>
      <trkpt lat="47.602754" lon="7.914823">
        <ele>323.107724</ele>
        <time>2021-11-19T22:39:26.220Z</time>
      </trkpt>
      <trkpt lat="47.603302" lon="7.914722">
        <ele>323.606315</ele>
        <time>2021-11-19T22:39:37.357Z</time>
      </trkpt>
      <trkpt lat="47.603466" lon="7.914620">
        <ele>323.877338</ele>
        <time>2021-11-19T22:39:41.272Z</time>
      </trkpt>
      <trkpt lat="47.603615" lon="7.914449">
        <ele>324.164460</ele>
        <time>2021-11-19T22:39:45.222Z</time>
      </trkpt>
      <trkpt lat="47.603884" lon="7.914671">
        <ele>324.633610</ele>
        <time>2021-11-19T22:39:51.933Z</time>
      </trkpt>
      <trkpt lat="47.604062" lon="7.914772">
        <ele>324.924057</ele>
        <time>2021-11-19T22:39:56.133Z</time>
      </trkpt>
      <trkpt lat="47.604393" lon="7.914885">
        <ele>325.441691</ele>
        <time>2021-11-19T22:40:03.141Z</time>
      </trkpt>
      <trkpt lat="47.604722" lon="7.914915">
        <ele>325.944034</ele>
        <time>2021-11-19T22:40:09.775Z</time>
      </trkpt>
      <trkpt lat="47.605105" lon="7.914869">
        <ele>326.478359</ele>
        <time>2021-11-19T22:40:17.675Z</time>
      </trkpt>
      <trkpt lat="47.605408" lon="7.914750">
        <ele>326.865179</ele>
        <time>2021-11-19T22:40:24.340Z</time>
      </trkpt>
      <trkpt lat="47.605648" lon="7.914613">
        <ele>327.182542</ele>
        <time>2021-11-19T22:40:29.707Z</time>
      </trkpt>
      <trkpt lat="47.605929" lon="7.914457">
        <ele>327.552821</ele>
        <time>2021-11-19T22:40:35.623Z</time>
      </trkpt>
      <trkpt lat="47.606200" lon="7.914255">
        <ele>327.927121</ele>
        <time>2021-11-19T22:40:41.444Z</time>
      </trkpt>
      <trkpt lat="47.606450" lon="7.914067">
        <ele>328.273035</ele>
        <time>2021-11-19T22:40:46.708Z</time>
      </trkpt>
      <trkpt lat="47.606558" lon="7.913988">
        <ele>328.421646</ele>
        <time>2021-11-19T22:40:48.907Z</time>
      </trkpt>
      <trkpt lat="47.606706" lon="7.913869">
        <ele>328.631239</ele>
        <time>2021-11-19T22:40:52.040Z</time>
      </trkpt>
      <trkpt lat="47.606938" lon="7.913697">
        <ele>328.955251</ele>
        <time>2021-11-19T22:40:56.862Z</time>
      </trkpt>
      <trkpt lat="47.607292" lon="7.913435">
        <ele>329.449479</ele>
        <time>2021-11-19T22:41:04.486Z</time>
      </trkpt>
      <trkpt lat="47.607663" lon="7.913198">
        <ele>329.954103</ele>
        <time>2021-11-19T22:41:12.736Z</time>
      </trkpt>
      <trkpt lat="47.608679" lon="7.912703">
        <ele>331.369021</ele>
        <time>2021-11-19T22:41:34.885Z</time>
      </trkpt>
      <trkpt lat="47.609914" lon="7.912278">
        <ele>333.174848</ele>
        <time>2021-11-19T22:42:00.907Z</time>
      </trkpt>
      <trkpt lat="47.610173" lon="7.912126">
        <ele>333.423445</ele>
        <time>2021-11-19T22:42:06.678Z</time>
      </trkpt>
      <trkpt lat="47.610416" lon="7.911983">
        <ele>333.600844</ele>
        <time>2021-11-19T22:42:12.137Z</time>
      </trkpt>
      <trkpt lat="47.611260" lon="7.911383">
        <ele>334.235950</ele>
        <time>2021-11-19T22:42:28.730Z</time>
      </trkpt>
      <trkpt lat="47.612029" lon="7.910940">
        <ele>334.225417</ele>
        <time>2021-11-19T22:42:40.247Z</time>
      </trkpt>
      <trkpt lat="47.612005" lon="7.910790">
        <ele>334.155579</ele>
        <time>2021-11-19T22:42:41.544Z</time>
      </trkpt>
      <trkpt lat="47.611994" lon="7.910676">
        <ele>334.103411</ele>
        <time>2021-11-19T22:42:42.613Z</time>
      </trkpt>
      <trkpt lat="47.611988" lon="7.910610">
        <ele>334.073242</ele>
        <time>2021-11-19T22:42:43.127Z</time>
      </trkpt>
      <trkpt lat="47.611988" lon="7.910610">
        <ele>334.073242</ele>
        <time>2021-11-19T22:42:43.129Z</time>
      </trkpt>
      <trkpt lat="47.611981" lon="7.910534">
        <ele>334.038494</ele>
        <time>2021-11-19T22:42:43.825Z</time>
      </trkpt>
      <trkpt lat="47.611986" lon="7.910466">
        <ele>334.007508</ele>
        <time>2021-11-19T22:42:44.585Z</time>
      </trkpt>
      <trkpt lat="47.612020" lon="7.910364">
        <ele>333.955962</ele>
        <time>2021-11-19T22:42:45.604Z</time>
      </trkpt>
      <trkpt lat="47.612082" lon="7.910269">
        <ele>333.896064</ele>
        <time>2021-11-19T22:42:46.759Z</time>
      </trkpt>
      <trkpt lat="47.612131" lon="7.910214">
        <ele>333.854774</ele>
        <time>2021-11-19T22:42:47.547Z</time>
      </trkpt>
      <trkpt lat="47.612216" lon="7.910134">
        <ele>333.787131</ele>
        <time>2021-11-19T22:42:48.784Z</time>
      </trkpt>
      <trkpt lat="47.612897" lon="7.909812">
        <ele>333.306841</ele>
        <time>2021-11-19T22:42:57.726Z</time>
      </trkpt>
      <trkpt lat="47.613280" lon="7.909624">
        <ele>332.818912</ele>
        <time>2021-11-19T22:43:02.315Z</time>
      </trkpt>
      <trkpt lat="47.613360" lon="7.909602">
        <ele>332.719470</ele>
        <time>2021-11-19T22:43:03.250Z</time>
      </trkpt>
      <trkpt lat="47.613934" lon="7.909339">
        <ele>331.985226</ele>
        <time>2021-11-19T22:43:10.085Z</time>
      </trkpt>
      <trkpt lat="47.614063" lon="7.909285">
        <ele>331.821405</ele>
        <time>2021-11-19T22:43:11.700Z</time>
      </trkpt>
      <trkpt lat="47.614412" lon="7.909095">
        <ele>331.367040</ele>
        <time>2021-11-19T22:43:16.224Z</time>
      </trkpt>
      <trkpt lat="47.614784" lon="7.908839">
        <ele>331.049597</ele>
        <time>2021-11-19T22:43:21.433Z</time>
      </trkpt>
      <trkpt lat="47.614876" lon="7.908760">
        <ele>331.020651</ele>
        <time>2021-11-19T22:43:22.846Z</time>
      </trkpt>
      <trkpt lat="47.615085" lon="7.908567">
        <ele>330.953614</ele>
        <time>2021-11-19T22:43:25.988Z</time>
      </trkpt>
      <trkpt lat="47.615246" lon="7.908385">
        <ele>330.898495</ele>
        <time>2021-11-19T22:43:28.691Z</time>
      </trkpt>
      <trkpt lat="47.615374" lon="7.908222">
        <ele>330.852559</ele>
        <time>2021-11-19T22:43:30.807Z</time>
      </trkpt>
      <trkpt lat="47.615460" lon="7.908111">
        <ele>330.821518</ele>
        <time>2021-11-19T22:43:32.325Z</time>
      </trkpt>
      <trkpt lat="47.615669" lon="7.907870">
        <ele>330.749436</ele>
        <time>2021-11-19T22:43:35.884Z</time>
      </trkpt>
      <trkpt lat="47.615821" lon="7.907747">
        <ele>330.702289</ele>
        <time>2021-11-19T22:43:38.340Z</time>
      </trkpt>
      <trkpt lat="47.615946" lon="7.907692">
        <ele>330.666785</ele>
        <time>2021-11-19T22:43:40.150Z</time>
      </trkpt>
      <trkpt lat="47.616009" lon="7.907686">
        <ele>330.649595</ele>
        <time>2021-11-19T22:43:41.366Z</time>
      </trkpt>
      <trkpt lat="47.616124" lon="7.907729">
        <ele>330.617301</ele>
        <time>2021-11-19T22:43:43.381Z</time>
      </trkpt>
      <trkpt lat="47.616604" lon="7.908203">
        <ele>331.560285</ele>
        <time>2021-11-19T22:43:54.809Z</time>
      </trkpt>
      <trkpt lat="47.616832" lon="7.908284">
        <ele>331.957798</ele>
        <time>2021-11-19T22:43:59.944Z</time>
      </trkpt>
      <trkpt lat="47.617086" lon="7.908230">
        <ele>332.392864</ele>
        <time>2021-11-19T22:44:05.610Z</time>
      </trkpt>
      <trkpt lat="47.617238" lon="7.908130">
        <ele>332.674791</ele>
        <time>2021-11-19T22:44:09.160Z</time>
      </trkpt>
      <trkpt lat="47.617957" lon="7.907285">
        <ele>334.739977</ele>
        <time>2021-11-19T22:44:31.259Z</time>
      </trkpt>
      <trkpt lat="47.618470" lon="7.907083">
        <ele>336.447927</ele>
        <time>2021-11-19T22:44:46.566Z</time>
      </trkpt>
      <trkpt lat="47.618579" lon="7.906988">
        <ele>336.854731</ele>
        <time>2021-11-19T22:44:49.850Z</time>
      </trkpt>
      <trkpt lat="47.618719" lon="7.906838">
        <ele>337.410444</ele>
        <time>2021-11-19T22:44:55.522Z</time>
      </trkpt>
      <trkpt lat="47.618867" lon="7.906514">
        <ele>338.259392</ele>
        <time>2021-11-19T22:45:02.624Z</time>
      </trkpt>
      <trkpt lat="47.618888" lon="7.906392">
        <ele>338.532510</ele>
        <time>2021-11-19T22:45:05.760Z</time>
      </trkpt>
      <trkpt lat="47.618920" lon="7.906208">
        <ele>338.944688</ele>
        <time>2021-11-19T22:45:09.552Z</time>
      </trkpt>
      <trkpt lat="47.618976" lon="7.905535">
        <ele>340.378616</ele>
        <time>2021-11-19T22:45:21.753Z</time>
      </trkpt>
      <trkpt lat="47.619155" lon="7.905319">
        <ele>341.092704</ele>
        <time>2021-11-19T22:45:29.059Z</time>
      </trkpt>
      <trkpt lat="47.619281" lon="7.905309">
        <ele>341.483210</ele>
        <time>2021-11-19T22:45:31.902Z</time>
      </trkpt>
      <trkpt lat="47.619299" lon="7.905308">
        <ele>341.538956</ele>
        <time>2021-11-19T22:45:32.321Z</time>
      </trkpt>
      <trkpt lat="47.619349" lon="7.905305">
        <ele>341.693823</ele>
        <time>2021-11-19T22:45:33.950Z</time>
      </trkpt>
      <trkpt lat="47.619447" lon="7.905300">
        <ele>341.997296</ele>
        <time>2021-11-19T22:45:37.421Z</time>
      </trkpt>
      <trkpt lat="47.620426" lon="7.905244">
        <ele>345.024865</ele>
        <time>2021-11-19T22:46:03.238Z</time>
      </trkpt>
      <trkpt lat="47.620699" lon="7.905223">
        <ele>345.573604</ele>
        <time>2021-11-19T22:46:09.525Z</time>
      </trkpt>
      <trkpt lat="47.621107" lon="7.905191">
        <ele>346.393740</ele>
        <time>2021-11-19T22:46:19.131Z</time>
      </trkpt>
      <trkpt lat="47.621248" lon="7.905159">
        <ele>346.680066</ele>
        <time>2021-11-19T22:46:22.366Z</time>
      </trkpt>
      <trkpt lat="47.622235" lon="7.904957">
        <ele>348.653999</ele>
        <time>2021-11-19T22:46:44.443Z</time>
      </trkpt>
      <trkpt lat="47.622424" lon="7.904919">
        <ele>348.848747</ele>
        <time>2021-11-19T22:46:48.480Z</time>
      </trkpt>
      <trkpt lat="47.622648" lon="7.904863">
        <ele>349.080692</ele>
        <time>2021-11-19T22:46:53.262Z</time>
      </trkpt>
      <trkpt lat="47.623650" lon="7.904642">
        <ele>350.115055</ele>
        <time>2021-11-19T22:47:12.294Z</time>
      </trkpt>
      <trkpt lat="47.624120" lon="7.904530">
        <ele>350.469340</ele>
        <time>2021-11-19T22:47:20.322Z</time>
      </trkpt>
      <trkpt lat="47.624263" lon="7.904484">
        <ele>350.475614</ele>
        <time>2021-11-19T22:47:22.512Z</time>
      </trkpt>
      <trkpt lat="47.624399" lon="7.904386">
        <ele>350.482097</ele>
        <time>2021-11-19T22:47:24.764Z</time>
      </trkpt>
      <trkpt lat="47.624451" lon="7.904332">
        <ele>350.484819</ele>
        <time>2021-11-19T22:47:25.741Z</time>
      </trkpt>
      <trkpt lat="47.624472" lon="7.904367">
        <ele>350.486173</ele>
        <time>2021-11-19T22:47:26.159Z</time>
      </trkpt>
      <trkpt lat="47.624565" lon="7.904455">
        <ele>350.490902</ele>
        <time>2021-11-19T22:47:27.750Z</time>
      </trkpt>
      <trkpt lat="47.624761" lon="7.904481">
        <ele>350.499340</ele>
        <time>2021-11-19T22:47:30.531Z</time>
      </trkpt>
      <trkpt lat="47.624956" lon="7.904522">
        <ele>350.507785</ele>
        <time>2021-11-19T22:47:33.244Z</time>
      </trkpt>
      <trkpt lat="47.625088" lon="7.904563">
        <ele>350.513567</ele>
        <time>2021-11-19T22:47:35.210Z</time>
      </trkpt>
      <trkpt lat="47.625516" lon="7.904701">
        <ele>350.532347</ele>
        <time>2021-11-19T22:47:41.613Z</time>
      </trkpt>
      <trkpt lat="47.625742" lon="7.904774">
        <ele>350.564548</ele>
        <time>2021-11-19T22:47:44.859Z</time>
      </trkpt>
      <trkpt lat="47.626086" lon="7.904879">
        <ele>350.792214</ele>
        <time>2021-11-19T22:47:50.401Z</time>
      </trkpt>
      <trkpt lat="47.626221" lon="7.904920">
        <ele>350.881541</ele>
        <time>2021-11-19T22:47:52.663Z</time>
      </trkpt>
      <trkpt lat="47.626399" lon="7.904961">
        <ele>350.998310</ele>
        <time>2021-11-19T22:47:55.611Z</time>
      </trkpt>
      <trkpt lat="47.626440" lon="7.905007">
        <ele>351.031631</ele>
        <time>2021-11-19T22:47:56.308Z</time>
      </trkpt>
      <trkpt lat="47.626505" lon="7.904968">
        <ele>351.077082</ele>
        <time>2021-11-19T22:47:57.647Z</time>
      </trkpt>
      <trkpt lat="47.627067" lon="7.904813">
        <ele>351.447635</ele>
        <time>2021-11-19T22:48:07.841Z</time>
      </trkpt>
      <trkpt lat="47.627287" lon="7.904761">
        <ele>351.592047</ele>
        <time>2021-11-19T22:48:12.114Z</time>
      </trkpt>
      <trkpt lat="47.627467" lon="7.904744">
        <ele>351.712015</ele>
        <time>2021-11-19T22:48:15.717Z</time>
      </trkpt>
      <trkpt lat="47.627955" lon="7.904708">
        <ele>352.444575</ele>
        <time>2021-11-19T22:48:25.730Z</time>
      </trkpt>
      <trkpt lat="47.628650" lon="7.904559">
        <ele>353.497407</ele>
        <time>2021-11-19T22:48:40.264Z</time>
      </trkpt>
      <trkpt lat="47.628975" lon="7.904514">
        <ele>353.986796</ele>
        <time>2021-11-19T22:48:47.378Z</time>
      </trkpt>
      <trkpt lat="47.629371" lon="7.904510">
        <ele>354.537953</ele>
        <time>2021-11-19T22:48:55.799Z</time>
      </trkpt>
      <trkpt lat="47.629718" lon="7.904514">
        <ele>354.933203</ele>
        <time>2021-11-19T22:49:03.379Z</time>
      </trkpt>
      <trkpt lat="47.629946" lon="7.904556">
        <ele>355.194892</ele>
        <time>2021-11-19T22:49:08.402Z</time>
      </trkpt>
      <trkpt lat="47.630445" lon="7.904626">
        <ele>355.765794</ele>
        <time>2021-11-19T22:49:18.399Z</time>
      </trkpt>
      <trkpt lat="47.631006" lon="7.904827">
        <ele>356.423143</ele>
        <time>2021-11-19T22:49:28.271Z</time>
      </trkpt>
      <trkpt lat="47.631413" lon="7.905026">
        <ele>356.648578</ele>
        <time>2021-11-19T22:49:35.315Z</time>
      </trkpt>
      <trkpt lat="47.632152" lon="7.905421">
        <ele>357.031515</ele>
        <time>2021-11-19T22:49:46.974Z</time>
      </trkpt>
      <trkpt lat="47.632494" lon="7.905530">
        <ele>357.202050</ele>
        <time>2021-11-19T22:49:52.980Z</time>
      </trkpt>
      <trkpt lat="47.632636" lon="7.905581">
        <ele>357.273277</ele>
        <time>2021-11-19T22:49:55.671Z</time>
      </trkpt>
      <trkpt lat="47.632631" lon="7.905629">
        <ele>357.289233</ele>
        <time>2021-11-19T22:49:56.325Z</time>
      </trkpt>
      <trkpt lat="47.632676" lon="7.905752">
        <ele>357.356485</ele>
        <time>2021-11-19T22:49:58.349Z</time>
      </trkpt>
      <trkpt lat="47.632707" lon="7.905770">
        <ele>357.427405</ele>
        <time>2021-11-19T22:49:58.963Z</time>
      </trkpt>
      <trkpt lat="47.632706" lon="7.905872">
        <ele>357.573861</ele>
        <time>2021-11-19T22:50:00.165Z</time>
      </trkpt>
      <trkpt lat="47.632715" lon="7.906284">
        <ele>358.165675</ele>
        <time>2021-11-19T22:50:05.692Z</time>
      </trkpt>
      <trkpt lat="47.632729" lon="7.906470">
        <ele>358.434374</ele>
        <time>2021-11-19T22:50:08.243Z</time>
      </trkpt>
      <trkpt lat="47.632761" lon="7.906666">
        <ele>358.723909</ele>
        <time>2021-11-19T22:50:11.304Z</time>
      </trkpt>
      <trkpt lat="47.632805" lon="7.906819">
        <ele>358.962735</ele>
        <time>2021-11-19T22:50:13.770Z</time>
      </trkpt>
      <trkpt lat="47.632832" lon="7.906880">
        <ele>359.067514</ele>
        <time>2021-11-19T22:50:14.848Z</time>
      </trkpt>
      <trkpt lat="47.632986" lon="7.907145">
        <ele>359.569900</ele>
        <time>2021-11-19T22:50:20.644Z</time>
      </trkpt>
      <trkpt lat="47.633159" lon="7.907454">
        <ele>360.146657</ele>
        <time>2021-11-19T22:50:27.358Z</time>
      </trkpt>
      <trkpt lat="47.633215" lon="7.907615">
        <ele>360.406775</ele>
        <time>2021-11-19T22:50:30.489Z</time>
      </trkpt>
      <trkpt lat="47.633350" lon="7.907844">
        <ele>360.843595</ele>
        <time>2021-11-19T22:50:36.284Z</time>
      </trkpt>
      <trkpt lat="47.633703" lon="7.908224">
        <ele>361.905698</ele>
        <time>2021-11-19T22:50:48.427Z</time>
      </trkpt>
      <trkpt lat="47.634255" lon="7.909080">
        <ele>363.976441</ele>
        <time>2021-11-19T22:51:09.217Z</time>
      </trkpt>
      <trkpt lat="47.634288" lon="7.909241">
        <ele>364.270557</ele>
        <time>2021-11-19T22:51:12.297Z</time>
      </trkpt>
      <trkpt lat="47.634340" lon="7.909465">
        <ele>364.684632</ele>
        <time>2021-11-19T22:51:16.014Z</time>
      </trkpt>
      <trkpt lat="47.634573" lon="7.910034">
        <ele>365.848092</ele>
        <time>2021-11-19T22:51:25.873Z</time>
      </trkpt>
      <trkpt lat="47.634747" lon="7.910263">
        <ele>366.445285</ele>
        <time>2021-11-19T22:51:31.226Z</time>
      </trkpt>
      <trkpt lat="47.635022" lon="7.910544">
        <ele>367.302639</ele>
        <time>2021-11-19T22:51:39.007Z</time>
      </trkpt>
      <trkpt lat="47.635189" lon="7.910745">
        <ele>367.854772</ele>
        <time>2021-11-19T22:51:44.108Z</time>
      </trkpt>
      <trkpt lat="47.635549" lon="7.911051">
        <ele>368.920080</ele>
        <time>2021-11-19T22:51:54.021Z</time>
      </trkpt>
      <trkpt lat="47.636072" lon="7.911368">
        <ele>370.370738</ele>
        <time>2021-11-19T22:52:08.766Z</time>
      </trkpt>
      <trkpt lat="47.636435" lon="7.911560">
        <ele>372.766506</ele>
        <time>2021-11-19T22:52:20.425Z</time>
      </trkpt>
      <trkpt lat="47.636948" lon="7.911886">
        <ele>376.399779</ele>
        <time>2021-11-19T22:52:39.985Z</time>
      </trkpt>
      <trkpt lat="47.637200" lon="7.912228">
        <ele>378.623043</ele>
        <time>2021-11-19T22:52:56.020Z</time>
      </trkpt>
      <trkpt lat="47.637358" lon="7.912526">
        <ele>380.286557</ele>
        <time>2021-11-19T22:53:09.572Z</time>
      </trkpt>
      <trkpt lat="47.637499" lon="7.912845">
        <ele>381.960229</ele>
        <time>2021-11-19T22:53:20.686Z</time>
      </trkpt>
      <trkpt lat="47.637608" lon="7.913197">
        <ele>384.561839</ele>
        <time>2021-11-19T22:53:35.504Z</time>
      </trkpt>
      <trkpt lat="47.637710" lon="7.913454">
        <ele>386.654701</ele>
        <time>2021-11-19T22:53:48.059Z</time>
      </trkpt>
      <trkpt lat="47.637792" lon="7.913603">
        <ele>388.004585</ele>
        <time>2021-11-19T22:53:54.142Z</time>
      </trkpt>
      <trkpt lat="47.637897" lon="7.913737">
        <ele>389.446659</ele>
        <time>2021-11-19T22:54:01.033Z</time>
      </trkpt>
      <trkpt lat="47.637924" lon="7.913766">
        <ele>389.793729</ele>
        <time>2021-11-19T22:54:04.590Z</time>
      </trkpt>
      <trkpt lat="47.638182" lon="7.913951">
        <ele>392.777539</ele>
        <time>2021-11-19T22:54:18.829Z</time>
      </trkpt>
      <trkpt lat="47.639028" lon="7.914042">
        <ele>401.398234</ele>
        <time>2021-11-19T22:55:12.786Z</time>
      </trkpt>
      <trkpt lat="47.640116" lon="7.914684">
        <ele>410.026335</ele>
        <time>2021-11-19T22:56:06.277Z</time>
      </trkpt>
      <trkpt lat="47.640371" lon="7.914816">
        <ele>412.016488</ele>
        <time>2021-11-19T22:56:16.730Z</time>
      </trkpt>
      <trkpt lat="47.640458" lon="7.914847">
        <ele>412.675823</ele>
        <time>2021-11-19T22:56:19.179Z</time>
      </trkpt>
      <trkpt lat="47.641318" lon="7.915094">
        <ele>417.553924</ele>
        <time>2021-11-19T22:56:47.225Z</time>
      </trkpt>
      <trkpt lat="47.642325" lon="7.915266">
        <ele>422.663840</ele>
        <time>2021-11-19T22:57:20.808Z</time>
      </trkpt>
      <trkpt lat="47.642731" lon="7.915448">
        <ele>425.902950</ele>
        <time>2021-11-19T22:57:38.685Z</time>
      </trkpt>
      <trkpt lat="47.642870" lon="7.915569">
        <ele>427.275927</ele>
        <time>2021-11-19T22:57:46.528Z</time>
      </trkpt>
      <trkpt lat="47.643279" lon="7.916085">
        <ele>431.849502</ele>
        <time>2021-11-19T22:58:14.693Z</time>
      </trkpt>
      <trkpt lat="47.644938" lon="7.919218">
        <ele>453.555125</ele>
        <time>2021-11-19T23:00:34.935Z</time>
      </trkpt>
      <trkpt lat="47.645182" lon="7.919653">
        <ele>453.743530</ele>
        <time>2021-11-19T23:00:39.654Z</time>
      </trkpt>
      <trkpt lat="47.645987" lon="7.921187">
        <ele>454.390740</ele>
        <time>2021-11-19T23:00:55.359Z</time>
      </trkpt>
      <trkpt lat="47.646634" lon="7.922408">
        <ele>454.023575</ele>
        <time>2021-11-19T23:01:07.932Z</time>
      </trkpt>
      <trkpt lat="47.647046" lon="7.922963">
        <ele>453.825932</ele>
        <time>2021-11-19T23:01:18.165Z</time>
      </trkpt>
      <trkpt lat="47.647351" lon="7.923183">
        <ele>453.661653</ele>
        <time>2021-11-19T23:01:24.779Z</time>
      </trkpt>
      <trkpt lat="47.647717" lon="7.923261">
        <ele>453.412865</ele>
        <time>2021-11-19T23:01:30.316Z</time>
      </trkpt>
      <trkpt lat="47.648027" lon="7.923200">
        <ele>453.202458</ele>
        <time>2021-11-19T23:01:34.080Z</time>
      </trkpt>
      <trkpt lat="47.648365" lon="7.923062">
        <ele>452.966589</ele>
        <time>2021-11-19T23:01:38.068Z</time>
      </trkpt>
      <trkpt lat="47.648728" lon="7.922896">
        <ele>452.711017</ele>
        <time>2021-11-19T23:01:42.566Z</time>
      </trkpt>
      <trkpt lat="47.649254" lon="7.922829">
        <ele>452.327344</ele>
        <time>2021-11-19T23:01:48.962Z</time>
      </trkpt>
      <trkpt lat="47.649720" lon="7.923045">
        <ele>451.949273</ele>
        <time>2021-11-19T23:01:55.070Z</time>
      </trkpt>
      <trkpt lat="47.650236" lon="7.923592">
        <ele>451.458230</ele>
        <time>2021-11-19T23:02:09.802Z</time>
      </trkpt>
      <trkpt lat="47.651037" lon="7.924774">
        <ele>446.841629</ele>
        <time>2021-11-19T23:02:20.930Z</time>
      </trkpt>
      <trkpt lat="47.651591" lon="7.925265">
        <ele>443.048762</ele>
        <time>2021-11-19T23:02:26.678Z</time>
      </trkpt>
      <trkpt lat="47.651739" lon="7.925340">
        <ele>442.129470</ele>
        <time>2021-11-19T23:02:28.017Z</time>
      </trkpt>
      <trkpt lat="47.651929" lon="7.925397">
        <ele>440.990004</ele>
        <time>2021-11-19T23:02:29.812Z</time>
      </trkpt>
      <trkpt lat="47.652047" lon="7.925420">
        <ele>440.306155</ele>
        <time>2021-11-19T23:02:30.823Z</time>
      </trkpt>
      <trkpt lat="47.652233" lon="7.925431">
        <ele>439.271785</ele>
        <time>2021-11-19T23:02:32.524Z</time>
      </trkpt>
      <trkpt lat="47.653024" lon="7.925288">
        <ele>434.843946</ele>
        <time>2021-11-19T23:02:39.629Z</time>
      </trkpt>
      <trkpt lat="47.653581" lon="7.925107">
        <ele>431.675570</ele>
        <time>2021-11-19T23:02:44.936Z</time>
      </trkpt>
      <trkpt lat="47.654279" lon="7.924881">
        <ele>431.438466</ele>
        <time>2021-11-19T23:02:55.920Z</time>
      </trkpt>
      <trkpt lat="47.654906" lon="7.924601">
        <ele>432.519054</ele>
        <time>2021-11-19T23:03:11.281Z</time>
      </trkpt>
      <trkpt lat="47.655151" lon="7.924422">
        <ele>432.969709</ele>
        <time>2021-11-19T23:03:19.862Z</time>
      </trkpt>
      <trkpt lat="47.655711" lon="7.923884">
        <ele>434.506040</ele>
        <time>2021-11-19T23:03:39.434Z</time>
      </trkpt>
      <trkpt lat="47.656362" lon="7.923194">
        <ele>436.935088</ele>
        <time>2021-11-19T23:04:06.358Z</time>
      </trkpt>
      <trkpt lat="47.656739" lon="7.922791">
        <ele>438.345837</ele>
        <time>2021-11-19T23:04:18.074Z</time>
      </trkpt>
      <trkpt lat="47.658112" lon="7.921407">
        <ele>444.901235</ele>
        <time>2021-11-19T23:04:57.077Z</time>
      </trkpt>
      <trkpt lat="47.658657" lon="7.921194">
        <ele>448.959766</ele>
        <time>2021-11-19T23:05:23.207Z</time>
      </trkpt>
      <trkpt lat="47.658858" lon="7.921199">
        <ele>451.506704</ele>
        <time>2021-11-19T23:05:38.835Z</time>
      </trkpt>
      <trkpt lat="47.659029" lon="7.921261">
        <ele>453.736865</ele>
        <time>2021-11-19T23:05:48.355Z</time>
      </trkpt>
      <trkpt lat="47.659217" lon="7.921381">
        <ele>456.329535</ele>
        <time>2021-11-19T23:06:05.555Z</time>
      </trkpt>
      <trkpt lat="47.659701" lon="7.921971">
        <ele>464.263669</ele>
        <time>2021-11-19T23:06:51.699Z</time>
      </trkpt>
      <trkpt lat="47.659910" lon="7.922282">
        <ele>468.012615</ele>
        <time>2021-11-19T23:07:10.638Z</time>
      </trkpt>
      <trkpt lat="47.659929" lon="7.922307">
        <ele>468.334263</ele>
        <time>2021-11-19T23:07:13.375Z</time>
      </trkpt>
      <trkpt lat="47.660292" lon="7.922894">
        <ele>472.319283</ele>
        <time>2021-11-19T23:07:50.190Z</time>
      </trkpt>
      <trkpt lat="47.660747" lon="7.923380">
        <ele>476.075574</ele>
        <time>2021-11-19T23:08:15.481Z</time>
      </trkpt>
      <trkpt lat="47.660834" lon="7.923426">
        <ele>476.694477</ele>
        <time>2021-11-19T23:08:20.668Z</time>
      </trkpt>
      <trkpt lat="47.660904" lon="7.923464">
        <ele>477.193958</ele>
        <time>2021-11-19T23:08:21.366Z</time>
      </trkpt>
      <trkpt lat="47.661134" lon="7.923485">
        <ele>478.738230</ele>
        <time>2021-11-19T23:08:30.482Z</time>
      </trkpt>
      <trkpt lat="47.662115" lon="7.923074">
        <ele>482.203772</ele>
        <time>2021-11-19T23:08:42.320Z</time>
      </trkpt>
      <trkpt lat="47.662612" lon="7.923016">
        <ele>482.964309</ele>
        <time>2021-11-19T23:08:50.323Z</time>
      </trkpt>
      <trkpt lat="47.663384" lon="7.923222">
        <ele>484.917321</ele>
        <time>2021-11-19T23:09:14.165Z</time>
      </trkpt>
      <trkpt lat="47.663955" lon="7.923493">
        <ele>489.204407</ele>
        <time>2021-11-19T23:09:38.792Z</time>
      </trkpt>
      <trkpt lat="47.664119" lon="7.923631">
        <ele>490.552509</ele>
        <time>2021-11-19T23:09:47.412Z</time>
      </trkpt>
      <trkpt lat="47.664200" lon="7.923770">
        <ele>491.437816</ele>
        <time>2021-11-19T23:09:53.117Z</time>
      </trkpt>
      <trkpt lat="47.664217" lon="7.923800">
        <ele>491.626651</ele>
        <time>2021-11-19T23:09:54.633Z</time>
      </trkpt>
      <trkpt lat="47.664238" lon="7.923872">
        <ele>492.004556</ele>
        <time>2021-11-19T23:09:57.217Z</time>
      </trkpt>
      <trkpt lat="47.664271" lon="7.923990">
        <ele>492.619944</ele>
        <time>2021-11-19T23:10:01.201Z</time>
      </trkpt>
      <trkpt lat="47.664341" lon="7.924749">
        <ele>496.309708</ele>
        <time>2021-11-19T23:10:26.596Z</time>
      </trkpt>
      <trkpt lat="47.664453" lon="7.925255">
        <ele>499.271813</ele>
        <time>2021-11-19T23:10:44.193Z</time>
      </trkpt>
      <trkpt lat="47.664876" lon="7.926151">
        <ele>505.558936</ele>
        <time>2021-11-19T23:11:22.640Z</time>
      </trkpt>
      <trkpt lat="47.665028" lon="7.926702">
        <ele>508.980135</ele>
        <time>2021-11-19T23:11:42.052Z</time>
      </trkpt>
      <trkpt lat="47.665032" lon="7.927025">
        <ele>510.836317</ele>
        <time>2021-11-19T23:11:51.700Z</time>
      </trkpt>
      <trkpt lat="47.665082" lon="7.927476">
        <ele>512.918381</ele>
        <time>2021-11-19T23:12:06.478Z</time>
      </trkpt>
      <trkpt lat="47.665198" lon="7.927921">
        <ele>514.510981</ele>
        <time>2021-11-19T23:12:20.526Z</time>
      </trkpt>
      <trkpt lat="47.665461" lon="7.928374">
        <ele>516.507157</ele>
        <time>2021-11-19T23:12:36.088Z</time>
      </trkpt>
      <trkpt lat="47.665953" lon="7.928730">
        <ele>519.219525</ele>
        <time>2021-11-19T23:12:54.348Z</time>
      </trkpt>
      <trkpt lat="47.666448" lon="7.928809">
        <ele>521.114330</ele>
        <time>2021-11-19T23:13:05.997Z</time>
      </trkpt>
      <trkpt lat="47.667200" lon="7.929115">
        <ele>521.344670</ele>
        <time>2021-11-19T23:13:17.356Z</time>
      </trkpt>
      <trkpt lat="47.668004" lon="7.929010">
        <ele>521.583098</ele>
        <time>2021-11-19T23:13:27.425Z</time>
      </trkpt>
      <trkpt lat="47.668532" lon="7.929025">
        <ele>523.065790</ele>
        <time>2021-11-19T23:13:36.677Z</time>
      </trkpt>
      <trkpt lat="47.668846" lon="7.929117">
        <ele>524.127302</ele>
        <time>2021-11-19T23:13:43.945Z</time>
      </trkpt>
      <trkpt lat="47.669031" lon="7.929241">
        <ele>524.800494</ele>
        <time>2021-11-19T23:13:49.313Z</time>
      </trkpt>
      <trkpt lat="47.669146" lon="7.929397">
        <ele>525.317095</ele>
        <time>2021-11-19T23:13:53.882Z</time>
      </trkpt>
      <trkpt lat="47.669590" lon="7.930439">
        <ele>528.993879</ele>
        <time>2021-11-19T23:14:24.741Z</time>
      </trkpt>
      <trkpt lat="47.669570" lon="7.930755">
        <ele>531.020867</ele>
        <time>2021-11-19T23:14:34.506Z</time>
      </trkpt>
      <trkpt lat="47.669441" lon="7.931090">
        <ele>533.485394</ele>
        <time>2021-11-19T23:14:47.737Z</time>
      </trkpt>
      <trkpt lat="47.669272" lon="7.931348">
        <ele>535.784019</ele>
        <time>2021-11-19T23:15:01.106Z</time>
      </trkpt>
      <trkpt lat="47.669127" lon="7.931800">
        <ele>538.981488</ele>
        <time>2021-11-19T23:15:20.334Z</time>
      </trkpt>
      <trkpt lat="47.669112" lon="7.931963">
        <ele>540.032151</ele>
        <time>2021-11-19T23:15:26.769Z</time>
      </trkpt>
      <trkpt lat="47.669211" lon="7.932726">
        <ele>544.983736</ele>
        <time>2021-11-19T23:15:58.048Z</time>
      </trkpt>
      <trkpt lat="47.669188" lon="7.932920">
        <ele>546.203930</ele>
        <time>2021-11-19T23:16:06.377Z</time>
      </trkpt>
      <trkpt lat="47.668442" lon="7.933935">
        <ele>555.510892</ele>
        <time>2021-11-19T23:17:06.853Z</time>
      </trkpt>
      <trkpt lat="47.668325" lon="7.934682">
        <ele>560.261687</ele>
        <time>2021-11-19T23:17:30.299Z</time>
      </trkpt>
      <trkpt lat="47.668387" lon="7.934959">
        <ele>561.034523</ele>
        <time>2021-11-19T23:17:37.113Z</time>
      </trkpt>
      <trkpt lat="47.668592" lon="7.935334">
        <ele>560.554798</ele>
        <time>2021-11-19T23:17:45.396Z</time>
      </trkpt>
      <trkpt lat="47.668947" lon="7.935809">
        <ele>559.850025</ele>
        <time>2021-11-19T23:17:51.656Z</time>
      </trkpt>
      <trkpt lat="47.669430" lon="7.936199">
        <ele>559.039162</ele>
        <time>2021-11-19T23:17:57.025Z</time>
      </trkpt>
      <trkpt lat="47.669799" lon="7.936367">
        <ele>558.364037</ele>
        <time>2021-11-19T23:18:00.531Z</time>
      </trkpt>
      <trkpt lat="47.670025" lon="7.936399">
        <ele>557.383203</ele>
        <time>2021-11-19T23:18:02.543Z</time>
      </trkpt>
      <trkpt lat="47.670414" lon="7.936157">
        <ele>555.561061</ele>
        <time>2021-11-19T23:18:06.290Z</time>
      </trkpt>
      <trkpt lat="47.671190" lon="7.935463">
        <ele>551.647421</ele>
        <time>2021-11-19T23:18:14.883Z</time>
      </trkpt>
      <trkpt lat="47.671327" lon="7.935416">
        <ele>551.039940</ele>
        <time>2021-11-19T23:18:16.765Z</time>
      </trkpt>
      <trkpt lat="47.672138" lon="7.935624">
        <ele>555.080631</ele>
        <time>2021-11-19T23:18:38.502Z</time>
      </trkpt>
      <trkpt lat="47.672322" lon="7.935662">
        <ele>556.142653</ele>
        <time>2021-11-19T23:18:46.420Z</time>
      </trkpt>
      <trkpt lat="47.672762" lon="7.935838">
        <ele>558.747711</ele>
        <time>2021-11-19T23:19:07.622Z</time>
      </trkpt>
      <trkpt lat="47.672959" lon="7.936014">
        <ele>560.062014</ele>
        <time>2021-11-19T23:19:20.170Z</time>
      </trkpt>
      <trkpt lat="47.673226" lon="7.936447">
        <ele>563.050105</ele>
        <time>2021-11-19T23:19:43.289Z</time>
      </trkpt>
      <trkpt lat="47.673283" lon="7.936676">
        <ele>564.522109</ele>
        <time>2021-11-19T23:19:52.567Z</time>
      </trkpt>
      <trkpt lat="47.673293" lon="7.937182">
        <ele>567.574208</ele>
        <time>2021-11-19T23:20:13.612Z</time>
      </trkpt>
      <trkpt lat="47.673607" lon="7.938439">
        <ele>575.657622</ele>
        <time>2021-11-19T23:20:57.719Z</time>
      </trkpt>
      <trkpt lat="47.673811" lon="7.939034">
        <ele>578.545999</ele>
        <time>2021-11-19T23:21:15.874Z</time>
      </trkpt>
      <trkpt lat="47.674075" lon="7.940165">
        <ele>582.533877</ele>
        <time>2021-11-19T23:21:43.064Z</time>
      </trkpt>
      <trkpt lat="47.674329" lon="7.940584">
        <ele>584.412114</ele>
        <time>2021-11-19T23:21:54.467Z</time>
      </trkpt>
      <trkpt lat="47.674806" lon="7.940908">
        <ele>586.841405</ele>
        <time>2021-11-19T23:22:10.338Z</time>
      </trkpt>
      <trkpt lat="47.674964" lon="7.941099">
        <ele>587.676428</ele>
        <time>2021-11-19T23:22:16.906Z</time>
      </trkpt>
      <trkpt lat="47.675080" lon="7.941709">
        <ele>589.425790</ele>
        <time>2021-11-19T23:22:30.790Z</time>
      </trkpt>
      <trkpt lat="47.675658" lon="7.942963">
        <ele>593.477652</ele>
        <time>2021-11-19T23:23:04.813Z</time>
      </trkpt>
      <trkpt lat="47.676169" lon="7.943767">
        <ele>594.433289</ele>
        <time>2021-11-19T23:23:21.492Z</time>
      </trkpt>
      <trkpt lat="47.676520" lon="7.944024">
        <ele>594.935651</ele>
        <time>2021-11-19T23:23:25.772Z</time>
      </trkpt>
      <trkpt lat="47.677134" lon="7.944147">
        <ele>595.774234</ele>
        <time>2021-11-19T23:23:34.508Z</time>
      </trkpt>
      <trkpt lat="47.677405" lon="7.944339">
        <ele>597.964632</ele>
        <time>2021-11-19T23:23:43.352Z</time>
      </trkpt>
      <trkpt lat="47.677580" lon="7.944493">
        <ele>599.448547</ele>
        <time>2021-11-19T23:23:50.643Z</time>
      </trkpt>
      <trkpt lat="47.677695" lon="7.944598">
        <ele>600.433335</ele>
        <time>2021-11-19T23:23:54.817Z</time>
      </trkpt>
      <trkpt lat="47.677787" lon="7.944717">
        <ele>601.323330</ele>
        <time>2021-11-19T23:23:58.592Z</time>
      </trkpt>
      <trkpt lat="47.677870" lon="7.944836">
        <ele>602.164918</ele>
        <time>2021-11-19T23:24:04.705Z</time>
      </trkpt>
      <trkpt lat="47.677979" lon="7.945039">
        <ele>603.440257</ele>
        <time>2021-11-19T23:24:11.027Z</time>
      </trkpt>
      <trkpt lat="47.678059" lon="7.945260">
        <ele>604.672701</ele>
        <time>2021-11-19T23:24:19.862Z</time>
      </trkpt>
      <trkpt lat="47.678272" lon="7.945810">
        <ele>607.789181</ele>
        <time>2021-11-19T23:24:43.571Z</time>
      </trkpt>
      <trkpt lat="47.678532" lon="7.946285">
        <ele>612.483075</ele>
        <time>2021-11-19T23:25:12.281Z</time>
      </trkpt>
      <trkpt lat="47.679039" lon="7.946924">
        <ele>621.524496</ele>
        <time>2021-11-19T23:26:08.646Z</time>
      </trkpt>
      <trkpt lat="47.679161" lon="7.947269">
        <ele>625.092054</ele>
        <time>2021-11-19T23:26:29.259Z</time>
      </trkpt>
      <trkpt lat="47.679193" lon="7.947707">
        <ele>629.125405</ele>
        <time>2021-11-19T23:26:49.103Z</time>
      </trkpt>
      <trkpt lat="47.679160" lon="7.948063">
        <ele>632.415266</ele>
        <time>2021-11-19T23:27:03.384Z</time>
      </trkpt>
      <trkpt lat="47.678867" lon="7.949157">
        <ele>637.353296</ele>
        <time>2021-11-19T23:27:38.859Z</time>
      </trkpt>
      <trkpt lat="47.678870" lon="7.949371">
        <ele>638.156100</ele>
        <time>2021-11-19T23:27:44.614Z</time>
      </trkpt>
      <trkpt lat="47.678933" lon="7.949621">
        <ele>639.157275</ele>
        <time>2021-11-19T23:27:49.457Z</time>
      </trkpt>
      <trkpt lat="47.679106" lon="7.949881">
        <ele>640.528286</ele>
        <time>2021-11-19T23:27:56.942Z</time>
      </trkpt>
      <trkpt lat="47.679335" lon="7.950032">
        <ele>641.924018</ele>
        <time>2021-11-19T23:28:02.265Z</time>
      </trkpt>
      <trkpt lat="47.679838" lon="7.949972">
        <ele>644.569803</ele>
        <time>2021-11-19T23:28:16.168Z</time>
      </trkpt>
      <trkpt lat="47.680004" lon="7.950039">
        <ele>645.416205</ele>
        <time>2021-11-19T23:28:18.514Z</time>
      </trkpt>
      <trkpt lat="47.680050" lon="7.950068">
        <ele>645.662087</ele>
        <time>2021-11-19T23:28:21.640Z</time>
      </trkpt>
      <trkpt lat="47.680401" lon="7.950233">
        <ele>647.473570</ele>
        <time>2021-11-19T23:28:32.582Z</time>
      </trkpt>
      <trkpt lat="47.680994" lon="7.949972">
        <ele>650.516759</ele>
        <time>2021-11-19T23:28:53.077Z</time>
      </trkpt>
      <trkpt lat="47.681269" lon="7.949958">
        <ele>651.870655</ele>
        <time>2021-11-19T23:29:05.963Z</time>
      </trkpt>
      <trkpt lat="47.681640" lon="7.950075">
        <ele>655.227833</ele>
        <time>2021-11-19T23:29:25.055Z</time>
      </trkpt>
      <trkpt lat="47.682090" lon="7.950374">
        <ele>659.960757</ele>
        <time>2021-11-19T23:29:52.777Z</time>
      </trkpt>
      <trkpt lat="47.682819" lon="7.951452">
        <ele>669.739681</ele>
        <time>2021-11-19T23:30:50.906Z</time>
      </trkpt>
      <trkpt lat="47.682901" lon="7.951614">
        <ele>670.730987</ele>
        <time>2021-11-19T23:30:57.902Z</time>
      </trkpt>
      <trkpt lat="47.683101" lon="7.952864">
        <ele>677.014985</ele>
        <time>2021-11-19T23:31:41.199Z</time>
      </trkpt>
      <trkpt lat="47.682993" lon="7.954198">
        <ele>682.410939</ele>
        <time>2021-11-19T23:32:14.258Z</time>
      </trkpt>
      <trkpt lat="47.682987" lon="7.954268">
        <ele>682.381026</ele>
        <time>2021-11-19T23:32:16.474Z</time>
      </trkpt>
      <trkpt lat="47.683031" lon="7.955033">
        <ele>682.055562</ele>
        <time>2021-11-19T23:32:25.802Z</time>
      </trkpt>
      <trkpt lat="47.683202" lon="7.955269">
        <ele>681.908590</ele>
        <time>2021-11-19T23:32:28.579Z</time>
      </trkpt>
      <trkpt lat="47.683646" lon="7.955496">
        <ele>681.612930</ele>
        <time>2021-11-19T23:32:33.501Z</time>
      </trkpt>
      <trkpt lat="47.684063" lon="7.955823">
        <ele>680.966790</ele>
        <time>2021-11-19T23:32:38.148Z</time>
      </trkpt>
      <trkpt lat="47.684765" lon="7.956489">
        <ele>677.181127</ele>
        <time>2021-11-19T23:32:45.887Z</time>
      </trkpt>
      <trkpt lat="47.684972" lon="7.956698">
        <ele>676.043604</ele>
        <time>2021-11-19T23:32:48.206Z</time>
      </trkpt>
      <trkpt lat="47.685487" lon="7.957674">
        <ele>673.306261</ele>
        <time>2021-11-19T23:32:56.209Z</time>
      </trkpt>
      <trkpt lat="47.685650" lon="7.957856">
        <ele>673.412352</ele>
        <time>2021-11-19T23:32:58.391Z</time>
      </trkpt>
      <trkpt lat="47.685757" lon="7.957977">
        <ele>673.482318</ele>
        <time>2021-11-19T23:33:01.279Z</time>
      </trkpt>
      <trkpt lat="47.686267" lon="7.958674">
        <ele>673.842876</ele>
        <time>2021-11-19T23:33:14.544Z</time>
      </trkpt>
      <trkpt lat="47.686322" lon="7.959069">
        <ele>673.984151</ele>
        <time>2021-11-19T23:33:19.688Z</time>
      </trkpt>
      <trkpt lat="47.686313" lon="7.959134">
        <ele>674.007394</ele>
        <time>2021-11-19T23:33:22.467Z</time>
      </trkpt>
      <trkpt lat="47.686353" lon="7.959103">
        <ele>674.030867</ele>
        <time>2021-11-19T23:33:27.801Z</time>
      </trkpt>
      <trkpt lat="47.686388" lon="7.958927">
        <ele>674.095143</ele>
        <time>2021-11-19T23:33:42.461Z</time>
      </trkpt>
      <trkpt lat="47.686353" lon="7.959103">
        <ele>674.399086</ele>
        <time>2021-11-19T23:33:57.261Z</time>
      </trkpt>
      <trkpt lat="47.686313" lon="7.959134">
        <ele>674.639637</ele>
        <time>2021-11-19T23:34:03.543Z</time>
      </trkpt>
      <trkpt lat="47.686306" lon="7.959188">
        <ele>674.837018</ele>
        <time>2021-11-19T23:34:06.383Z</time>
      </trkpt>
      <trkpt lat="47.686157" lon="7.959572">
        <ele>676.427864</ele>
        <time>2021-11-19T23:34:14.581Z</time>
      </trkpt>
      <trkpt lat="47.685564" lon="7.960446">
        <ele>680.881810</ele>
        <time>2021-11-19T23:34:48.277Z</time>
      </trkpt>
      <trkpt lat="47.685443" lon="7.960713">
        <ele>682.037079</ele>
        <time>2021-11-19T23:34:55.605Z</time>
      </trkpt>
      <trkpt lat="47.685390" lon="7.961394">
        <ele>684.444359</ele>
        <time>2021-11-19T23:35:14.499Z</time>
      </trkpt>
      <trkpt lat="47.685456" lon="7.961658">
        <ele>685.385540</ele>
        <time>2021-11-19T23:35:21.376Z</time>
      </trkpt>
      <trkpt lat="47.686057" lon="7.962663">
        <ele>689.878124</ele>
        <time>2021-11-19T23:35:53.899Z</time>
      </trkpt>
      <trkpt lat="47.686423" lon="7.962749">
        <ele>691.717703</ele>
        <time>2021-11-19T23:36:06.141Z</time>
      </trkpt>
      <trkpt lat="47.686871" lon="7.963038">
        <ele>693.586399</ele>
        <time>2021-11-19T23:36:20.235Z</time>
      </trkpt>
      <trkpt lat="47.687384" lon="7.963233">
        <ele>695.234029</ele>
        <time>2021-11-19T23:36:34.580Z</time>
      </trkpt>
      <trkpt lat="47.687588" lon="7.963379">
        <ele>695.938601</ele>
        <time>2021-11-19T23:36:40.363Z</time>
      </trkpt>
      <trkpt lat="47.687714" lon="7.963694">
        <ele>696.706082</ele>
        <time>2021-11-19T23:36:46.959Z</time>
      </trkpt>
      <trkpt lat="47.687755" lon="7.963954">
        <ele>697.265414</ele>
        <time>2021-11-19T23:36:51.639Z</time>
      </trkpt>
      <trkpt lat="47.687685" lon="7.964928">
        <ele>699.000757</ele>
        <time>2021-11-19T23:37:08.769Z</time>
      </trkpt>
      <trkpt lat="47.687735" lon="7.965229">
        <ele>699.457767</ele>
        <time>2021-11-19T23:37:13.965Z</time>
      </trkpt>
      <trkpt lat="47.687853" lon="7.965356">
        <ele>699.776850</ele>
        <time>2021-11-19T23:37:17.124Z</time>
      </trkpt>
      <trkpt lat="47.689020" lon="7.965804">
        <ele>702.366130</ele>
        <time>2021-11-19T23:37:44.081Z</time>
      </trkpt>
      <trkpt lat="47.689444" lon="7.966643">
        <ele>703.573296</ele>
        <time>2021-11-19T23:38:01.223Z</time>
      </trkpt>
      <trkpt lat="47.689579" lon="7.967340">
        <ele>704.407829</ele>
        <time>2021-11-19T23:38:12.470Z</time>
      </trkpt>
      <trkpt lat="47.689679" lon="7.967572">
        <ele>704.724813</ele>
        <time>2021-11-19T23:38:16.496Z</time>
      </trkpt>
      <trkpt lat="47.689846" lon="7.967646">
        <ele>705.022700</ele>
        <time>2021-11-19T23:38:19.889Z</time>
      </trkpt>
      <trkpt lat="47.690222" lon="7.967595">
        <ele>705.057879</ele>
        <time>2021-11-19T23:38:27.299Z</time>
      </trkpt>
      <trkpt lat="47.690757" lon="7.967781">
        <ele>704.584852</ele>
        <time>2021-11-19T23:38:33.640Z</time>
      </trkpt>
      <trkpt lat="47.691140" lon="7.968259">
        <ele>704.154216</ele>
        <time>2021-11-19T23:38:39.109Z</time>
      </trkpt>
      <trkpt lat="47.691339" lon="7.968413">
        <ele>703.961046</ele>
        <time>2021-11-19T23:38:42.617Z</time>
      </trkpt>
      <trkpt lat="47.691407" lon="7.968432">
        <ele>703.901478</ele>
        <time>2021-11-19T23:38:44.102Z</time>
      </trkpt>
      <trkpt lat="47.691511" lon="7.968453">
        <ele>703.811121</ele>
        <time>2021-11-19T23:38:45.062Z</time>
      </trkpt>
      <trkpt lat="47.691593" lon="7.968453">
        <ele>703.740527</ele>
        <time>2021-11-19T23:38:46.017Z</time>
      </trkpt>
      <trkpt lat="47.691708" lon="7.968429">
        <ele>703.578613</ele>
        <time>2021-11-19T23:38:48.423Z</time>
      </trkpt>
      <trkpt lat="47.692072" lon="7.968377">
        <ele>702.997641</ele>
        <time>2021-11-19T23:38:52.834Z</time>
      </trkpt>
      <trkpt lat="47.692229" lon="7.968446">
        <ele>702.737522</ele>
        <time>2021-11-19T23:38:54.501Z</time>
      </trkpt>
      <trkpt lat="47.692460" lon="7.968663">
        <ele>702.303307</ele>
        <time>2021-11-19T23:38:59.429Z</time>
      </trkpt>
      <trkpt lat="47.692486" lon="7.968697">
        <ele>702.248277</ele>
        <time>2021-11-19T23:38:59.717Z</time>
      </trkpt>
      <trkpt lat="47.692535" lon="7.968764">
        <ele>702.142475</ele>
        <time>2021-11-19T23:39:00.551Z</time>
      </trkpt>
      <trkpt lat="47.692583" lon="7.968865">
        <ele>702.010256</ele>
        <time>2021-11-19T23:39:01.503Z</time>
      </trkpt>
      <trkpt lat="47.692622" lon="7.968949">
        <ele>701.901130</ele>
        <time>2021-11-19T23:39:03.832Z</time>
      </trkpt>
      <trkpt lat="47.692708" lon="7.969591">
        <ele>701.201112</ele>
        <time>2021-11-19T23:39:08.347Z</time>
      </trkpt>
      <trkpt lat="47.692792" lon="7.969848">
        <ele>700.895589</ele>
        <time>2021-11-19T23:39:10.162Z</time>
      </trkpt>
      <trkpt lat="47.693367" lon="7.970554">
        <ele>700.000704</ele>
        <time>2021-11-19T23:39:19.092Z</time>
      </trkpt>
      <trkpt lat="47.693470" lon="7.970657">
        <ele>699.853416</ele>
        <time>2021-11-19T23:39:22.900Z</time>
      </trkpt>
      <trkpt lat="47.693559" lon="7.970717">
        <ele>699.737476</ele>
        <time>2021-11-19T23:39:23.784Z</time>
      </trkpt>
      <trkpt lat="47.693868" lon="7.970838">
        <ele>699.358396</ele>
        <time>2021-11-19T23:39:27.400Z</time>
      </trkpt>
      <trkpt lat="47.694129" lon="7.971181">
        <ele>698.945029</ele>
        <time>2021-11-19T23:39:32.211Z</time>
      </trkpt>
      <trkpt lat="47.694401" lon="7.971915">
        <ele>699.443611</ele>
        <time>2021-11-19T23:39:39.837Z</time>
      </trkpt>
      <trkpt lat="47.694470" lon="7.972512">
        <ele>700.224669</ele>
        <time>2021-11-19T23:39:47.066Z</time>
      </trkpt>
      <trkpt lat="47.694476" lon="7.972883">
        <ele>700.703187</ele>
        <time>2021-11-19T23:39:54.102Z</time>
      </trkpt>
      <trkpt lat="47.694490" lon="7.973151">
        <ele>701.049794</ele>
        <time>2021-11-19T23:40:00.113Z</time>
      </trkpt>
      <trkpt lat="47.694555" lon="7.973622">
        <ele>701.669750</ele>
        <time>2021-11-19T23:40:09.155Z</time>
      </trkpt>
      <trkpt lat="47.694780" lon="7.974343">
        <ele>702.297966</ele>
        <time>2021-11-19T23:40:23.735Z</time>
      </trkpt>
      <trkpt lat="47.694953" lon="7.974863">
        <ele>702.482383</ele>
        <time>2021-11-19T23:40:34.241Z</time>
      </trkpt>
      <trkpt lat="47.695374" lon="7.976086">
        <ele>702.919111</ele>
        <time>2021-11-19T23:40:47.468Z</time>
      </trkpt>
      <trkpt lat="47.695600" lon="7.976718">
        <ele>701.883713</ele>
        <time>2021-11-19T23:40:52.425Z</time>
      </trkpt>
      <trkpt lat="47.695701" lon="7.977005">
        <ele>700.977433</ele>
        <time>2021-11-19T23:40:54.517Z</time>
      </trkpt>
      <trkpt lat="47.695740" lon="7.977103">
        <ele>700.658846</ele>
        <time>2021-11-19T23:40:55.240Z</time>
      </trkpt>
      <trkpt lat="47.696003" lon="7.977710">
        <ele>698.638736</ele>
        <time>2021-11-19T23:40:59.820Z</time>
      </trkpt>
      <trkpt lat="47.696246" lon="7.978205">
        <ele>696.924270</ele>
        <time>2021-11-19T23:41:03.686Z</time>
      </trkpt>
      <trkpt lat="47.696406" lon="7.978512">
        <ele>695.837745</ele>
        <time>2021-11-19T23:41:06.181Z</time>
      </trkpt>
      <trkpt lat="47.696681" lon="7.979051">
        <ele>694.625451</ele>
        <time>2021-11-19T23:41:10.592Z</time>
      </trkpt>
      <trkpt lat="47.696734" lon="7.979156">
        <ele>694.414877</ele>
        <time>2021-11-19T23:41:11.474Z</time>
      </trkpt>
      <trkpt lat="47.696827" lon="7.979332">
        <ele>694.055875</ele>
        <time>2021-11-19T23:41:13.003Z</time>
      </trkpt>
      <trkpt lat="47.696892" lon="7.979453">
        <ele>693.807490</ele>
        <time>2021-11-19T23:41:14.059Z</time>
      </trkpt>
      <trkpt lat="47.697264" lon="7.979031">
        <ele>692.691807</ele>
        <time>2021-11-19T23:41:19.107Z</time>
      </trkpt>
      <trkpt lat="47.697413" lon="7.978891">
        <ele>692.271563</ele>
        <time>2021-11-19T23:41:21.109Z</time>
      </trkpt>
      <trkpt lat="47.697868" lon="7.978418">
        <ele>691.626851</ele>
        <time>2021-11-19T23:41:27.997Z</time>
      </trkpt>
      <trkpt lat="47.698021" lon="7.978140">
        <ele>692.335990</ele>
        <time>2021-11-19T23:41:31.662Z</time>
      </trkpt>
      <trkpt lat="47.698097" lon="7.977882">
        <ele>692.892123</ele>
        <time>2021-11-19T23:41:35.419Z</time>
      </trkpt>
      <trkpt lat="47.698122" lon="7.977643">
        <ele>693.369741</ele>
        <time>2021-11-19T23:41:39.157Z</time>
      </trkpt>
      <trkpt lat="47.698076" lon="7.977417">
        <ele>693.835983</ele>
        <time>2021-11-19T23:41:43.146Z</time>
      </trkpt>
      <trkpt lat="47.698026" lon="7.977287">
        <ele>694.131654</ele>
        <time>2021-11-19T23:41:45.868Z</time>
      </trkpt>
      <trkpt lat="47.697894" lon="7.977165">
        <ele>694.587759</ele>
        <time>2021-11-19T23:41:50.524Z</time>
      </trkpt>
      <trkpt lat="47.697396" lon="7.976865">
        <ele>696.164423</ele>
        <time>2021-11-19T23:42:08.725Z</time>
      </trkpt>
      <trkpt lat="47.697197" lon="7.976591">
        <ele>697.762072</ele>
        <time>2021-11-19T23:42:19.682Z</time>
      </trkpt>
      <trkpt lat="47.697094" lon="7.976382">
        <ele>699.224973</ele>
        <time>2021-11-19T23:42:27.163Z</time>
      </trkpt>
      <trkpt lat="47.697055" lon="7.976091">
        <ele>700.900645</ele>
        <time>2021-11-19T23:42:36.487Z</time>
      </trkpt>
      <trkpt lat="47.697069" lon="7.975528">
        <ele>704.082329</ele>
        <time>2021-11-19T23:42:55.470Z</time>
      </trkpt>
      <trkpt lat="47.697020" lon="7.975358">
        <ele>705.126729</ele>
        <time>2021-11-19T23:43:02.072Z</time>
      </trkpt>
      <trkpt lat="47.696798" lon="7.975009">
        <ele>707.838665</ele>
        <time>2021-11-19T23:43:19.476Z</time>
      </trkpt>
      <trkpt lat="47.696251" lon="7.974544">
        <ele>713.280224</ele>
        <time>2021-11-19T23:43:52.678Z</time>
      </trkpt>
      <trkpt lat="47.696131" lon="7.974329">
        <ele>715.018607</ele>
        <time>2021-11-19T23:44:02.355Z</time>
      </trkpt>
      <trkpt lat="47.695949" lon="7.973487">
        <ele>720.522777</ele>
        <time>2021-11-19T23:44:32.953Z</time>
      </trkpt>
      <trkpt lat="47.695775" lon="7.972181">
        <ele>728.959725</ele>
        <time>2021-11-19T23:45:19.528Z</time>
      </trkpt>
      <trkpt lat="47.695741" lon="7.971924">
        <ele>731.032583</ele>
        <time>2021-11-19T23:45:27.501Z</time>
      </trkpt>
      <trkpt lat="47.695723" lon="7.971791">
        <ele>732.106236</ele>
        <time>2021-11-19T23:45:33.321Z</time>
      </trkpt>
      <trkpt lat="47.695393" lon="7.971450">
        <ele>736.832715</ele>
        <time>2021-11-19T23:45:53.989Z</time>
      </trkpt>
      <trkpt lat="47.695315" lon="7.971199">
        <ele>739.020690</ele>
        <time>2021-11-19T23:46:03.092Z</time>
      </trkpt>
      <trkpt lat="47.695510" lon="7.969924">
        <ele>749.368543</ele>
        <time>2021-11-19T23:47:04.676Z</time>
      </trkpt>
      <trkpt lat="47.695311" lon="7.969374">
        <ele>756.496348</ele>
        <time>2021-11-19T23:47:39.183Z</time>
      </trkpt>
      <trkpt lat="47.695420" lon="7.968555">
        <ele>766.046673</ele>
        <time>2021-11-19T23:48:25.288Z</time>
      </trkpt>
      <trkpt lat="47.695389" lon="7.968138">
        <ele>770.845937</ele>
        <time>2021-11-19T23:48:49.445Z</time>
      </trkpt>
      <trkpt lat="47.695370" lon="7.967848">
        <ele>774.179062</ele>
        <time>2021-11-19T23:49:10.324Z</time>
      </trkpt>
      <trkpt lat="47.695376" lon="7.967487">
        <ele>778.309969</ele>
        <time>2021-11-19T23:49:31.517Z</time>
      </trkpt>
      <trkpt lat="47.695535" lon="7.966549">
        <ele>784.747098</ele>
        <time>2021-11-19T23:50:21.566Z</time>
      </trkpt>
      <trkpt lat="47.695753" lon="7.966192">
        <ele>787.547098</ele>
        <time>2021-11-19T23:50:41.961Z</time>
      </trkpt>
      <trkpt lat="47.695889" lon="7.966070">
        <ele>788.918162</ele>
        <time>2021-11-19T23:50:53.992Z</time>
      </trkpt>
      <trkpt lat="47.695920" lon="7.966031">
        <ele>789.268729</ele>
        <time>2021-11-19T23:50:55.476Z</time>
      </trkpt>
      <trkpt lat="47.695949" lon="7.965902">
        <ele>790.058747</ele>
        <time>2021-11-19T23:50:57.193Z</time>
      </trkpt>
      <trkpt lat="47.695871" lon="7.965725">
        <ele>791.287660</ele>
        <time>2021-11-19T23:51:01.325Z</time>
      </trkpt>
      <trkpt lat="47.695806" lon="7.965688">
        <ele>791.888390</ele>
        <time>2021-11-19T23:51:05.413Z</time>
      </trkpt>
      <trkpt lat="47.695745" lon="7.965702">
        <ele>792.421080</ele>
        <time>2021-11-19T23:51:06.025Z</time>
      </trkpt>
      <trkpt lat="47.695539" lon="7.965896">
        <ele>794.525978</ele>
        <time>2021-11-19T23:51:09.971Z</time>
      </trkpt>
      <trkpt lat="47.694681" lon="7.967298">
        <ele>790.849514</ele>
        <time>2021-11-19T23:51:22.116Z</time>
      </trkpt>
      <trkpt lat="47.694272" lon="7.967599">
        <ele>789.026350</ele>
        <time>2021-11-19T23:51:26.294Z</time>
      </trkpt>
      <trkpt lat="47.694059" lon="7.967603">
        <ele>788.328956</ele>
        <time>2021-11-19T23:51:28.257Z</time>
      </trkpt>
      <trkpt lat="47.693760" lon="7.967330">
        <ele>788.516937</ele>
        <time>2021-11-19T23:51:31.910Z</time>
      </trkpt>
      <trkpt lat="47.693668" lon="7.967264">
        <ele>788.571659</ele>
        <time>2021-11-19T23:51:34.526Z</time>
      </trkpt>
      <trkpt lat="47.693228" lon="7.966796">
        <ele>788.861511</ele>
        <time>2021-11-19T23:51:42.842Z</time>
      </trkpt>
      <trkpt lat="47.693070" lon="7.966450">
        <ele>789.012254</ele>
        <time>2021-11-19T23:51:50.107Z</time>
      </trkpt>
      <trkpt lat="47.693104" lon="7.965947">
        <ele>789.194516</ele>
        <time>2021-11-19T23:51:59.877Z</time>
      </trkpt>
      <trkpt lat="47.693237" lon="7.965355">
        <ele>789.804151</ele>
        <time>2021-11-19T23:52:13.793Z</time>
      </trkpt>
      <trkpt lat="47.693220" lon="7.965194">
        <ele>790.018433</ele>
        <time>2021-11-19T23:52:16.950Z</time>
      </trkpt>
      <trkpt lat="47.693107" lon="7.964929">
        <ele>790.430907</ele>
        <time>2021-11-19T23:52:22.725Z</time>
      </trkpt>
      <trkpt lat="47.692759" lon="7.964567">
        <ele>791.260777</ele>
        <time>2021-11-19T23:52:32.903Z</time>
      </trkpt>
      <trkpt lat="47.692581" lon="7.964237">
        <ele>791.816817</ele>
        <time>2021-11-19T23:52:38.920Z</time>
      </trkpt>
      <trkpt lat="47.692415" lon="7.964071">
        <ele>792.207706</ele>
        <time>2021-11-19T23:52:42.429Z</time>
      </trkpt>
      <trkpt lat="47.692263" lon="7.964097">
        <ele>792.506590</ele>
        <time>2021-11-19T23:52:45.057Z</time>
      </trkpt>
      <trkpt lat="47.691950" lon="7.964468">
        <ele>792.846653</ele>
        <time>2021-11-19T23:52:50.250Z</time>
      </trkpt>
      <trkpt lat="47.691808" lon="7.964560">
        <ele>792.882222</ele>
        <time>2021-11-19T23:52:52.123Z</time>
      </trkpt>
      <trkpt lat="47.691415" lon="7.964449">
        <ele>792.974073</ele>
        <time>2021-11-19T23:52:57.129Z</time>
      </trkpt>
      <trkpt lat="47.691350" lon="7.964430">
        <ele>792.989283</ele>
        <time>2021-11-19T23:52:58.035Z</time>
      </trkpt>
      <trkpt lat="47.691303" lon="7.964404">
        <ele>793.000799</ele>
        <time>2021-11-19T23:52:58.656Z</time>
      </trkpt>
      <trkpt lat="47.690997" lon="7.964237">
        <ele>793.075648</ele>
        <time>2021-11-19T23:53:03.208Z</time>
      </trkpt>
      <trkpt lat="47.690834" lon="7.964064">
        <ele>793.121644</ele>
        <time>2021-11-19T23:53:06.557Z</time>
      </trkpt>
      <trkpt lat="47.690731" lon="7.963836">
        <ele>793.164082</ele>
        <time>2021-11-19T23:53:10.643Z</time>
      </trkpt>
      <trkpt lat="47.690788" lon="7.963194">
        <ele>794.153052</ele>
        <time>2021-11-19T23:53:20.503Z</time>
      </trkpt>
      <trkpt lat="47.690707" lon="7.962745">
        <ele>795.231777</ele>
        <time>2021-11-19T23:53:28.347Z</time>
      </trkpt>
      <trkpt lat="47.690463" lon="7.962380">
        <ele>796.425530</ele>
        <time>2021-11-19T23:53:37.487Z</time>
      </trkpt>
      <trkpt lat="47.690278" lon="7.962229">
        <ele>797.153238</ele>
        <time>2021-11-19T23:53:43.089Z</time>
      </trkpt>
      <trkpt lat="47.690093" lon="7.962108">
        <ele>797.850100</ele>
        <time>2021-11-19T23:53:49.694Z</time>
      </trkpt>
      <trkpt lat="47.689768" lon="7.961711">
        <ele>799.300671</ele>
        <time>2021-11-19T23:54:04.403Z</time>
      </trkpt>
      <trkpt lat="47.689549" lon="7.961412">
        <ele>800.527597</ele>
        <time>2021-11-19T23:54:15.579Z</time>
      </trkpt>
      <trkpt lat="47.689371" lon="7.961188">
        <ele>801.507110</ele>
        <time>2021-11-19T23:54:25.137Z</time>
      </trkpt>
      <trkpt lat="47.689260" lon="7.960699">
        <ele>802.965715</ele>
        <time>2021-11-19T23:54:38.200Z</time>
      </trkpt>
      <trkpt lat="47.689313" lon="7.960398">
        <ele>803.845103</ele>
        <time>2021-11-19T23:54:46.432Z</time>
      </trkpt>
      <trkpt lat="47.689509" lon="7.960015">
        <ele>805.204942</ele>
        <time>2021-11-19T23:54:52.441Z</time>
      </trkpt>
      <trkpt lat="47.689532" lon="7.959966">
        <ele>805.373784</ele>
        <time>2021-11-19T23:54:55.881Z</time>
      </trkpt>
      <trkpt lat="47.689674" lon="7.959657">
        <ele>806.431269</ele>
        <time>2021-11-19T23:55:00.611Z</time>
      </trkpt>
      <trkpt lat="47.689863" lon="7.959120">
        <ele>807.235143</ele>
        <time>2021-11-19T23:55:09.758Z</time>
      </trkpt>
      <trkpt lat="47.689892" lon="7.958388">
        <ele>807.725094</ele>
        <time>2021-11-19T23:55:22.713Z</time>
      </trkpt>
      <trkpt lat="47.689888" lon="7.958232">
        <ele>807.829405</ele>
        <time>2021-11-19T23:55:24.329Z</time>
      </trkpt>
      <trkpt lat="47.689884" lon="7.958104">
        <ele>807.915024</ele>
        <time>2021-11-19T23:55:25.158Z</time>
      </trkpt>
      <trkpt lat="47.689716" lon="7.957538">
        <ele>808.328346</ele>
        <time>2021-11-19T23:55:32.832Z</time>
      </trkpt>
      <trkpt lat="47.688866" lon="7.956415">
        <ele>809.901526</ele>
        <time>2021-11-19T23:55:48.573Z</time>
      </trkpt>
      <trkpt lat="47.688807" lon="7.956088">
        <ele>810.267572</ele>
        <time>2021-11-19T23:55:54.026Z</time>
      </trkpt>
      <trkpt lat="47.688788" lon="7.955551">
        <ele>810.849001</ele>
        <time>2021-11-19T23:56:03.514Z</time>
      </trkpt>
      <trkpt lat="47.688515" lon="7.954730">
        <ele>811.797521</ele>
        <time>2021-11-19T23:56:21.246Z</time>
      </trkpt>
      <trkpt lat="47.687817" lon="7.953290">
        <ele>813.337973</ele>
        <time>2021-11-19T23:56:49.225Z</time>
      </trkpt>
      <trkpt lat="47.687773" lon="7.952927">
        <ele>813.658171</ele>
        <time>2021-11-19T23:56:52.618Z</time>
      </trkpt>
      <trkpt lat="47.687779" lon="7.952728">
        <ele>813.831101</ele>
        <time>2021-11-19T23:56:54.725Z</time>
      </trkpt>
      <trkpt lat="47.687781" lon="7.952606">
        <ele>813.937044</ele>
        <time>2021-11-19T23:56:55.692Z</time>
      </trkpt>
      <trkpt lat="47.687764" lon="7.952155">
        <ele>813.165615</ele>
        <time>2021-11-19T23:56:58.872Z</time>
      </trkpt>
      <trkpt lat="47.687659" lon="7.951763">
        <ele>812.414719</ele>
        <time>2021-11-19T23:57:01.734Z</time>
      </trkpt>
      <trkpt lat="47.687182" lon="7.951157">
        <ele>810.755240</ele>
        <time>2021-11-19T23:57:08.082Z</time>
      </trkpt>
      <trkpt lat="47.686978" lon="7.950819">
        <ele>809.947265</ele>
        <time>2021-11-19T23:57:11.172Z</time>
      </trkpt>
      <trkpt lat="47.686953" lon="7.950665">
        <ele>809.665310</ele>
        <time>2021-11-19T23:57:12.124Z</time>
      </trkpt>
      <trkpt lat="47.686950" lon="7.950574">
        <ele>809.503149</ele>
        <time>2021-11-19T23:57:12.800Z</time>
      </trkpt>
      <trkpt lat="47.687006" lon="7.949894">
        <ele>809.016566</ele>
        <time>2021-11-19T23:57:17.959Z</time>
      </trkpt>
      <trkpt lat="47.687082" lon="7.949596">
        <ele>808.906905</ele>
        <time>2021-11-19T23:57:20.327Z</time>
      </trkpt>
      <trkpt lat="47.687155" lon="7.949288">
        <ele>808.794538</ele>
        <time>2021-11-19T23:57:23.915Z</time>
      </trkpt>
      <trkpt lat="47.687244" lon="7.949029">
        <ele>808.694471</ele>
        <time>2021-11-19T23:57:26.209Z</time>
      </trkpt>
      <trkpt lat="47.687389" lon="7.948743">
        <ele>808.571262</ele>
        <time>2021-11-19T23:57:29.900Z</time>
      </trkpt>
      <trkpt lat="47.687461" lon="7.948655">
        <ele>808.523600</ele>
        <time>2021-11-19T23:57:31.200Z</time>
      </trkpt>
      <trkpt lat="47.687525" lon="7.948592">
        <ele>808.484353</ele>
        <time>2021-11-19T23:57:32.765Z</time>
      </trkpt>
      <trkpt lat="47.687719" lon="7.948437">
        <ele>808.371748</ele>
        <time>2021-11-19T23:57:37.953Z</time>
      </trkpt>
      <trkpt lat="47.689121" lon="7.947773">
        <ele>808.594501</ele>
        <time>2021-11-19T23:58:05.463Z</time>
      </trkpt>
      <trkpt lat="47.690128" lon="7.947089">
        <ele>807.461243</ele>
        <time>2021-11-19T23:58:18.336Z</time>
      </trkpt>
      <trkpt lat="47.690211" lon="7.946723">
        <ele>806.900771</ele>
        <time>2021-11-19T23:58:21.093Z</time>
      </trkpt>
      <trkpt lat="47.690153" lon="7.946385">
        <ele>806.394576</ele>
        <time>2021-11-19T23:58:23.567Z</time>
      </trkpt>
      <trkpt lat="47.690039" lon="7.946199">
        <ele>806.029525</ele>
        <time>2021-11-19T23:58:25.344Z</time>
      </trkpt>
      <trkpt lat="47.689643" lon="7.945887">
        <ele>805.063162</ele>
        <time>2021-11-19T23:58:30.016Z</time>
      </trkpt>
      <trkpt lat="47.689487" lon="7.945675">
        <ele>804.623002</ele>
        <time>2021-11-19T23:58:32.231Z</time>
      </trkpt>
      <trkpt lat="47.689394" lon="7.945376">
        <ele>804.176093</ele>
        <time>2021-11-19T23:58:34.566Z</time>
      </trkpt>
      <trkpt lat="47.689381" lon="7.945037">
        <ele>803.715378</ele>
        <time>2021-11-19T23:58:36.888Z</time>
      </trkpt>
      <trkpt lat="47.689425" lon="7.944317">
        <ele>802.734437</ele>
        <time>2021-11-19T23:58:42.180Z</time>
      </trkpt>
      <trkpt lat="47.689443" lon="7.943973">
        <ele>802.266276</ele>
        <time>2021-11-19T23:58:44.662Z</time>
      </trkpt>
      <trkpt lat="47.689412" lon="7.943303">
        <ele>801.355049</ele>
        <time>2021-11-19T23:58:49.975Z</time>
      </trkpt>
      <trkpt lat="47.689369" lon="7.943108">
        <ele>801.231041</ele>
        <time>2021-11-19T23:58:51.492Z</time>
      </trkpt>
      <trkpt lat="47.689369" lon="7.943108">
        <ele>801.231041</ele>
        <time>2021-11-19T23:58:51.495Z</time>
      </trkpt>
      <trkpt lat="47.689354" lon="7.943040">
        <ele>801.236706</ele>
        <time>2021-11-19T23:58:52.087Z</time>
      </trkpt>
      <trkpt lat="47.689317" lon="7.942872">
        <ele>801.250700</ele>
        <time>2021-11-19T23:58:53.705Z</time>
      </trkpt>
      <trkpt lat="47.689274" lon="7.941995">
        <ele>801.320315</ele>
        <time>2021-11-19T23:59:02.568Z</time>
      </trkpt>
      <trkpt lat="47.689379" lon="7.941437">
        <ele>801.366185</ele>
        <time>2021-11-19T23:59:10.071Z</time>
      </trkpt>
      <trkpt lat="47.689567" lon="7.940889">
        <ele>801.414878</ele>
        <time>2021-11-19T23:59:18.169Z</time>
      </trkpt>
      <trkpt lat="47.689674" lon="7.940726">
        <ele>801.432903</ele>
        <time>2021-11-19T23:59:20.571Z</time>
      </trkpt>
      <trkpt lat="47.689780" lon="7.940625">
        <ele>801.395760</ele>
        <time>2021-11-19T23:59:22.392Z</time>
      </trkpt>
      <trkpt lat="47.689839" lon="7.940607">
        <ele>801.375879</ele>
        <time>2021-11-19T23:59:23.991Z</time>
      </trkpt>
      <trkpt lat="47.690501" lon="7.940662">
        <ele>801.157025</ele>
        <time>2021-11-19T23:59:31.932Z</time>
      </trkpt>
      <trkpt lat="47.690668" lon="7.940594">
        <ele>801.099868</ele>
        <time>2021-11-19T23:59:35.126Z</time>
      </trkpt>
      <trkpt lat="47.690841" lon="7.940462">
        <ele>801.035673</ele>
        <time>2021-11-19T23:59:37.301Z</time>
      </trkpt>
      <trkpt lat="47.690968" lon="7.940286">
        <ele>800.978346</ele>
        <time>2021-11-19T23:59:40.555Z</time>
      </trkpt>
      <trkpt lat="47.691116" lon="7.939893">
        <ele>800.878290</ele>
        <time>2021-11-19T23:59:44.690Z</time>
      </trkpt>
      <trkpt lat="47.691116" lon="7.939731">
        <ele>800.842296</ele>
        <time>2021-11-19T23:59:46.289Z</time>
      </trkpt>
      <trkpt lat="47.691111" lon="7.939681">
        <ele>800.861903</ele>
        <time>2021-11-19T23:59:46.587Z</time>
      </trkpt>
      <trkpt lat="47.691106" lon="7.939614">
        <ele>800.896563</ele>
        <time>2021-11-19T23:59:47.182Z</time>
      </trkpt>
      <trkpt lat="47.691092" lon="7.939506">
        <ele>800.953113</ele>
        <time>2021-11-19T23:59:48.237Z</time>
      </trkpt>
      <trkpt lat="47.691060" lon="7.939248">
        <ele>801.088000</ele>
        <time>2021-11-19T23:59:50.999Z</time>
      </trkpt>
      <trkpt lat="47.691102" lon="7.938699">
        <ele>801.372092</ele>
        <time>2021-11-19T23:59:55.938Z</time>
      </trkpt>
      <trkpt lat="47.691595" lon="7.937414">
        <ele>802.132568</ele>
        <time>2021-11-20T00:00:13.512Z</time>
      </trkpt>
      <trkpt lat="47.692277" lon="7.936501">
        <ele>806.013955</ele>
        <time>2021-11-20T00:00:42.078Z</time>
      </trkpt>
      <trkpt lat="47.692599" lon="7.935934">
        <ele>808.353158</ele>
        <time>2021-11-20T00:00:59.756Z</time>
      </trkpt>
      <trkpt lat="47.692849" lon="7.935367">
        <ele>810.490458</ele>
        <time>2021-11-20T00:01:17.336Z</time>
      </trkpt>
      <trkpt lat="47.692873" lon="7.935297">
        <ele>810.804268</ele>
        <time>2021-11-20T00:01:19.220Z</time>
      </trkpt>
      <trkpt lat="47.692945" lon="7.935062">
        <ele>812.167219</ele>
        <time>2021-11-20T00:01:26.561Z</time>
      </trkpt>
      <trkpt lat="47.693097" lon="7.934533">
        <ele>815.203418</ele>
        <time>2021-11-20T00:01:43.352Z</time>
      </trkpt>
      <trkpt lat="47.693269" lon="7.934189">
        <ele>817.465450</ele>
        <time>2021-11-20T00:01:56.228Z</time>
      </trkpt>
      <trkpt lat="47.693365" lon="7.934041">
        <ele>818.550407</ele>
        <time>2021-11-20T00:02:03.377Z</time>
      </trkpt>
      <trkpt lat="47.693604" lon="7.933678">
        <ele>821.230819</ele>
        <time>2021-11-20T00:02:20.063Z</time>
      </trkpt>
      <trkpt lat="47.693906" lon="7.933216">
        <ele>824.630302</ele>
        <time>2021-11-20T00:02:41.855Z</time>
      </trkpt>
      <trkpt lat="47.694176" lon="7.932793">
        <ele>828.378909</ele>
        <time>2021-11-20T00:03:01.131Z</time>
      </trkpt>
      <trkpt lat="47.695435" lon="7.931533">
        <ele>842.932490</ele>
        <time>2021-11-20T00:04:24.617Z</time>
      </trkpt>
      <trkpt lat="47.695783" lon="7.931339">
        <ele>846.317940</ele>
        <time>2021-11-20T00:04:44.351Z</time>
      </trkpt>
      <trkpt lat="47.695980" lon="7.931331">
        <ele>848.112935</ele>
        <time>2021-11-20T00:04:54.526Z</time>
      </trkpt>
      <trkpt lat="47.696081" lon="7.931365">
        <ele>849.056186</ele>
        <time>2021-11-20T00:05:00.361Z</time>
      </trkpt>
      <trkpt lat="47.696162" lon="7.931402">
        <ele>849.828035</ele>
        <time>2021-11-20T00:05:04.212Z</time>
      </trkpt>
      <trkpt lat="47.696261" lon="7.931448">
        <ele>850.772819</ele>
        <time>2021-11-20T00:05:09.589Z</time>
      </trkpt>
      <trkpt lat="47.696418" lon="7.931504">
        <ele>852.243445</ele>
        <time>2021-11-20T00:05:17.921Z</time>
      </trkpt>
      <trkpt lat="47.696669" lon="7.931428">
        <ele>854.576607</ele>
        <time>2021-11-20T00:05:31.124Z</time>
      </trkpt>
      <trkpt lat="47.696702" lon="7.931413">
        <ele>854.890931</ele>
        <time>2021-11-20T00:05:32.649Z</time>
      </trkpt>
      <trkpt lat="47.696744" lon="7.931395">
        <ele>855.289074</ele>
        <time>2021-11-20T00:05:35.754Z</time>
      </trkpt>
      <trkpt lat="47.696989" lon="7.931432">
        <ele>857.532093</ele>
        <time>2021-11-20T00:05:47.943Z</time>
      </trkpt>
      <trkpt lat="47.697091" lon="7.931643">
        <ele>858.805717</ele>
        <time>2021-11-20T00:05:55.952Z</time>
      </trkpt>
      <trkpt lat="47.697107" lon="7.931769">
        <ele>859.230278</ele>
        <time>2021-11-20T00:06:00.239Z</time>
      </trkpt>
      <trkpt lat="47.696985" lon="7.932341">
        <ele>861.217061</ele>
        <time>2021-11-20T00:06:18.620Z</time>
      </trkpt>
      <trkpt lat="47.696996" lon="7.932454">
        <ele>861.595111</ele>
        <time>2021-11-20T00:06:20.628Z</time>
      </trkpt>
      <trkpt lat="47.697116" lon="7.932688">
        <ele>862.569188</ele>
        <time>2021-11-20T00:06:27.222Z</time>
      </trkpt>
      <trkpt lat="47.697198" lon="7.932720">
        <ele>862.986276</ele>
        <time>2021-11-20T00:06:30.757Z</time>
      </trkpt>
      <trkpt lat="47.697277" lon="7.932711">
        <ele>863.376062</ele>
        <time>2021-11-20T00:06:32.488Z</time>
      </trkpt>
      <trkpt lat="47.697338" lon="7.932686">
        <ele>863.687363</ele>
        <time>2021-11-20T00:06:34.677Z</time>
      </trkpt>
      <trkpt lat="47.697436" lon="7.932606">
        <ele>864.237456</ele>
        <time>2021-11-20T00:06:38.154Z</time>
      </trkpt>
      <trkpt lat="47.697623" lon="7.932380">
        <ele>865.423325</ele>
        <time>2021-11-20T00:06:45.061Z</time>
      </trkpt>
      <trkpt lat="47.697982" lon="7.932184">
        <ele>867.280794</ele>
        <time>2021-11-20T00:06:54.614Z</time>
      </trkpt>
      <trkpt lat="47.698184" lon="7.932113">
        <ele>867.326097</ele>
        <time>2021-11-20T00:06:59.865Z</time>
      </trkpt>
      <trkpt lat="47.698213" lon="7.932100">
        <ele>867.332708</ele>
        <time>2021-11-20T00:07:00.364Z</time>
      </trkpt>
      <trkpt lat="47.698295" lon="7.932064">
        <ele>867.351369</ele>
        <time>2021-11-20T00:07:01.906Z</time>
      </trkpt>
      <trkpt lat="47.698697" lon="7.931952">
        <ele>867.440634</ele>
        <time>2021-11-20T00:07:08.945Z</time>
      </trkpt>
      <trkpt lat="47.698719" lon="7.931946">
        <ele>867.445516</ele>
        <time>2021-11-20T00:07:09.201Z</time>
      </trkpt>
      <trkpt lat="47.698997" lon="7.931826">
        <ele>867.508697</ele>
        <time>2021-11-20T00:07:12.854Z</time>
      </trkpt>
      <trkpt lat="47.699097" lon="7.931601">
        <ele>867.548303</ele>
        <time>2021-11-20T00:07:14.867Z</time>
      </trkpt>
      <trkpt lat="47.699139" lon="7.931381">
        <ele>867.581893</ele>
        <time>2021-11-20T00:07:16.975Z</time>
      </trkpt>
      <trkpt lat="47.699167" lon="7.931228">
        <ele>867.605183</ele>
        <time>2021-11-20T00:07:18.165Z</time>
      </trkpt>
      <trkpt lat="47.699179" lon="7.931046">
        <ele>867.632044</ele>
        <time>2021-11-20T00:07:19.571Z</time>
      </trkpt>
      <trkpt lat="47.699174" lon="7.930935">
        <ele>867.648385</ele>
        <time>2021-11-20T00:07:20.605Z</time>
      </trkpt>
      <trkpt lat="47.699166" lon="7.930830">
        <ele>867.663906</ele>
        <time>2021-11-20T00:07:21.562Z</time>
      </trkpt>
      <trkpt lat="47.699125" lon="7.930694">
        <ele>867.844013</ele>
        <time>2021-11-20T00:07:22.749Z</time>
      </trkpt>
      <trkpt lat="47.699067" lon="7.930598">
        <ele>868.083903</ele>
        <time>2021-11-20T00:07:23.792Z</time>
      </trkpt>
      <trkpt lat="47.698916" lon="7.930485">
        <ele>868.551033</ele>
        <time>2021-11-20T00:07:26.932Z</time>
      </trkpt>
      <trkpt lat="47.698856" lon="7.930473">
        <ele>868.718304</ele>
        <time>2021-11-20T00:07:27.752Z</time>
      </trkpt>
      <trkpt lat="47.698646" lon="7.930431">
        <ele>869.303753</ele>
        <time>2021-11-20T00:07:31.946Z</time>
      </trkpt>
      <trkpt lat="47.698539" lon="7.930409">
        <ele>869.602203</ele>
        <time>2021-11-20T00:07:34.460Z</time>
      </trkpt>
      <trkpt lat="47.698390" lon="7.930344">
        <ele>870.031258</ele>
        <time>2021-11-20T00:07:38.225Z</time>
      </trkpt>
      <trkpt lat="47.698274" lon="7.930122">
        <ele>870.553886</ele>
        <time>2021-11-20T00:07:43.711Z</time>
      </trkpt>
      <trkpt lat="47.698230" lon="7.929864">
        <ele>871.048812</ele>
        <time>2021-11-20T00:07:48.734Z</time>
      </trkpt>
      <trkpt lat="47.698244" lon="7.929747">
        <ele>871.269791</ele>
        <time>2021-11-20T00:07:51.186Z</time>
      </trkpt>
      <trkpt lat="47.698267" lon="7.929569">
        <ele>871.606836</ele>
        <time>2021-11-20T00:07:54.698Z</time>
      </trkpt>
      <trkpt lat="47.698339" lon="7.929339">
        <ele>872.078533</ele>
        <time>2021-11-20T00:08:00.105Z</time>
      </trkpt>
      <trkpt lat="47.698695" lon="7.928282">
        <ele>877.556114</ele>
        <time>2021-11-20T00:08:32.708Z</time>
      </trkpt>
      <trkpt lat="47.698816" lon="7.927925">
        <ele>879.790641</ele>
        <time>2021-11-20T00:08:46.032Z</time>
      </trkpt>
      <trkpt lat="47.698890" lon="7.927724">
        <ele>881.071420</ele>
        <time>2021-11-20T00:08:54.028Z</time>
      </trkpt>
      <trkpt lat="47.698916" lon="7.927369">
        <ele>883.067691</ele>
        <time>2021-11-20T00:09:07.485Z</time>
      </trkpt>
      <trkpt lat="47.698865" lon="7.927181">
        <ele>884.200829</ele>
        <time>2021-11-20T00:09:14.723Z</time>
      </trkpt>
      <trkpt lat="47.698848" lon="7.927104">
        <ele>884.653850</ele>
        <time>2021-11-20T00:09:17.448Z</time>
      </trkpt>
      <trkpt lat="47.698822" lon="7.926986">
        <ele>885.347958</ele>
        <time>2021-11-20T00:09:22.651Z</time>
      </trkpt>
      <trkpt lat="47.698753" lon="7.926602">
        <ele>887.569827</ele>
        <time>2021-11-20T00:09:36.925Z</time>
      </trkpt>
      <trkpt lat="47.698745" lon="7.926084">
        <ele>890.391438</ele>
        <time>2021-11-20T00:09:55.908Z</time>
      </trkpt>
      <trkpt lat="47.698774" lon="7.925852">
        <ele>891.676304</ele>
        <time>2021-11-20T00:10:03.972Z</time>
      </trkpt>
      <trkpt lat="47.698781" lon="7.925802">
        <ele>891.954387</ele>
        <time>2021-11-20T00:10:06.433Z</time>
      </trkpt>
      <trkpt lat="47.698880" lon="7.925249">
        <ele>895.070227</ele>
        <time>2021-11-20T00:10:25.100Z</time>
      </trkpt>
      <trkpt lat="47.698959" lon="7.925050">
        <ele>896.328255</ele>
        <time>2021-11-20T00:10:32.578Z</time>
      </trkpt>
      <trkpt lat="47.699123" lon="7.924701">
        <ele>898.645955</ele>
        <time>2021-11-20T00:10:45.806Z</time>
      </trkpt>
      <trkpt lat="47.699230" lon="7.924465">
        <ele>900.195377</ele>
        <time>2021-11-20T00:10:53.700Z</time>
      </trkpt>
      <trkpt lat="47.699259" lon="7.924329">
        <ele>900.972183</ele>
        <time>2021-11-20T00:10:57.769Z</time>
      </trkpt>
      <trkpt lat="47.699270" lon="7.924283">
        <ele>901.237995</ele>
        <time>2021-11-20T00:10:59.120Z</time>
      </trkpt>
      <trkpt lat="47.699273" lon="7.924106">
        <ele>902.151348</ele>
        <time>2021-11-20T00:11:04.062Z</time>
      </trkpt>
      <trkpt lat="47.699226" lon="7.923813">
        <ele>902.578810</ele>
        <time>2021-11-20T00:11:11.977Z</time>
      </trkpt>
      <trkpt lat="47.699164" lon="7.923424">
        <ele>903.146135</ele>
        <time>2021-11-20T00:11:20.811Z</time>
      </trkpt>
      <trkpt lat="47.699152" lon="7.923280">
        <ele>903.352056</ele>
        <time>2021-11-20T00:11:22.889Z</time>
      </trkpt>
      <trkpt lat="47.699152" lon="7.922875">
        <ele>903.926818</ele>
        <time>2021-11-20T00:11:30.794Z</time>
      </trkpt>
      <trkpt lat="47.699181" lon="7.922716">
        <ele>904.160605</ele>
        <time>2021-11-20T00:11:32.847Z</time>
      </trkpt>
      <trkpt lat="47.699222" lon="7.922379">
        <ele>904.646615</ele>
        <time>2021-11-20T00:11:37.545Z</time>
      </trkpt>
      <trkpt lat="47.699237" lon="7.922228">
        <ele>904.863231</ele>
        <time>2021-11-20T00:11:38.873Z</time>
      </trkpt>
      <trkpt lat="47.699331" lon="7.921635">
        <ele>905.727822</ele>
        <time>2021-11-20T00:11:44.117Z</time>
      </trkpt>
      <trkpt lat="47.699366" lon="7.921414">
        <ele>905.845826</ele>
        <time>2021-11-20T00:11:45.864Z</time>
      </trkpt>
      <trkpt lat="47.699403" lon="7.921241">
        <ele>905.678729</ele>
        <time>2021-11-20T00:11:47.309Z</time>
      </trkpt>
      <trkpt lat="47.699458" lon="7.921083">
        <ele>905.514984</ele>
        <time>2021-11-20T00:11:48.601Z</time>
      </trkpt>
      <trkpt lat="47.699592" lon="7.920779">
        <ele>905.180470</ele>
        <time>2021-11-20T00:11:51.318Z</time>
      </trkpt>
      <trkpt lat="47.700066" lon="7.919608">
        <ele>903.922607</ele>
        <time>2021-11-20T00:12:01.476Z</time>
      </trkpt>
      <trkpt lat="47.700554" lon="7.918395">
        <ele>903.563250</ele>
        <time>2021-11-20T00:12:14.530Z</time>
      </trkpt>
      <trkpt lat="47.700654" lon="7.918246">
        <ele>903.585542</ele>
        <time>2021-11-20T00:12:17.054Z</time>
      </trkpt>
      <trkpt lat="47.700893" lon="7.918159">
        <ele>903.624275</ele>
        <time>2021-11-20T00:12:21.643Z</time>
      </trkpt>
      <trkpt lat="47.701291" lon="7.918208">
        <ele>903.687137</ele>
        <time>2021-11-20T00:12:29.319Z</time>
      </trkpt>
      <trkpt lat="47.701618" lon="7.918290">
        <ele>903.739337</ele>
        <time>2021-11-20T00:12:34.939Z</time>
      </trkpt>
      <trkpt lat="47.701664" lon="7.918301">
        <ele>903.746671</ele>
        <time>2021-11-20T00:12:35.638Z</time>
      </trkpt>
      <trkpt lat="47.701786" lon="7.918318">
        <ele>903.421073</ele>
        <time>2021-11-20T00:12:38.049Z</time>
      </trkpt>
      <trkpt lat="47.701983" lon="7.918332">
        <ele>902.813274</ele>
        <time>2021-11-20T00:12:40.708Z</time>
      </trkpt>
      <trkpt lat="47.702397" lon="7.918193">
        <ele>901.505266</ele>
        <time>2021-11-20T00:12:45.257Z</time>
      </trkpt>
      <trkpt lat="47.702537" lon="7.918130">
        <ele>901.054470</ele>
        <time>2021-11-20T00:12:46.666Z</time>
      </trkpt>
      <trkpt lat="47.702954" lon="7.917934">
        <ele>899.706623</ele>
        <time>2021-11-20T00:12:50.937Z</time>
      </trkpt>
      <trkpt lat="47.703049" lon="7.917827">
        <ele>899.339259</ele>
        <time>2021-11-20T00:12:52.227Z</time>
      </trkpt>
      <trkpt lat="47.703228" lon="7.917328">
        <ele>898.135909</ele>
        <time>2021-11-20T00:12:55.799Z</time>
      </trkpt>
      <trkpt lat="47.703255" lon="7.917193">
        <ele>897.618590</ele>
        <time>2021-11-20T00:12:56.649Z</time>
      </trkpt>
      <trkpt lat="47.703237" lon="7.917064">
        <ele>897.134667</ele>
        <time>2021-11-20T00:12:57.419Z</time>
      </trkpt>
      <trkpt lat="47.703130" lon="7.916857">
        <ele>896.175903</ele>
        <time>2021-11-20T00:12:59.139Z</time>
      </trkpt>
      <trkpt lat="47.702594" lon="7.916264">
        <ele>892.528462</ele>
        <time>2021-11-20T00:13:05.164Z</time>
      </trkpt>
      <trkpt lat="47.702450" lon="7.916011">
        <ele>891.311321</ele>
        <time>2021-11-20T00:13:07.156Z</time>
      </trkpt>
      <trkpt lat="47.702262" lon="7.915604">
        <ele>889.498019</ele>
        <time>2021-11-20T00:13:10.221Z</time>
      </trkpt>
      <trkpt lat="47.701857" lon="7.914279">
        <ele>887.496970</ele>
        <time>2021-11-20T00:13:20.759Z</time>
      </trkpt>
      <trkpt lat="47.701773" lon="7.914100">
        <ele>887.328212</ele>
        <time>2021-11-20T00:13:23.267Z</time>
      </trkpt>
      <trkpt lat="47.701483" lon="7.913787">
        <ele>886.916337</ele>
        <time>2021-11-20T00:13:28.424Z</time>
      </trkpt>
      <trkpt lat="47.701287" lon="7.913590">
        <ele>886.644424</ele>
        <time>2021-11-20T00:13:31.659Z</time>
      </trkpt>
      <trkpt lat="47.701208" lon="7.913462">
        <ele>886.510112</ele>
        <time>2021-11-20T00:13:34.537Z</time>
      </trkpt>
      <trkpt lat="47.701150" lon="7.913323">
        <ele>886.383632</ele>
        <time>2021-11-20T00:13:36.412Z</time>
      </trkpt>
      <trkpt lat="47.701112" lon="7.912983">
        <ele>886.399144</ele>
        <time>2021-11-20T00:13:39.931Z</time>
      </trkpt>
      <trkpt lat="47.701152" lon="7.912431">
        <ele>886.560714</ele>
        <time>2021-11-20T00:13:45.639Z</time>
      </trkpt>
      <trkpt lat="47.701251" lon="7.911964">
        <ele>886.703201</ele>
        <time>2021-11-20T00:13:50.956Z</time>
      </trkpt>
      <trkpt lat="47.701543" lon="7.911438">
        <ele>886.901631</ele>
        <time>2021-11-20T00:13:59.996Z</time>
      </trkpt>
      <trkpt lat="47.701574" lon="7.911301">
        <ele>886.943694</ele>
        <time>2021-11-20T00:14:02.016Z</time>
      </trkpt>
      <trkpt lat="47.701569" lon="7.911135">
        <ele>886.992050</ele>
        <time>2021-11-20T00:14:03.150Z</time>
      </trkpt>
      <trkpt lat="47.701470" lon="7.910874">
        <ele>887.079238</ele>
        <time>2021-11-20T00:14:07.825Z</time>
      </trkpt>
      <trkpt lat="47.701365" lon="7.910739">
        <ele>887.017438</ele>
        <time>2021-11-20T00:14:09.283Z</time>
      </trkpt>
      <trkpt lat="47.701327" lon="7.910683">
        <ele>886.969173</ele>
        <time>2021-11-20T00:14:10.464Z</time>
      </trkpt>
      <trkpt lat="47.701208" lon="7.910293">
        <ele>886.709285</ele>
        <time>2021-11-20T00:14:14.826Z</time>
      </trkpt>
      <trkpt lat="47.701245" lon="7.909865">
        <ele>886.447390</ele>
        <time>2021-11-20T00:14:20.434Z</time>
      </trkpt>
      <trkpt lat="47.701428" lon="7.909459">
        <ele>886.150823</ele>
        <time>2021-11-20T00:14:24.802Z</time>
      </trkpt>
      <trkpt lat="47.701676" lon="7.909064">
        <ele>885.822967</ele>
        <time>2021-11-20T00:14:28.695Z</time>
      </trkpt>
      <trkpt lat="47.701775" lon="7.908764">
        <ele>885.620183</ele>
        <time>2021-11-20T00:14:31.175Z</time>
      </trkpt>
      <trkpt lat="47.701744" lon="7.908593">
        <ele>885.512702</ele>
        <time>2021-11-20T00:14:32.620Z</time>
      </trkpt>
      <trkpt lat="47.701591" lon="7.908404">
        <ele>885.047570</ele>
        <time>2021-11-20T00:14:34.591Z</time>
      </trkpt>
      <trkpt lat="47.701209" lon="7.908216">
        <ele>883.967077</ele>
        <time>2021-11-20T00:14:38.774Z</time>
      </trkpt>
      <trkpt lat="47.701124" lon="7.908192">
        <ele>883.734762</ele>
        <time>2021-11-20T00:14:39.760Z</time>
      </trkpt>
      <trkpt lat="47.700845" lon="7.908113">
        <ele>882.972147</ele>
        <time>2021-11-20T00:14:42.702Z</time>
      </trkpt>
      <trkpt lat="47.700490" lon="7.908089">
        <ele>882.017962</ele>
        <time>2021-11-20T00:14:46.417Z</time>
      </trkpt>
      <trkpt lat="47.700348" lon="7.908021">
        <ele>881.617370</ele>
        <time>2021-11-20T00:14:48.070Z</time>
      </trkpt>
      <trkpt lat="47.700287" lon="7.907980">
        <ele>881.437603</ele>
        <time>2021-11-20T00:14:48.650Z</time>
      </trkpt>
      <trkpt lat="47.700198" lon="7.907826">
        <ele>881.070789</ele>
        <time>2021-11-20T00:14:50.351Z</time>
      </trkpt>
      <trkpt lat="47.700078" lon="7.907457">
        <ele>880.424701</ele>
        <time>2021-11-20T00:14:53.153Z</time>
      </trkpt>
      <trkpt lat="47.700079" lon="7.907155">
        <ele>880.041085</ele>
        <time>2021-11-20T00:14:55.295Z</time>
      </trkpt>
      <trkpt lat="47.700105" lon="7.907019">
        <ele>879.861499</ele>
        <time>2021-11-20T00:14:56.151Z</time>
      </trkpt>
      <trkpt lat="47.700132" lon="7.906936">
        <ele>879.744400</ele>
        <time>2021-11-20T00:14:56.961Z</time>
      </trkpt>
      <trkpt lat="47.700443" lon="7.906163">
        <ele>878.600441</ele>
        <time>2021-11-20T00:15:03.740Z</time>
      </trkpt>
      <trkpt lat="47.700618" lon="7.905495">
        <ele>877.689913</ele>
        <time>2021-11-20T00:15:09.655Z</time>
      </trkpt>
      <trkpt lat="47.700673" lon="7.904774">
        <ele>876.741257</ele>
        <time>2021-11-20T00:15:15.765Z</time>
      </trkpt>
      <trkpt lat="47.700593" lon="7.904109">
        <ele>875.835499</ele>
        <time>2021-11-20T00:15:20.934Z</time>
      </trkpt>
      <trkpt lat="47.700551" lon="7.903876">
        <ele>875.512083</ele>
        <time>2021-11-20T00:15:22.728Z</time>
      </trkpt>
      <trkpt lat="47.700441" lon="7.903664">
        <ele>875.153164</ele>
        <time>2021-11-20T00:15:24.693Z</time>
      </trkpt>
      <trkpt lat="47.700319" lon="7.903577">
        <ele>874.883567</ele>
        <time>2021-11-20T00:15:26.144Z</time>
      </trkpt>
      <trkpt lat="47.699833" lon="7.903482">
        <ele>873.906993</ele>
        <time>2021-11-20T00:15:31.253Z</time>
      </trkpt>
      <trkpt lat="47.699555" lon="7.903187">
        <ele>873.026243</ele>
        <time>2021-11-20T00:15:34.807Z</time>
      </trkpt>
      <trkpt lat="47.699443" lon="7.903009">
        <ele>872.552153</ele>
        <time>2021-11-20T00:15:36.482Z</time>
      </trkpt>
      <trkpt lat="47.699420" lon="7.902971">
        <ele>872.452721</ele>
        <time>2021-11-20T00:15:36.825Z</time>
      </trkpt>
      <trkpt lat="47.699294" lon="7.902729">
        <ele>871.857443</ele>
        <time>2021-11-20T00:15:39.034Z</time>
      </trkpt>
      <trkpt lat="47.699164" lon="7.902467">
        <ele>871.224142</ele>
        <time>2021-11-20T00:15:41.324Z</time>
      </trkpt>
      <trkpt lat="47.698984" lon="7.902071">
        <ele>870.294430</ele>
        <time>2021-11-20T00:15:44.726Z</time>
      </trkpt>
      <trkpt lat="47.698869" lon="7.901775">
        <ele>869.629466</ele>
        <time>2021-11-20T00:15:47.299Z</time>
      </trkpt>
      <trkpt lat="47.698757" lon="7.901247">
        <ele>868.552372</ele>
        <time>2021-11-20T00:15:51.144Z</time>
      </trkpt>
      <trkpt lat="47.698732" lon="7.900749">
        <ele>866.923146</ele>
        <time>2021-11-20T00:15:54.329Z</time>
      </trkpt>
      <trkpt lat="47.698782" lon="7.900218">
        <ele>865.109047</ele>
        <time>2021-11-20T00:15:57.729Z</time>
      </trkpt>
      <trkpt lat="47.698788" lon="7.900155">
        <ele>864.893768</ele>
        <time>2021-11-20T00:15:58.123Z</time>
      </trkpt>
      <trkpt lat="47.698741" lon="7.899854">
        <ele>863.848306</ele>
        <time>2021-11-20T00:16:00.011Z</time>
      </trkpt>
      <trkpt lat="47.698669" lon="7.899701">
        <ele>863.216650</ele>
        <time>2021-11-20T00:16:01.371Z</time>
      </trkpt>
      <trkpt lat="47.698531" lon="7.899556">
        <ele>862.366959</ele>
        <time>2021-11-20T00:16:02.863Z</time>
      </trkpt>
      <trkpt lat="47.698377" lon="7.899408">
        <ele>861.444944</ele>
        <time>2021-11-20T00:16:04.805Z</time>
      </trkpt>
      <trkpt lat="47.698286" lon="7.899318">
        <ele>860.895391</ele>
        <time>2021-11-20T00:16:05.795Z</time>
      </trkpt>
      <trkpt lat="47.698251" lon="7.899282">
        <ele>860.681393</ele>
        <time>2021-11-20T00:16:06.155Z</time>
      </trkpt>
      <trkpt lat="47.697846" lon="7.898880">
        <ele>858.184874</ele>
        <time>2021-11-20T00:16:10.730Z</time>
      </trkpt>
      <trkpt lat="47.697711" lon="7.898816">
        <ele>857.443911</ele>
        <time>2021-11-20T00:16:12.064Z</time>
      </trkpt>
      <trkpt lat="47.697150" lon="7.898946">
        <ele>854.475034</ele>
        <time>2021-11-20T00:16:17.202Z</time>
      </trkpt>
      <trkpt lat="47.696783" lon="7.898832">
        <ele>852.514537</ele>
        <time>2021-11-20T00:16:20.659Z</time>
      </trkpt>
      <trkpt lat="47.696519" lon="7.898548">
        <ele>850.810256</ele>
        <time>2021-11-20T00:16:23.889Z</time>
      </trkpt>
      <trkpt lat="47.696123" lon="7.897991">
        <ele>848.834116</ele>
        <time>2021-11-20T00:16:29.381Z</time>
      </trkpt>
      <trkpt lat="47.695747" lon="7.897704">
        <ele>847.560718</ele>
        <time>2021-11-20T00:16:33.811Z</time>
      </trkpt>
      <trkpt lat="47.695469" lon="7.897650">
        <ele>846.716142</ele>
        <time>2021-11-20T00:16:37.019Z</time>
      </trkpt>
      <trkpt lat="47.695175" lon="7.897869">
        <ele>845.725415</ele>
        <time>2021-11-20T00:16:40.560Z</time>
      </trkpt>
      <trkpt lat="47.695008" lon="7.897996">
        <ele>845.160270</ele>
        <time>2021-11-20T00:16:42.318Z</time>
      </trkpt>
      <trkpt lat="47.694969" lon="7.898015">
        <ele>845.036632</ele>
        <time>2021-11-20T00:16:42.780Z</time>
      </trkpt>
      <trkpt lat="47.694940" lon="7.898032">
        <ele>844.942718</ele>
        <time>2021-11-20T00:16:43.502Z</time>
      </trkpt>
      <trkpt lat="47.694316" lon="7.897878">
        <ele>841.837904</ele>
        <time>2021-11-20T00:16:49.622Z</time>
      </trkpt>
      <trkpt lat="47.694227" lon="7.897933">
        <ele>841.325458</ele>
        <time>2021-11-20T00:16:50.795Z</time>
      </trkpt>
      <trkpt lat="47.694145" lon="7.897983">
        <ele>840.854237</ele>
        <time>2021-11-20T00:16:51.663Z</time>
      </trkpt>
      <trkpt lat="47.694015" lon="7.898113">
        <ele>840.021152</ele>
        <time>2021-11-20T00:16:53.079Z</time>
      </trkpt>
      <trkpt lat="47.693999" lon="7.898129">
        <ele>839.918618</ele>
        <time>2021-11-20T00:16:53.269Z</time>
      </trkpt>
      <trkpt lat="47.693970" lon="7.898197">
        <ele>839.630562</ele>
        <time>2021-11-20T00:16:53.828Z</time>
      </trkpt>
      <trkpt lat="47.693913" lon="7.898348">
        <ele>839.011063</ele>
        <time>2021-11-20T00:16:55.057Z</time>
      </trkpt>
      <trkpt lat="47.693868" lon="7.898489">
        <ele>838.452675</ele>
        <time>2021-11-20T00:16:55.977Z</time>
      </trkpt>
      <trkpt lat="47.693630" lon="7.899148">
        <ele>835.776546</ele>
        <time>2021-11-20T00:17:00.485Z</time>
      </trkpt>
      <trkpt lat="47.693300" lon="7.899597">
        <ele>833.507166</ele>
        <time>2021-11-20T00:17:04.518Z</time>
      </trkpt>
      <trkpt lat="47.693193" lon="7.900217">
        <ele>831.369253</ele>
        <time>2021-11-20T00:17:08.341Z</time>
      </trkpt>
      <trkpt lat="47.693100" lon="7.900386">
        <ele>830.640115</ele>
        <time>2021-11-20T00:17:09.707Z</time>
      </trkpt>
      <trkpt lat="47.693054" lon="7.900440">
        <ele>830.349182</ele>
        <time>2021-11-20T00:17:10.206Z</time>
      </trkpt>
      <trkpt lat="47.693000" lon="7.900458">
        <ele>830.074550</ele>
        <time>2021-11-20T00:17:10.750Z</time>
      </trkpt>
      <trkpt lat="47.692937" lon="7.900460">
        <ele>829.761846</ele>
        <time>2021-11-20T00:17:11.393Z</time>
      </trkpt>
      <trkpt lat="47.692881" lon="7.900444">
        <ele>829.478858</ele>
        <time>2021-11-20T00:17:11.906Z</time>
      </trkpt>
      <trkpt lat="47.692762" lon="7.900344">
        <ele>828.800408</ele>
        <time>2021-11-20T00:17:13.396Z</time>
      </trkpt>
      <trkpt lat="47.692253" lon="7.899242">
        <ele>825.693374</ele>
        <time>2021-11-20T00:17:23.358Z</time>
      </trkpt>
      <trkpt lat="47.691921" lon="7.898770">
        <ele>825.150239</ele>
        <time>2021-11-20T00:17:28.444Z</time>
      </trkpt>
      <trkpt lat="47.691684" lon="7.898451">
        <ele>824.772245</ele>
        <time>2021-11-20T00:17:33.218Z</time>
      </trkpt>
      <trkpt lat="47.691618" lon="7.898284">
        <ele>824.618173</ele>
        <time>2021-11-20T00:17:35.043Z</time>
      </trkpt>
      <trkpt lat="47.691597" lon="7.898146">
        <ele>824.505610</ele>
        <time>2021-11-20T00:17:36.114Z</time>
      </trkpt>
      <trkpt lat="47.691597" lon="7.898017">
        <ele>824.402978</ele>
        <time>2021-11-20T00:17:37.984Z</time>
      </trkpt>
      <trkpt lat="47.691623" lon="7.897890">
        <ele>824.297368</ele>
        <time>2021-11-20T00:17:39.154Z</time>
      </trkpt>
      <trkpt lat="47.691690" lon="7.897591">
        <ele>824.046651</ele>
        <time>2021-11-20T00:17:41.693Z</time>
      </trkpt>
      <trkpt lat="47.691724" lon="7.897240">
        <ele>823.497658</ele>
        <time>2021-11-20T00:17:44.904Z</time>
      </trkpt>
      <trkpt lat="47.691721" lon="7.897132">
        <ele>823.310685</ele>
        <time>2021-11-20T00:17:45.649Z</time>
      </trkpt>
      <trkpt lat="47.691722" lon="7.896872">
        <ele>822.860939</ele>
        <time>2021-11-20T00:17:48.038Z</time>
      </trkpt>
      <trkpt lat="47.691726" lon="7.896750">
        <ele>822.649658</ele>
        <time>2021-11-20T00:17:48.909Z</time>
      </trkpt>
      <trkpt lat="47.691751" lon="7.896481">
        <ele>822.179938</ele>
        <time>2021-11-20T00:17:51.015Z</time>
      </trkpt>
      <trkpt lat="47.691908" lon="7.895902">
        <ele>821.100198</ele>
        <time>2021-11-20T00:17:55.386Z</time>
      </trkpt>
      <trkpt lat="47.692782" lon="7.894909">
        <ele>817.420887</ele>
        <time>2021-11-20T00:18:06.065Z</time>
      </trkpt>
      <trkpt lat="47.692919" lon="7.894668">
        <ele>816.451555</ele>
        <time>2021-11-20T00:18:08.224Z</time>
      </trkpt>
      <trkpt lat="47.693118" lon="7.893755">
        <ele>813.502601</ele>
        <time>2021-11-20T00:18:14.613Z</time>
      </trkpt>
      <trkpt lat="47.693532" lon="7.893064">
        <ele>810.322738</ele>
        <time>2021-11-20T00:18:20.332Z</time>
      </trkpt>
      <trkpt lat="47.694225" lon="7.892203">
        <ele>803.408977</ele>
        <time>2021-11-20T00:18:28.435Z</time>
      </trkpt>
      <trkpt lat="47.694279" lon="7.892107">
        <ele>802.764507</ele>
        <time>2021-11-20T00:18:29.155Z</time>
      </trkpt>
      <trkpt lat="47.694290" lon="7.891921">
        <ele>801.802685</ele>
        <time>2021-11-20T00:18:30.310Z</time>
      </trkpt>
      <trkpt lat="47.694262" lon="7.891761">
        <ele>800.951085</ele>
        <time>2021-11-20T00:18:31.278Z</time>
      </trkpt>
      <trkpt lat="47.694140" lon="7.891577">
        <ele>799.620615</ele>
        <time>2021-11-20T00:18:32.801Z</time>
      </trkpt>
      <trkpt lat="47.694034" lon="7.891576">
        <ele>798.809363</ele>
        <time>2021-11-20T00:18:33.739Z</time>
      </trkpt>
      <trkpt lat="47.692904" lon="7.892107">
        <ele>788.368381</ele>
        <time>2021-11-20T00:18:43.977Z</time>
      </trkpt>
      <trkpt lat="47.692353" lon="7.892297">
        <ele>783.264198</ele>
        <time>2021-11-20T00:18:48.953Z</time>
      </trkpt>
      <trkpt lat="47.691492" lon="7.892366">
        <ele>775.653497</ele>
        <time>2021-11-20T00:18:56.504Z</time>
      </trkpt>
      <trkpt lat="47.691051" lon="7.892747">
        <ele>771.187834</ele>
        <time>2021-11-20T00:19:00.938Z</time>
      </trkpt>
      <trkpt lat="47.690917" lon="7.892704">
        <ele>769.987795</ele>
        <time>2021-11-20T00:19:02.139Z</time>
      </trkpt>
      <trkpt lat="47.690608" lon="7.892197">
        <ele>765.957784</ele>
        <time>2021-11-20T00:19:06.154Z</time>
      </trkpt>
      <trkpt lat="47.690297" lon="7.891805">
        <ele>762.374053</ele>
        <time>2021-11-20T00:19:09.733Z</time>
      </trkpt>
      <trkpt lat="47.690099" lon="7.891681">
        <ele>760.484744</ele>
        <time>2021-11-20T00:19:11.627Z</time>
      </trkpt>
      <trkpt lat="47.690027" lon="7.891702">
        <ele>759.839590</ele>
        <time>2021-11-20T00:19:12.267Z</time>
      </trkpt>
      <trkpt lat="47.689506" lon="7.892378">
        <ele>753.757369</ele>
        <time>2021-11-20T00:19:18.236Z</time>
      </trkpt>
      <trkpt lat="47.688873" lon="7.892635">
        <ele>748.420449</ele>
        <time>2021-11-20T00:19:24.008Z</time>
      </trkpt>
      <trkpt lat="47.688833" lon="7.892652">
        <ele>748.152637</ele>
        <time>2021-11-20T00:19:24.365Z</time>
      </trkpt>
      <trkpt lat="47.688568" lon="7.892760">
        <ele>746.383791</ele>
        <time>2021-11-20T00:19:26.858Z</time>
      </trkpt>
      <trkpt lat="47.688357" lon="7.892761">
        <ele>745.025568</ele>
        <time>2021-11-20T00:19:28.742Z</time>
      </trkpt>
      <trkpt lat="47.688208" lon="7.892651">
        <ele>743.954538</ele>
        <time>2021-11-20T00:19:30.287Z</time>
      </trkpt>
      <trkpt lat="47.688116" lon="7.892510">
        <ele>743.103652</ele>
        <time>2021-11-20T00:19:31.431Z</time>
      </trkpt>
      <trkpt lat="47.688096" lon="7.892452">
        <ele>742.821271</ele>
        <time>2021-11-20T00:19:32.033Z</time>
      </trkpt>
      <trkpt lat="47.688048" lon="7.892315">
        <ele>742.152028</ele>
        <time>2021-11-20T00:19:33.085Z</time>
      </trkpt>
      <trkpt lat="47.687902" lon="7.892172">
        <ele>741.026326</ele>
        <time>2021-11-20T00:19:34.619Z</time>
      </trkpt>
      <trkpt lat="47.687743" lon="7.892199">
        <ele>739.996171</ele>
        <time>2021-11-20T00:19:36.208Z</time>
      </trkpt>
      <trkpt lat="47.687578" lon="7.892429">
        <ele>738.539675</ele>
        <time>2021-11-20T00:19:38.221Z</time>
      </trkpt>
      <trkpt lat="47.687385" lon="7.892521">
        <ele>737.646462</ele>
        <time>2021-11-20T00:19:40.281Z</time>
      </trkpt>
      <trkpt lat="47.687003" lon="7.892207">
        <ele>736.298984</ele>
        <time>2021-11-20T00:19:44.490Z</time>
      </trkpt>
      <trkpt lat="47.686260" lon="7.892416">
        <ele>733.965021</ele>
        <time>2021-11-20T00:19:52.580Z</time>
      </trkpt>
      <trkpt lat="47.685848" lon="7.892322">
        <ele>732.678504</ele>
        <time>2021-11-20T00:19:57.191Z</time>
      </trkpt>
      <trkpt lat="47.685748" lon="7.892409">
        <ele>732.298180</ele>
        <time>2021-11-20T00:19:58.435Z</time>
      </trkpt>
      <trkpt lat="47.685624" lon="7.892758">
        <ele>731.357174</ele>
        <time>2021-11-20T00:20:01.235Z</time>
      </trkpt>
      <trkpt lat="47.685429" lon="7.892972">
        <ele>730.498401</ele>
        <time>2021-11-20T00:20:03.794Z</time>
      </trkpt>
      <trkpt lat="47.685093" lon="7.893101">
        <ele>729.269134</ele>
        <time>2021-11-20T00:20:07.436Z</time>
      </trkpt>
      <trkpt lat="47.684774" lon="7.893352">
        <ele>727.990461</ele>
        <time>2021-11-20T00:20:11.147Z</time>
      </trkpt>
      <trkpt lat="47.684473" lon="7.893221">
        <ele>726.879458</ele>
        <time>2021-11-20T00:20:14.248Z</time>
      </trkpt>
      <trkpt lat="47.684359" lon="7.893237">
        <ele>726.473856</ele>
        <time>2021-11-20T00:20:15.327Z</time>
      </trkpt>
      <trkpt lat="47.683949" lon="7.893550">
        <ele>721.975207</ele>
        <time>2021-11-20T00:20:19.519Z</time>
      </trkpt>
      <trkpt lat="47.683863" lon="7.893882">
        <ele>719.200816</ele>
        <time>2021-11-20T00:20:21.613Z</time>
      </trkpt>
      <trkpt lat="47.684065" lon="7.894653">
        <ele>712.748338</ele>
        <time>2021-11-20T00:20:26.360Z</time>
      </trkpt>
      <trkpt lat="47.684086" lon="7.894917">
        <ele>710.675037</ele>
        <time>2021-11-20T00:20:27.869Z</time>
      </trkpt>
      <trkpt lat="47.683916" lon="7.895292">
        <ele>707.149066</ele>
        <time>2021-11-20T00:20:30.360Z</time>
      </trkpt>
      <trkpt lat="47.683794" lon="7.895850">
        <ele>701.775366</ele>
        <time>2021-11-20T00:20:33.617Z</time>
      </trkpt>
      <trkpt lat="47.683475" lon="7.896682">
        <ele>692.094786</ele>
        <time>2021-11-20T00:20:38.918Z</time>
      </trkpt>
      <trkpt lat="47.683433" lon="7.896934">
        <ele>689.469993</ele>
        <time>2021-11-20T00:20:40.407Z</time>
      </trkpt>
      <trkpt lat="47.683433" lon="7.897166">
        <ele>687.124327</ele>
        <time>2021-11-20T00:20:41.686Z</time>
      </trkpt>
      <trkpt lat="47.683433" lon="7.897197">
        <ele>686.810898</ele>
        <time>2021-11-20T00:20:41.857Z</time>
      </trkpt>
      <trkpt lat="47.683428" lon="7.897416">
        <ele>684.595397</ele>
        <time>2021-11-20T00:20:43.135Z</time>
      </trkpt>
      <trkpt lat="47.683352" lon="7.897601">
        <ele>682.404187</ele>
        <time>2021-11-20T00:20:44.345Z</time>
      </trkpt>
      <trkpt lat="47.683242" lon="7.897652">
        <ele>680.673584</ele>
        <time>2021-11-20T00:20:45.301Z</time>
      </trkpt>
      <trkpt lat="47.683148" lon="7.897566">
        <ele>679.015579</ele>
        <time>2021-11-20T00:20:46.287Z</time>
      </trkpt>
      <trkpt lat="47.683079" lon="7.896965">
        <ele>676.269257</ele>
        <time>2021-11-20T00:20:49.805Z</time>
      </trkpt>
      <trkpt lat="47.683016" lon="7.896836">
        <ele>675.677372</ele>
        <time>2021-11-20T00:20:50.709Z</time>
      </trkpt>
      <trkpt lat="47.682364" lon="7.896375">
        <ele>671.693815</ele>
        <time>2021-11-20T00:20:57.513Z</time>
      </trkpt>
      <trkpt lat="47.682256" lon="7.896126">
        <ele>670.593719</ele>
        <time>2021-11-20T00:21:00.115Z</time>
      </trkpt>
      <trkpt lat="47.682205" lon="7.895128">
        <ele>667.401000</ele>
        <time>2021-11-20T00:21:08.694Z</time>
      </trkpt>
      <trkpt lat="47.682155" lon="7.894972">
        <ele>666.990670</ele>
        <time>2021-11-20T00:21:09.988Z</time>
      </trkpt>
      <trkpt lat="47.681978" lon="7.894814">
        <ele>666.262209</ele>
        <time>2021-11-20T00:21:12.277Z</time>
      </trkpt>
      <trkpt lat="47.681378" lon="7.894618">
        <ele>664.095078</ele>
        <time>2021-11-20T00:21:18.597Z</time>
      </trkpt>
      <trkpt lat="47.681135" lon="7.894173">
        <ele>662.734291</ele>
        <time>2021-11-20T00:21:22.286Z</time>
      </trkpt>
      <trkpt lat="47.681069" lon="7.894133">
        <ele>662.482835</ele>
        <time>2021-11-20T00:21:22.943Z</time>
      </trkpt>
      <trkpt lat="47.680943" lon="7.894141">
        <ele>662.037954</ele>
        <time>2021-11-20T00:21:24.090Z</time>
      </trkpt>
      <trkpt lat="47.680712" lon="7.894422">
        <ele>659.439633</ele>
        <time>2021-11-20T00:21:26.753Z</time>
      </trkpt>
      <trkpt lat="47.680371" lon="7.894492">
        <ele>656.352345</ele>
        <time>2021-11-20T00:21:29.749Z</time>
      </trkpt>
      <trkpt lat="47.679704" lon="7.894972">
        <ele>649.705280</ele>
        <time>2021-11-20T00:21:36.119Z</time>
      </trkpt>
      <trkpt lat="47.679592" lon="7.894956">
        <ele>648.696186</ele>
        <time>2021-11-20T00:21:37.070Z</time>
      </trkpt>
      <trkpt lat="47.678920" lon="7.894559">
        <ele>643.111282</ele>
        <time>2021-11-20T00:21:43.337Z</time>
      </trkpt>
      <trkpt lat="47.678402" lon="7.894711">
        <ele>639.546430</ele>
        <time>2021-11-20T00:21:48.030Z</time>
      </trkpt>
      <trkpt lat="47.678362" lon="7.894723">
        <ele>639.270918</ele>
        <time>2021-11-20T00:21:48.408Z</time>
      </trkpt>
      <trkpt lat="47.678178" lon="7.894776">
        <ele>638.005504</ele>
        <time>2021-11-20T00:21:50.069Z</time>
      </trkpt>
      <trkpt lat="47.677727" lon="7.894733">
        <ele>634.954332</ele>
        <time>2021-11-20T00:21:54.369Z</time>
      </trkpt>
      <trkpt lat="47.677638" lon="7.894605">
        <ele>634.117903</ele>
        <time>2021-11-20T00:21:55.662Z</time>
      </trkpt>
      <trkpt lat="47.677554" lon="7.894202">
        <ele>632.444041</ele>
        <time>2021-11-20T00:21:58.831Z</time>
      </trkpt>
      <trkpt lat="47.677459" lon="7.894071">
        <ele>631.709998</ele>
        <time>2021-11-20T00:22:00.403Z</time>
      </trkpt>
      <trkpt lat="47.677149" lon="7.893974">
        <ele>629.916099</ele>
        <time>2021-11-20T00:22:03.322Z</time>
      </trkpt>
      <trkpt lat="47.676681" lon="7.893673">
        <ele>627.028252</ele>
        <time>2021-11-20T00:22:08.134Z</time>
      </trkpt>
      <trkpt lat="47.676330" lon="7.893768">
        <ele>625.007992</ele>
        <time>2021-11-20T00:22:11.349Z</time>
      </trkpt>
      <trkpt lat="47.676121" lon="7.894044">
        <ele>623.374358</ele>
        <time>2021-11-20T00:22:13.813Z</time>
      </trkpt>
      <trkpt lat="47.676071" lon="7.894188">
        <ele>622.456496</ele>
        <time>2021-11-20T00:22:14.794Z</time>
      </trkpt>
      <trkpt lat="47.675990" lon="7.894385">
        <ele>621.148835</ele>
        <time>2021-11-20T00:22:16.111Z</time>
      </trkpt>
      <trkpt lat="47.675704" lon="7.894768">
        <ele>617.908743</ele>
        <time>2021-11-20T00:22:19.473Z</time>
      </trkpt>
      <trkpt lat="47.675463" lon="7.894884">
        <ele>615.777209</ele>
        <time>2021-11-20T00:22:21.674Z</time>
      </trkpt>
      <trkpt lat="47.675223" lon="7.894888">
        <ele>613.757794</ele>
        <time>2021-11-20T00:22:23.755Z</time>
      </trkpt>
      <trkpt lat="47.674107" lon="7.894609">
        <ele>606.887972</ele>
        <time>2021-11-20T00:22:33.747Z</time>
      </trkpt>
      <trkpt lat="47.673727" lon="7.894339">
        <ele>605.604218</ele>
        <time>2021-11-20T00:22:38.107Z</time>
      </trkpt>
      <trkpt lat="47.673635" lon="7.894176">
        <ele>605.167775</ele>
        <time>2021-11-20T00:22:39.540Z</time>
      </trkpt>
      <trkpt lat="47.673604" lon="7.894092">
        <ele>604.971213</ele>
        <time>2021-11-20T00:22:41.516Z</time>
      </trkpt>
      <trkpt lat="47.673537" lon="7.893661">
        <ele>604.063526</ele>
        <time>2021-11-20T00:22:44.902Z</time>
      </trkpt>
      <trkpt lat="47.673625" lon="7.893258">
        <ele>603.194161</ele>
        <time>2021-11-20T00:22:50.189Z</time>
      </trkpt>
      <trkpt lat="47.674782" lon="7.891447">
        <ele>603.648388</ele>
        <time>2021-11-20T00:23:24.457Z</time>
      </trkpt>
      <trkpt lat="47.675215" lon="7.890749">
        <ele>601.372921</ele>
        <time>2021-11-20T00:23:31.476Z</time>
      </trkpt>
      <trkpt lat="47.675245" lon="7.890678">
        <ele>601.060770</ele>
        <time>2021-11-20T00:23:31.962Z</time>
      </trkpt>
      <trkpt lat="47.675251" lon="7.890415">
        <ele>600.080800</ele>
        <time>2021-11-20T00:23:33.634Z</time>
      </trkpt>
      <trkpt lat="47.675155" lon="7.890206">
        <ele>599.138636</ele>
        <time>2021-11-20T00:23:35.217Z</time>
      </trkpt>
      <trkpt lat="47.675009" lon="7.890144">
        <ele>598.298795</ele>
        <time>2021-11-20T00:23:36.581Z</time>
      </trkpt>
      <trkpt lat="47.674908" lon="7.890178">
        <ele>597.726026</ele>
        <time>2021-11-20T00:23:37.638Z</time>
      </trkpt>
      <trkpt lat="47.674709" lon="7.890290">
        <ele>596.549041</ele>
        <time>2021-11-20T00:23:39.503Z</time>
      </trkpt>
      <trkpt lat="47.674471" lon="7.890481">
        <ele>595.052851</ele>
        <time>2021-11-20T00:23:41.906Z</time>
      </trkpt>
      <trkpt lat="47.674236" lon="7.890668">
        <ele>593.457628</ele>
        <time>2021-11-20T00:23:44.294Z</time>
      </trkpt>
      <trkpt lat="47.674156" lon="7.890736">
        <ele>592.667629</ele>
        <time>2021-11-20T00:23:45.074Z</time>
      </trkpt>
      <trkpt lat="47.674041" lon="7.890821">
        <ele>591.566702</ele>
        <time>2021-11-20T00:23:46.181Z</time>
      </trkpt>
      <trkpt lat="47.673804" lon="7.890907">
        <ele>589.475738</ele>
        <time>2021-11-20T00:23:48.323Z</time>
      </trkpt>
      <trkpt lat="47.673525" lon="7.890900">
        <ele>587.084225</ele>
        <time>2021-11-20T00:23:50.770Z</time>
      </trkpt>
      <trkpt lat="47.672857" lon="7.890811">
        <ele>581.336134</ele>
        <time>2021-11-20T00:23:56.619Z</time>
      </trkpt>
      <trkpt lat="47.672648" lon="7.890724">
        <ele>579.475861</ele>
        <time>2021-11-20T00:23:58.505Z</time>
      </trkpt>
      <trkpt lat="47.672497" lon="7.890528">
        <ele>577.796452</ele>
        <time>2021-11-20T00:24:00.301Z</time>
      </trkpt>
      <trkpt lat="47.671635" lon="7.888951">
        <ele>566.812411</ele>
        <time>2021-11-20T00:24:12.405Z</time>
      </trkpt>
      <trkpt lat="47.671576" lon="7.888763">
        <ele>565.690754</ele>
        <time>2021-11-20T00:24:13.650Z</time>
      </trkpt>
      <trkpt lat="47.671514" lon="7.888569">
        <ele>564.529481</ele>
        <time>2021-11-20T00:24:14.917Z</time>
      </trkpt>
      <trkpt lat="47.670667" lon="7.887599">
        <ele>555.618050</ele>
        <time>2021-11-20T00:24:24.307Z</time>
      </trkpt>
      <trkpt lat="47.670488" lon="7.887497">
        <ele>554.016423</ele>
        <time>2021-11-20T00:24:25.992Z</time>
      </trkpt>
      <trkpt lat="47.670288" lon="7.887483">
        <ele>552.343821</ele>
        <time>2021-11-20T00:24:27.725Z</time>
      </trkpt>
      <trkpt lat="47.670192" lon="7.887398">
        <ele>551.410134</ele>
        <time>2021-11-20T00:24:28.710Z</time>
      </trkpt>
      <trkpt lat="47.670075" lon="7.886999">
        <ele>548.962032</ele>
        <time>2021-11-20T00:24:31.299Z</time>
      </trkpt>
      <trkpt lat="47.669951" lon="7.886802">
        <ele>547.693824</ele>
        <time>2021-11-20T00:24:32.897Z</time>
      </trkpt>
      <trkpt lat="47.669541" lon="7.886582">
        <ele>544.669299</ele>
        <time>2021-11-20T00:24:36.756Z</time>
      </trkpt>
      <trkpt lat="47.668960" lon="7.886016">
        <ele>539.848431</ele>
        <time>2021-11-20T00:24:42.968Z</time>
      </trkpt>
      <trkpt lat="47.668622" lon="7.885813">
        <ele>537.318901</ele>
        <time>2021-11-20T00:24:46.313Z</time>
      </trkpt>
      <trkpt lat="47.668255" lon="7.885409">
        <ele>535.520519</ele>
        <time>2021-11-20T00:24:50.636Z</time>
      </trkpt>
      <trkpt lat="47.667878" lon="7.885334">
        <ele>534.465419</ele>
        <time>2021-11-20T00:24:54.387Z</time>
      </trkpt>
      <trkpt lat="47.667768" lon="7.885265">
        <ele>534.134184</ele>
        <time>2021-11-20T00:24:55.619Z</time>
      </trkpt>
      <trkpt lat="47.667632" lon="7.885067">
        <ele>533.605867</ele>
        <time>2021-11-20T00:24:57.611Z</time>
      </trkpt>
      <trkpt lat="47.667555" lon="7.884878">
        <ele>533.193230</ele>
        <time>2021-11-20T00:24:59.254Z</time>
      </trkpt>
      <trkpt lat="47.667435" lon="7.884118">
        <ele>531.735029</ele>
        <time>2021-11-20T00:25:05.514Z</time>
      </trkpt>
      <trkpt lat="47.667179" lon="7.883237">
        <ele>531.261532</ele>
        <time>2021-11-20T00:25:14.382Z</time>
      </trkpt>
      <trkpt lat="47.667040" lon="7.882492">
        <ele>531.085447</ele>
        <time>2021-11-20T00:25:22.190Z</time>
      </trkpt>
      <trkpt lat="47.667087" lon="7.881969">
        <ele>530.965264</ele>
        <time>2021-11-20T00:25:27.273Z</time>
      </trkpt>
      <trkpt lat="47.667448" lon="7.880196">
        <ele>530.246007</ele>
        <time>2021-11-20T00:25:44.181Z</time>
      </trkpt>
      <trkpt lat="47.667461" lon="7.880098">
        <ele>530.200164</ele>
        <time>2021-11-20T00:25:44.973Z</time>
      </trkpt>
      <trkpt lat="47.667457" lon="7.880001">
        <ele>530.155562</ele>
        <time>2021-11-20T00:25:45.847Z</time>
      </trkpt>
      <trkpt lat="47.667446" lon="7.879912">
        <ele>530.114032</ele>
        <time>2021-11-20T00:25:46.578Z</time>
      </trkpt>
      <trkpt lat="47.667333" lon="7.879752">
        <ele>530.007620</ele>
        <time>2021-11-20T00:25:48.555Z</time>
      </trkpt>
      <trkpt lat="47.667219" lon="7.879671">
        <ele>529.921489</ele>
        <time>2021-11-20T00:25:50.106Z</time>
      </trkpt>
      <trkpt lat="47.667113" lon="7.879712">
        <ele>529.846837</ele>
        <time>2021-11-20T00:25:51.396Z</time>
      </trkpt>
      <trkpt lat="47.666773" lon="7.879844">
        <ele>529.602443</ele>
        <time>2021-11-20T00:25:55.730Z</time>
      </trkpt>
      <trkpt lat="47.666529" lon="7.879633">
        <ele>529.114069</ele>
        <time>2021-11-20T00:25:59.189Z</time>
      </trkpt>
      <trkpt lat="47.666343" lon="7.879182">
        <ele>528.498063</ele>
        <time>2021-11-20T00:26:03.418Z</time>
      </trkpt>
      <trkpt lat="47.666077" lon="7.879049">
        <ele>528.012603</ele>
        <time>2021-11-20T00:26:06.686Z</time>
      </trkpt>
      <trkpt lat="47.665717" lon="7.878973">
        <ele>527.383681</ele>
        <time>2021-11-20T00:26:10.744Z</time>
      </trkpt>
      <trkpt lat="47.665474" lon="7.878934">
        <ele>526.960937</ele>
        <time>2021-11-20T00:26:13.436Z</time>
      </trkpt>
      <trkpt lat="47.665177" lon="7.878293">
        <ele>525.414128</ele>
        <time>2021-11-20T00:26:18.936Z</time>
      </trkpt>
      <trkpt lat="47.664810" lon="7.878152">
        <ele>523.814513</ele>
        <time>2021-11-20T00:26:22.726Z</time>
      </trkpt>
      <trkpt lat="47.664577" lon="7.877659">
        <ele>522.102940</ele>
        <time>2021-11-20T00:26:26.650Z</time>
      </trkpt>
      <trkpt lat="47.664394" lon="7.877271">
        <ele>520.756807</ele>
        <time>2021-11-20T00:26:29.675Z</time>
      </trkpt>
      <trkpt lat="47.664340" lon="7.876839">
        <ele>519.508170</ele>
        <time>2021-11-20T00:26:32.392Z</time>
      </trkpt>
      <trkpt lat="47.664368" lon="7.876514">
        <ele>518.551735</ele>
        <time>2021-11-20T00:26:34.446Z</time>
      </trkpt>
      <trkpt lat="47.664567" lon="7.876066">
        <ele>516.910615</ele>
        <time>2021-11-20T00:26:37.790Z</time>
      </trkpt>
      <trkpt lat="47.664636" lon="7.875782">
        <ele>515.987370</ele>
        <time>2021-11-20T00:26:39.650Z</time>
      </trkpt>
      <trkpt lat="47.664573" lon="7.875381">
        <ele>514.728205</ele>
        <time>2021-11-20T00:26:42.287Z</time>
      </trkpt>
      <trkpt lat="47.664355" lon="7.875148">
        <ele>513.508585</ele>
        <time>2021-11-20T00:26:44.898Z</time>
      </trkpt>
      <trkpt lat="47.664237" lon="7.875062">
        <ele>512.911731</ele>
        <time>2021-11-20T00:26:46.112Z</time>
      </trkpt>
      <trkpt lat="47.664191" lon="7.875019">
        <ele>512.664919</ele>
        <time>2021-11-20T00:26:46.633Z</time>
      </trkpt>
      <trkpt lat="47.664085" lon="7.874833">
        <ele>511.919821</ele>
        <time>2021-11-20T00:26:48.352Z</time>
      </trkpt>
      <trkpt lat="47.663999" lon="7.874505">
        <ele>510.843468</ele>
        <time>2021-11-20T00:26:50.661Z</time>
      </trkpt>
      <trkpt lat="47.664019" lon="7.873861">
        <ele>510.127056</ele>
        <time>2021-11-20T00:26:55.305Z</time>
      </trkpt>
      <trkpt lat="47.663924" lon="7.872838">
        <ele>509.087494</ele>
        <time>2021-11-20T00:27:03.241Z</time>
      </trkpt>
      <trkpt lat="47.664011" lon="7.872518">
        <ele>508.740104</ele>
        <time>2021-11-20T00:27:06.684Z</time>
      </trkpt>
      <trkpt lat="47.664406" lon="7.872035">
        <ele>507.975167</ele>
        <time>2021-11-20T00:27:13.796Z</time>
      </trkpt>
      <trkpt lat="47.664519" lon="7.871876">
        <ele>507.742224</ele>
        <time>2021-11-20T00:27:15.828Z</time>
      </trkpt>
      <trkpt lat="47.664596" lon="7.871769">
        <ele>507.584421</ele>
        <time>2021-11-20T00:27:17.211Z</time>
      </trkpt>
      <trkpt lat="47.664782" lon="7.871262">
        <ele>507.002618</ele>
        <time>2021-11-20T00:27:22.040Z</time>
      </trkpt>
      <trkpt lat="47.664834" lon="7.871018">
        <ele>506.744716</ele>
        <time>2021-11-20T00:27:24.087Z</time>
      </trkpt>
      <trkpt lat="47.664859" lon="7.870699">
        <ele>506.421084</ele>
        <time>2021-11-20T00:27:26.676Z</time>
      </trkpt>
      <trkpt lat="47.664866" lon="7.870622">
        <ele>506.342785</ele>
        <time>2021-11-20T00:27:27.295Z</time>
      </trkpt>
      <trkpt lat="47.664905" lon="7.870231">
        <ele>505.944468</ele>
        <time>2021-11-20T00:27:30.109Z</time>
      </trkpt>
      <trkpt lat="47.665036" lon="7.869565">
        <ele>505.123428</ele>
        <time>2021-11-20T00:27:35.089Z</time>
      </trkpt>
      <trkpt lat="47.665035" lon="7.869390">
        <ele>504.764681</ele>
        <time>2021-11-20T00:27:36.322Z</time>
      </trkpt>
      <trkpt lat="47.664961" lon="7.869182">
        <ele>504.282463</ele>
        <time>2021-11-20T00:27:37.915Z</time>
      </trkpt>
      <trkpt lat="47.664909" lon="7.869051">
        <ele>503.970750</ele>
        <time>2021-11-20T00:27:38.988Z</time>
      </trkpt>
      <trkpt lat="47.664884" lon="7.868857">
        <ele>503.565853</ele>
        <time>2021-11-20T00:27:40.358Z</time>
      </trkpt>
      <trkpt lat="47.664873" lon="7.868769">
        <ele>503.382380</ele>
        <time>2021-11-20T00:27:40.932Z</time>
      </trkpt>
      <trkpt lat="47.664903" lon="7.868588">
        <ele>503.000274</ele>
        <time>2021-11-20T00:27:42.212Z</time>
      </trkpt>
      <trkpt lat="47.664934" lon="7.868452">
        <ele>502.705951</ele>
        <time>2021-11-20T00:27:43.173Z</time>
      </trkpt>
      <trkpt lat="47.664936" lon="7.868313">
        <ele>502.420949</ele>
        <time>2021-11-20T00:27:44.142Z</time>
      </trkpt>
      <trkpt lat="47.664918" lon="7.868221">
        <ele>502.224560</ele>
        <time>2021-11-20T00:27:44.745Z</time>
      </trkpt>
      <trkpt lat="47.664596" lon="7.867700">
        <ele>500.774990</ele>
        <time>2021-11-20T00:27:49.589Z</time>
      </trkpt>
      <trkpt lat="47.664003" lon="7.866254">
        <ele>497.539771</ele>
        <time>2021-11-20T00:28:01.344Z</time>
      </trkpt>
      <trkpt lat="47.663923" lon="7.866058">
        <ele>497.112736</ele>
        <time>2021-11-20T00:28:02.917Z</time>
      </trkpt>
      <trkpt lat="47.663892" lon="7.865949">
        <ele>496.892272</ele>
        <time>2021-11-20T00:28:03.761Z</time>
      </trkpt>
      <trkpt lat="47.663839" lon="7.865713">
        <ele>496.428736</ele>
        <time>2021-11-20T00:28:05.543Z</time>
      </trkpt>
      <trkpt lat="47.663827" lon="7.865633">
        <ele>496.276021</ele>
        <time>2021-11-20T00:28:06.129Z</time>
      </trkpt>
      <trkpt lat="47.663827" lon="7.865552">
        <ele>496.125096</ele>
        <time>2021-11-20T00:28:06.661Z</time>
      </trkpt>
      <trkpt lat="47.664002" lon="7.864318">
        <ele>493.891007</ele>
        <time>2021-11-20T00:28:15.705Z</time>
      </trkpt>
      <trkpt lat="47.664021" lon="7.864190">
        <ele>493.671622</ele>
        <time>2021-11-20T00:28:16.624Z</time>
      </trkpt>
      <trkpt lat="47.664000" lon="7.863904">
        <ele>493.190087</ele>
        <time>2021-11-20T00:28:18.617Z</time>
      </trkpt>
      <trkpt lat="47.663792" lon="7.863141">
        <ele>491.812343</ele>
        <time>2021-11-20T00:28:24.611Z</time>
      </trkpt>
      <trkpt lat="47.663642" lon="7.862822">
        <ele>491.161145</ele>
        <time>2021-11-20T00:28:27.357Z</time>
      </trkpt>
      <trkpt lat="47.663518" lon="7.862682">
        <ele>490.774000</ele>
        <time>2021-11-20T00:28:29.019Z</time>
      </trkpt>
      <trkpt lat="47.663351" lon="7.862622">
        <ele>490.326835</ele>
        <time>2021-11-20T00:28:30.800Z</time>
      </trkpt>
      <trkpt lat="47.662974" lon="7.862586">
        <ele>489.188987</ele>
        <time>2021-11-20T00:28:34.691Z</time>
      </trkpt>
      <trkpt lat="47.662849" lon="7.862528">
        <ele>488.794539</ele>
        <time>2021-11-20T00:28:36.154Z</time>
      </trkpt>
      <trkpt lat="47.662642" lon="7.862380">
        <ele>488.102549</ele>
        <time>2021-11-20T00:28:38.533Z</time>
      </trkpt>
      <trkpt lat="47.662548" lon="7.862218">
        <ele>487.668785</ele>
        <time>2021-11-20T00:28:40.083Z</time>
      </trkpt>
      <trkpt lat="47.662380" lon="7.861444">
        <ele>486.019176</ele>
        <time>2021-11-20T00:28:45.648Z</time>
      </trkpt>
      <trkpt lat="47.662419" lon="7.860491">
        <ele>483.883706</ele>
        <time>2021-11-20T00:28:52.028Z</time>
      </trkpt>
      <trkpt lat="47.662565" lon="7.859546">
        <ele>481.502178</ele>
        <time>2021-11-20T00:28:58.347Z</time>
      </trkpt>
      <trkpt lat="47.662575" lon="7.859180">
        <ele>480.602422</ele>
        <time>2021-11-20T00:29:00.741Z</time>
      </trkpt>
      <trkpt lat="47.662535" lon="7.858830">
        <ele>479.730416</ele>
        <time>2021-11-20T00:29:03.095Z</time>
      </trkpt>
      <trkpt lat="47.662377" lon="7.858337">
        <ele>478.460299</ele>
        <time>2021-11-20T00:29:06.820Z</time>
      </trkpt>
      <trkpt lat="47.662143" lon="7.857943">
        <ele>478.384214</ele>
        <time>2021-11-20T00:29:10.557Z</time>
      </trkpt>
      <trkpt lat="47.661786" lon="7.857663">
        <ele>478.297388</ele>
        <time>2021-11-20T00:29:15.215Z</time>
      </trkpt>
      <trkpt lat="47.660679" lon="7.857529">
        <ele>478.073221</ele>
        <time>2021-11-20T00:29:37.416Z</time>
      </trkpt>
      <trkpt lat="47.660400" lon="7.857415">
        <ele>478.058074</ele>
        <time>2021-11-20T00:29:44.849Z</time>
      </trkpt>
      <trkpt lat="47.660191" lon="7.857136">
        <ele>478.043363</ele>
        <time>2021-11-20T00:29:50.904Z</time>
      </trkpt>
      <trkpt lat="47.660145" lon="7.856675">
        <ele>478.026934</ele>
        <time>2021-11-20T00:29:57.325Z</time>
      </trkpt>
      <trkpt lat="47.660170" lon="7.856510">
        <ele>478.020972</ele>
        <time>2021-11-20T00:30:00.292Z</time>
      </trkpt>
      <trkpt lat="47.660254" lon="7.856070">
        <ele>478.004849</ele>
        <time>2021-11-20T00:30:03.752Z</time>
      </trkpt>
      <trkpt lat="47.660340" lon="7.855600">
        <ele>477.987679</ele>
        <time>2021-11-20T00:30:07.186Z</time>
      </trkpt>
      <trkpt lat="47.660419" lon="7.854745">
        <ele>474.396595</ele>
        <time>2021-11-20T00:30:12.878Z</time>
      </trkpt>
      <trkpt lat="47.660428" lon="7.854469">
        <ele>473.080173</ele>
        <time>2021-11-20T00:30:14.744Z</time>
      </trkpt>
      <trkpt lat="47.660442" lon="7.854217">
        <ele>471.875551</ele>
        <time>2021-11-20T00:30:16.237Z</time>
      </trkpt>
      <trkpt lat="47.660433" lon="7.853291">
        <ele>467.463568</ele>
        <time>2021-11-20T00:30:21.707Z</time>
      </trkpt>
      <trkpt lat="47.660385" lon="7.852986">
        <ele>465.971388</ele>
        <time>2021-11-20T00:30:23.515Z</time>
      </trkpt>
      <trkpt lat="47.660222" lon="7.852517">
        <ele>462.487709</ele>
        <time>2021-11-20T00:30:26.541Z</time>
      </trkpt>
      <trkpt lat="47.659858" lon="7.852074">
        <ele>457.369869</ele>
        <time>2021-11-20T00:30:30.535Z</time>
      </trkpt>
      <trkpt lat="47.659772" lon="7.851936">
        <ele>455.992929</ele>
        <time>2021-11-20T00:30:31.619Z</time>
      </trkpt>
      <trkpt lat="47.659737" lon="7.851695">
        <ele>454.187331</ele>
        <time>2021-11-20T00:30:33.025Z</time>
      </trkpt>
      <trkpt lat="47.659825" lon="7.851429">
        <ele>452.016886</ele>
        <time>2021-11-20T00:30:34.739Z</time>
      </trkpt>
      <trkpt lat="47.659865" lon="7.851365">
        <ele>451.377448</ele>
        <time>2021-11-20T00:30:35.227Z</time>
      </trkpt>
      <trkpt lat="47.659889" lon="7.851325">
        <ele>450.985115</ele>
        <time>2021-11-20T00:30:35.536Z</time>
      </trkpt>
      <trkpt lat="47.659980" lon="7.851203">
        <ele>449.651898</ele>
        <time>2021-11-20T00:30:36.597Z</time>
      </trkpt>
      <trkpt lat="47.660133" lon="7.850964">
        <ele>447.237019</ele>
        <time>2021-11-20T00:30:38.480Z</time>
      </trkpt>
      <trkpt lat="47.660423" lon="7.850559">
        <ele>443.429673</ele>
        <time>2021-11-20T00:30:41.882Z</time>
      </trkpt>
      <trkpt lat="47.660630" lon="7.850158">
        <ele>440.420169</ele>
        <time>2021-11-20T00:30:44.811Z</time>
      </trkpt>
      <trkpt lat="47.660732" lon="7.849851">
        <ele>438.381074</ele>
        <time>2021-11-20T00:30:46.839Z</time>
      </trkpt>
      <trkpt lat="47.660953" lon="7.848671">
        <ele>431.085535</ele>
        <time>2021-11-20T00:30:54.057Z</time>
      </trkpt>
      <trkpt lat="47.660987" lon="7.848340">
        <ele>429.358179</ele>
        <time>2021-11-20T00:30:56.081Z</time>
      </trkpt>
      <trkpt lat="47.660945" lon="7.847588">
        <ele>426.566258</ele>
        <time>2021-11-20T00:31:00.768Z</time>
      </trkpt>
      <trkpt lat="47.660753" lon="7.846503">
        <ele>422.415542</ele>
        <time>2021-11-20T00:31:08.013Z</time>
      </trkpt>
      <trkpt lat="47.660583" lon="7.846064">
        <ele>420.541913</ele>
        <time>2021-11-20T00:31:11.273Z</time>
      </trkpt>
      <trkpt lat="47.660091" lon="7.845247">
        <ele>415.295870</ele>
        <time>2021-11-20T00:31:18.091Z</time>
      </trkpt>
      <trkpt lat="47.659916" lon="7.844774">
        <ele>412.605395</ele>
        <time>2021-11-20T00:31:21.299Z</time>
      </trkpt>
      <trkpt lat="47.659878" lon="7.844501">
        <ele>411.215603</ele>
        <time>2021-11-20T00:31:22.953Z</time>
      </trkpt>
      <trkpt lat="47.659894" lon="7.844140">
        <ele>409.411958</ele>
        <time>2021-11-20T00:31:25.088Z</time>
      </trkpt>
      <trkpt lat="47.659891" lon="7.843834">
        <ele>407.886244</ele>
        <time>2021-11-20T00:31:26.873Z</time>
      </trkpt>
      <trkpt lat="47.659785" lon="7.843448">
        <ele>405.838761</ele>
        <time>2021-11-20T00:31:29.336Z</time>
      </trkpt>
      <trkpt lat="47.659699" lon="7.843338">
        <ele>405.031055</ele>
        <time>2021-11-20T00:31:30.319Z</time>
      </trkpt>
      <trkpt lat="47.659589" lon="7.843262">
        <ele>404.167745</ele>
        <time>2021-11-20T00:31:31.383Z</time>
      </trkpt>
      <trkpt lat="47.659622" lon="7.843157">
        <ele>403.612436</ele>
        <time>2021-11-20T00:31:32.067Z</time>
      </trkpt>
      <trkpt lat="47.659669" lon="7.843010">
        <ele>402.832581</ele>
        <time>2021-11-20T00:31:33.021Z</time>
      </trkpt>
      <trkpt lat="47.659680" lon="7.842973">
        <ele>402.638750</ele>
        <time>2021-11-20T00:31:33.256Z</time>
      </trkpt>
      <trkpt lat="47.660044" lon="7.841843">
        <ele>396.635675</ele>
        <time>2021-11-20T00:31:40.750Z</time>
      </trkpt>
      <trkpt lat="47.660240" lon="7.841356">
        <ele>393.916777</ele>
        <time>2021-11-20T00:31:44.326Z</time>
      </trkpt>
      <trkpt lat="47.660342" lon="7.841019">
        <ele>393.386144</ele>
        <time>2021-11-20T00:31:46.705Z</time>
      </trkpt>
      <trkpt lat="47.660358" lon="7.840966">
        <ele>393.316070</ele>
        <time>2021-11-20T00:31:47.106Z</time>
      </trkpt>
      <trkpt lat="47.660427" lon="7.840766">
        <ele>393.044955</ele>
        <time>2021-11-20T00:31:48.773Z</time>
      </trkpt>
      <trkpt lat="47.660496" lon="7.840519">
        <ele>392.722334</ele>
        <time>2021-11-20T00:31:50.817Z</time>
      </trkpt>
      <trkpt lat="47.660645" lon="7.840066">
        <ele>392.114099</ele>
        <time>2021-11-20T00:31:54.889Z</time>
      </trkpt>
      <trkpt lat="47.660970" lon="7.839136">
        <ele>390.850017</ele>
        <time>2021-11-20T00:32:04.389Z</time>
      </trkpt>
      <trkpt lat="47.660988" lon="7.839085">
        <ele>390.780550</ele>
        <time>2021-11-20T00:32:04.936Z</time>
      </trkpt>
      <trkpt lat="47.660997" lon="7.839060">
        <ele>390.746350</ele>
        <time>2021-11-20T00:32:05.183Z</time>
      </trkpt>
      <trkpt lat="47.661006" lon="7.839036">
        <ele>390.713208</ele>
        <time>2021-11-20T00:32:05.418Z</time>
      </trkpt>
      <trkpt lat="47.661097" lon="7.838798">
        <ele>390.469240</ele>
        <time>2021-11-20T00:32:07.884Z</time>
      </trkpt>
      <trkpt lat="47.661129" lon="7.838704">
        <ele>390.397398</ele>
        <time>2021-11-20T00:32:08.796Z</time>
      </trkpt>
      <trkpt lat="47.661207" lon="7.838474">
        <ele>390.221750</ele>
        <time>2021-11-20T00:32:11.079Z</time>
      </trkpt>
      <trkpt lat="47.661309" lon="7.838191">
        <ele>390.002815</ele>
        <time>2021-11-20T00:32:13.858Z</time>
      </trkpt>
      <trkpt lat="47.661355" lon="7.838066">
        <ele>389.905656</ele>
        <time>2021-11-20T00:32:15.082Z</time>
      </trkpt>
      <trkpt lat="47.661387" lon="7.838089">
        <ele>389.869650</ele>
        <time>2021-11-20T00:32:15.544Z</time>
      </trkpt>
      <trkpt lat="47.661422" lon="7.838095">
        <ele>389.833969</ele>
        <time>2021-11-20T00:32:15.941Z</time>
      </trkpt>
      <trkpt lat="47.661457" lon="7.838084">
        <ele>389.797737</ele>
        <time>2021-11-20T00:32:16.393Z</time>
      </trkpt>
      <trkpt lat="47.661457" lon="7.838084">
        <ele>389.797737</ele>
        <time>2021-11-20T00:32:16.397Z</time>
      </trkpt>
      <trkpt lat="47.661487" lon="7.838057">
        <ele>389.762209</ele>
        <time>2021-11-20T00:32:16.825Z</time>
      </trkpt>
      <trkpt lat="47.661509" lon="7.838016">
        <ele>389.726453</ele>
        <time>2021-11-20T00:32:17.262Z</time>
      </trkpt>
      <trkpt lat="47.661522" lon="7.837967">
        <ele>389.690531</ele>
        <time>2021-11-20T00:32:17.691Z</time>
      </trkpt>
      <trkpt lat="47.661523" lon="7.837917">
        <ele>389.656411</ele>
        <time>2021-11-20T00:32:18.090Z</time>
      </trkpt>
      <trkpt lat="47.661469" lon="7.837798">
        <ele>389.558538</ele>
        <time>2021-11-20T00:32:19.299Z</time>
      </trkpt>
      <trkpt lat="47.661437" lon="7.837781">
        <ele>389.524118</ele>
        <time>2021-11-20T00:32:19.704Z</time>
      </trkpt>
      <trkpt lat="47.661452" lon="7.837714">
        <ele>389.475959</ele>
        <time>2021-11-20T00:32:20.256Z</time>
      </trkpt>
      <trkpt lat="47.661497" lon="7.837504">
        <ele>389.325644</ele>
        <time>2021-11-20T00:32:22.014Z</time>
      </trkpt>
      <trkpt lat="47.661824" lon="7.836259">
        <ele>388.262532</ele>
        <time>2021-11-20T00:32:32.415Z</time>
      </trkpt>
      <trkpt lat="47.661824" lon="7.836203">
        <ele>388.207581</ele>
        <time>2021-11-20T00:32:32.810Z</time>
      </trkpt>
      <trkpt lat="47.661824" lon="7.836169">
        <ele>388.174218</ele>
        <time>2021-11-20T00:32:33.073Z</time>
      </trkpt>
      <trkpt lat="47.661816" lon="7.836129">
        <ele>388.133273</ele>
        <time>2021-11-20T00:32:33.392Z</time>
      </trkpt>
      <trkpt lat="47.661745" lon="7.835965">
        <ele>387.941966</ele>
        <time>2021-11-20T00:32:34.890Z</time>
      </trkpt>
      <trkpt lat="47.661603" lon="7.835641">
        <ele>387.562646</ele>
        <time>2021-11-20T00:32:37.849Z</time>
      </trkpt>
      <trkpt lat="47.661534" lon="7.835353">
        <ele>387.262691</ele>
        <time>2021-11-20T00:32:40.278Z</time>
      </trkpt>
      <trkpt lat="47.661534" lon="7.835353">
        <ele>387.262691</ele>
        <time>2021-11-20T00:32:40.335Z</time>
      </trkpt>
      <trkpt lat="47.661534" lon="7.835353">
        <ele>387.262691</ele>
        <time>2021-11-20T00:32:40.357Z</time>
      </trkpt>
      <trkpt lat="47.661488" lon="7.835209">
        <ele>387.106299</ele>
        <time>2021-11-20T00:32:41.539Z</time>
      </trkpt>
      <trkpt lat="47.661464" lon="7.835156">
        <ele>387.043630</ele>
        <time>2021-11-20T00:32:42.042Z</time>
      </trkpt>
      <trkpt lat="47.660968" lon="7.834797">
        <ele>386.239686</ele>
        <time>2021-11-20T00:32:48.534Z</time>
      </trkpt>
      <trkpt lat="47.660300" lon="7.834365">
        <ele>385.512885</ele>
        <time>2021-11-20T00:32:57.191Z</time>
      </trkpt>
      <trkpt lat="47.660216" lon="7.834301">
        <ele>385.423238</ele>
        <time>2021-11-20T00:32:58.304Z</time>
      </trkpt>
      <trkpt lat="47.659990" lon="7.834167">
        <ele>385.192170</ele>
        <time>2021-11-20T00:33:01.384Z</time>
      </trkpt>
      <trkpt lat="47.659852" lon="7.834084">
        <ele>385.050795</ele>
        <time>2021-11-20T00:33:03.280Z</time>
      </trkpt>
      <trkpt lat="47.659735" lon="7.834061">
        <ele>384.938733</ele>
        <time>2021-11-20T00:33:04.800Z</time>
      </trkpt>
      <trkpt lat="47.659714" lon="7.834064">
        <ele>384.918701</ele>
        <time>2021-11-20T00:33:05.074Z</time>
      </trkpt>
      <trkpt lat="47.659633" lon="7.834077">
        <ele>384.841343</ele>
        <time>2021-11-20T00:33:06.133Z</time>
      </trkpt>
      <trkpt lat="47.659461" lon="7.834102">
        <ele>384.677246</ele>
        <time>2021-11-20T00:33:08.398Z</time>
      </trkpt>
      <trkpt lat="47.659432" lon="7.834106">
        <ele>384.649592</ele>
        <time>2021-11-20T00:33:08.753Z</time>
      </trkpt>
      <trkpt lat="47.659242" lon="7.834106">
        <ele>384.469185</ele>
        <time>2021-11-20T00:33:11.123Z</time>
      </trkpt>
      <trkpt lat="47.658993" lon="7.834108">
        <ele>384.251855</ele>
        <time>2021-11-20T00:33:14.223Z</time>
      </trkpt>
      <trkpt lat="47.658899" lon="7.834108">
        <ele>384.171182</ele>
        <time>2021-11-20T00:33:15.417Z</time>
      </trkpt>
      <trkpt lat="47.658687" lon="7.834028">
        <ele>383.983453</ele>
        <time>2021-11-20T00:33:18.148Z</time>
      </trkpt>
      <trkpt lat="47.658531" lon="7.833970">
        <ele>383.845435</ele>
        <time>2021-11-20T00:33:20.163Z</time>
      </trkpt>
      <trkpt lat="47.658404" lon="7.833911">
        <ele>383.731229</ele>
        <time>2021-11-20T00:33:21.844Z</time>
      </trkpt>
      <trkpt lat="47.658206" lon="7.833785">
        <ele>383.546348</ele>
        <time>2021-11-20T00:33:24.533Z</time>
      </trkpt>
      <trkpt lat="47.658080" lon="7.833668">
        <ele>383.418803</ele>
        <time>2021-11-20T00:33:26.415Z</time>
      </trkpt>
      <trkpt lat="47.658041" lon="7.833588">
        <ele>383.361716</ele>
        <time>2021-11-20T00:33:27.223Z</time>
      </trkpt>
      <trkpt lat="47.657971" lon="7.833428">
        <ele>383.251428</ele>
        <time>2021-11-20T00:33:28.872Z</time>
      </trkpt>
      <trkpt lat="47.657918" lon="7.833307">
        <ele>383.167993</ele>
        <time>2021-11-20T00:33:30.045Z</time>
      </trkpt>
      <trkpt lat="47.657731" lon="7.832916">
        <ele>382.890787</ele>
        <time>2021-11-20T00:33:34.092Z</time>
      </trkpt>
      <trkpt lat="47.657510" lon="7.832688">
        <ele>382.580761</ele>
        <time>2021-11-20T00:33:37.401Z</time>
      </trkpt>
      <trkpt lat="47.657265" lon="7.832541">
        <ele>382.275327</ele>
        <time>2021-11-20T00:33:40.551Z</time>
      </trkpt>
      <trkpt lat="47.656918" lon="7.832343">
        <ele>381.845645</ele>
        <time>2021-11-20T00:33:44.941Z</time>
      </trkpt>
      <trkpt lat="47.656858" lon="7.832309">
        <ele>381.771414</ele>
        <time>2021-11-20T00:33:45.711Z</time>
      </trkpt>
      <trkpt lat="47.656646" lon="7.832178">
        <ele>381.505997</ele>
        <time>2021-11-20T00:33:48.380Z</time>
      </trkpt>
      <trkpt lat="47.656381" lon="7.832009">
        <ele>381.172633</ele>
        <time>2021-11-20T00:33:51.865Z</time>
      </trkpt>
      <trkpt lat="47.656353" lon="7.831972">
        <ele>381.129306</ele>
        <time>2021-11-20T00:33:52.307Z</time>
      </trkpt>
      <trkpt lat="47.656204" lon="7.831766">
        <ele>380.893972</ele>
        <time>2021-11-20T00:33:54.775Z</time>
      </trkpt>
      <trkpt lat="47.656104" lon="7.831597">
        <ele>380.695944</ele>
        <time>2021-11-20T00:33:56.600Z</time>
      </trkpt>
      <trkpt lat="47.655840" lon="7.831150">
        <ele>380.115370</ele>
        <time>2021-11-20T00:34:01.411Z</time>
      </trkpt>
      <trkpt lat="47.655653" lon="7.830727">
        <ele>379.621248</ele>
        <time>2021-11-20T00:34:05.357Z</time>
      </trkpt>
      <trkpt lat="47.655554" lon="7.830341">
        <ele>379.217881</ele>
        <time>2021-11-20T00:34:08.495Z</time>
      </trkpt>
      <trkpt lat="47.655515" lon="7.830187">
        <ele>379.057207</ele>
        <time>2021-11-20T00:34:09.763Z</time>
      </trkpt>
      <trkpt lat="47.655442" lon="7.830047">
        <ele>378.884305</ele>
        <time>2021-11-20T00:34:11.116Z</time>
      </trkpt>
      <trkpt lat="47.655408" lon="7.830008">
        <ele>378.822011</ele>
        <time>2021-11-20T00:34:11.601Z</time>
      </trkpt>
      <trkpt lat="47.655374" lon="7.829968">
        <ele>378.759115</ele>
        <time>2021-11-20T00:34:12.089Z</time>
      </trkpt>
      <trkpt lat="47.655222" lon="7.829815">
        <ele>378.492859</ele>
        <time>2021-11-20T00:34:14.196Z</time>
      </trkpt>
      <trkpt lat="47.655209" lon="7.829806">
        <ele>378.472063</ele>
        <time>2021-11-20T00:34:14.348Z</time>
      </trkpt>
      <trkpt lat="47.654985" lon="7.829643">
        <ele>378.112140</ele>
        <time>2021-11-20T00:34:17.184Z</time>
      </trkpt>
      <trkpt lat="47.654883" lon="7.829540">
        <ele>377.936753</ele>
        <time>2021-11-20T00:34:18.613Z</time>
      </trkpt>
      <trkpt lat="47.654782" lon="7.829439">
        <ele>377.763617</ele>
        <time>2021-11-20T00:34:20.011Z</time>
      </trkpt>
      <trkpt lat="47.654726" lon="7.829362">
        <ele>377.655095</ele>
        <time>2021-11-20T00:34:20.865Z</time>
      </trkpt>
      <trkpt lat="47.654588" lon="7.829170">
        <ele>377.386197</ele>
        <time>2021-11-20T00:34:23.070Z</time>
      </trkpt>
      <trkpt lat="47.654444" lon="7.828940">
        <ele>377.085475</ele>
        <time>2021-11-20T00:34:25.501Z</time>
      </trkpt>
      <trkpt lat="47.654358" lon="7.828807">
        <ele>376.908913</ele>
        <time>2021-11-20T00:34:26.977Z</time>
      </trkpt>
      <trkpt lat="47.654262" lon="7.828656">
        <ele>376.710062</ele>
        <time>2021-11-20T00:34:28.613Z</time>
      </trkpt>
      <trkpt lat="47.654190" lon="7.828544">
        <ele>376.561791</ele>
        <time>2021-11-20T00:34:29.833Z</time>
      </trkpt>
      <trkpt lat="47.654075" lon="7.828375">
        <ele>376.331729</ele>
        <time>2021-11-20T00:34:31.750Z</time>
      </trkpt>
      <trkpt lat="47.654070" lon="7.828370">
        <ele>376.323158</ele>
        <time>2021-11-20T00:34:31.822Z</time>
      </trkpt>
      <trkpt lat="47.653907" lon="7.828156">
        <ele>376.013787</ele>
        <time>2021-11-20T00:34:34.335Z</time>
      </trkpt>
      <trkpt lat="47.653415" lon="7.827515">
        <ele>375.224764</ele>
        <time>2021-11-20T00:34:41.943Z</time>
      </trkpt>
      <trkpt lat="47.653183" lon="7.827196">
        <ele>374.888743</ele>
        <time>2021-11-20T00:34:45.656Z</time>
      </trkpt>
      <trkpt lat="47.652994" lon="7.826927">
        <ele>374.610523</ele>
        <time>2021-11-20T00:34:48.745Z</time>
      </trkpt>
      <trkpt lat="47.652860" lon="7.826738">
        <ele>374.414115</ele>
        <time>2021-11-20T00:34:50.958Z</time>
      </trkpt>
      <trkpt lat="47.652752" lon="7.826545">
        <ele>374.234520</ele>
        <time>2021-11-20T00:34:53.163Z</time>
      </trkpt>
      <trkpt lat="47.652129" lon="7.825338">
        <ele>373.497271</ele>
        <time>2021-11-20T00:35:06.496Z</time>
      </trkpt>
      <trkpt lat="47.651910" lon="7.824975">
        <ele>373.357302</ele>
        <time>2021-11-20T00:35:10.703Z</time>
      </trkpt>
      <trkpt lat="47.651867" lon="7.824904">
        <ele>373.329878</ele>
        <time>2021-11-20T00:35:11.703Z</time>
      </trkpt>
      <trkpt lat="47.651877" lon="7.824886">
        <ele>373.323177</ele>
        <time>2021-11-20T00:35:11.922Z</time>
      </trkpt>
      <trkpt lat="47.651866" lon="7.824714">
        <ele>373.273550</ele>
        <time>2021-11-20T00:35:13.339Z</time>
      </trkpt>
      <trkpt lat="47.651853" lon="7.824699">
        <ele>373.266530</ele>
        <time>2021-11-20T00:35:13.558Z</time>
      </trkpt>
      <trkpt lat="47.651839" lon="7.824688">
        <ele>373.259775</ele>
        <time>2021-11-20T00:35:13.807Z</time>
      </trkpt>
      <trkpt lat="47.651761" lon="7.824691">
        <ele>373.226506</ele>
        <time>2021-11-20T00:35:14.829Z</time>
      </trkpt>
      <trkpt lat="47.651748" lon="7.824704">
        <ele>373.219822</ele>
        <time>2021-11-20T00:35:15.082Z</time>
      </trkpt>
      <trkpt lat="47.651700" lon="7.824581">
        <ele>373.178992</ele>
        <time>2021-11-20T00:35:16.449Z</time>
      </trkpt>
      <trkpt lat="47.651700" lon="7.824581">
        <ele>373.178992</ele>
        <time>2021-11-20T00:35:16.483Z</time>
      </trkpt>
      <trkpt lat="47.651424" lon="7.824011">
        <ele>372.977360</ele>
        <time>2021-11-20T00:35:22.984Z</time>
      </trkpt>
      <trkpt lat="47.651188" lon="7.823521">
        <ele>372.829479</ele>
        <time>2021-11-20T00:35:29.193Z</time>
      </trkpt>
      <trkpt lat="47.651083" lon="7.823437">
        <ele>372.786543</ele>
        <time>2021-11-20T00:35:31.884Z</time>
      </trkpt>
      <trkpt lat="47.651145" lon="7.823253">
        <ele>372.736655</ele>
        <time>2021-11-20T00:35:34.094Z</time>
      </trkpt>
      <trkpt lat="47.651185" lon="7.823196">
        <ele>372.716696</ele>
        <time>2021-11-20T00:35:34.764Z</time>
      </trkpt>
      <trkpt lat="47.651277" lon="7.823110">
        <ele>372.677559</ele>
        <time>2021-11-20T00:35:36.252Z</time>
      </trkpt>
      <trkpt lat="47.651356" lon="7.823053">
        <ele>372.645941</ele>
        <time>2021-11-20T00:35:37.490Z</time>
      </trkpt>
      <trkpt lat="47.651414" lon="7.823011">
        <ele>372.622711</ele>
        <time>2021-11-20T00:35:38.425Z</time>
      </trkpt>
      <trkpt lat="47.651437" lon="7.822994">
        <ele>372.613462</ele>
        <time>2021-11-20T00:35:38.742Z</time>
      </trkpt>
      <trkpt lat="47.651582" lon="7.822903">
        <ele>372.556794</ele>
        <time>2021-11-20T00:35:40.696Z</time>
      </trkpt>
      <trkpt lat="47.651576" lon="7.822717">
        <ele>372.511640</ele>
        <time>2021-11-20T00:35:42.368Z</time>
      </trkpt>
      <trkpt lat="47.651534" lon="7.822118">
        <ele>372.365605</ele>
        <time>2021-11-20T00:35:47.576Z</time>
      </trkpt>
      <trkpt lat="47.651460" lon="7.821911">
        <ele>372.303559</ele>
        <time>2021-11-20T00:35:49.444Z</time>
      </trkpt>
      <trkpt lat="47.651443" lon="7.821851">
        <ele>372.279075</ele>
        <time>2021-11-20T00:35:50.084Z</time>
      </trkpt>
      <trkpt lat="47.651447" lon="7.821532">
        <ele>372.159061</ele>
        <time>2021-11-20T00:35:53.145Z</time>
      </trkpt>
      <trkpt lat="47.651566" lon="7.821307">
        <ele>372.051457</ele>
        <time>2021-11-20T00:35:55.479Z</time>
      </trkpt>
      <trkpt lat="47.651938" lon="7.820828">
        <ele>371.776481</ele>
        <time>2021-11-20T00:36:01.911Z</time>
      </trkpt>
      <trkpt lat="47.652077" lon="7.820727">
        <ele>371.690065</ele>
        <time>2021-11-20T00:36:03.734Z</time>
      </trkpt>
      <trkpt lat="47.652051" lon="7.820338">
        <ele>371.543024</ele>
        <time>2021-11-20T00:36:07.493Z</time>
      </trkpt>
      <trkpt lat="47.651918" lon="7.819507">
        <ele>371.353793</ele>
        <time>2021-11-20T00:36:15.228Z</time>
      </trkpt>
      <trkpt lat="47.651902" lon="7.819435">
        <ele>371.366137</ele>
        <time>2021-11-20T00:36:16.049Z</time>
      </trkpt>
      <trkpt lat="47.651812" lon="7.819001">
        <ele>371.440071</ele>
        <time>2021-11-20T00:36:20.454Z</time>
      </trkpt>
      <trkpt lat="47.651721" lon="7.818622">
        <ele>371.505581</ele>
        <time>2021-11-20T00:36:24.414Z</time>
      </trkpt>
      <trkpt lat="47.651555" lon="7.818629">
        <ele>371.545719</ele>
        <time>2021-11-20T00:36:28.227Z</time>
      </trkpt>
      <trkpt lat="47.651461" lon="7.818672">
        <ele>371.569492</ele>
        <time>2021-11-20T00:36:30.434Z</time>
      </trkpt>
      <trkpt lat="47.651420" lon="7.818692">
        <ele>371.579923</ele>
        <time>2021-11-20T00:36:31.393Z</time>
      </trkpt>
      <trkpt lat="47.651369" lon="7.818717">
        <ele>371.592905</ele>
        <time>2021-11-20T00:36:32.569Z</time>
      </trkpt>
      <trkpt lat="47.651322" lon="7.818740">
        <ele>371.604866</ele>
        <time>2021-11-20T00:36:33.748Z</time>
      </trkpt>
      <trkpt lat="47.651189" lon="7.818798">
        <ele>371.638370</ele>
        <time>2021-11-20T00:36:36.157Z</time>
      </trkpt>
      <trkpt lat="47.650972" lon="7.818899">
        <ele>371.693335</ele>
        <time>2021-11-20T00:36:39.990Z</time>
      </trkpt>
      <trkpt lat="47.650839" lon="7.818957">
        <ele>371.726840</ele>
        <time>2021-11-20T00:36:42.388Z</time>
      </trkpt>
      <trkpt lat="47.650652" lon="7.819029">
        <ele>371.763522</ele>
        <time>2021-11-20T00:36:45.631Z</time>
      </trkpt>
      <trkpt lat="47.650471" lon="7.819119">
        <ele>371.791112</ele>
        <time>2021-11-20T00:36:48.993Z</time>
      </trkpt>
      <trkpt lat="47.650250" lon="7.819234">
        <ele>371.824961</ele>
        <time>2021-11-20T00:36:53.000Z</time>
      </trkpt>
      <trkpt lat="47.650172" lon="7.819299">
        <ele>371.837890</ele>
        <time>2021-11-20T00:36:54.554Z</time>
      </trkpt>
      <trkpt lat="47.650074" lon="7.819386">
        <ele>371.854395</ele>
        <time>2021-11-20T00:36:56.425Z</time>
      </trkpt>
      <trkpt lat="47.649988" lon="7.819463">
        <ele>371.868912</ele>
        <time>2021-11-20T00:36:58.039Z</time>
      </trkpt>
      <trkpt lat="47.649892" lon="7.819589">
        <ele>371.887434</ele>
        <time>2021-11-20T00:36:59.984Z</time>
      </trkpt>
      <trkpt lat="47.649755" lon="7.819846">
        <ele>371.919345</ele>
        <time>2021-11-20T00:37:03.121Z</time>
      </trkpt>
      <trkpt lat="47.649489" lon="7.820022">
        <ele>371.961439</ele>
        <time>2021-11-20T00:37:07.165Z</time>
      </trkpt>
      <trkpt lat="47.649334" lon="7.820073">
        <ele>371.984387</ele>
        <time>2021-11-20T00:37:09.348Z</time>
      </trkpt>
      <trkpt lat="47.649291" lon="7.819778">
        <ele>371.990985</ele>
        <time>2021-11-20T00:37:12.272Z</time>
      </trkpt>
      <trkpt lat="47.649190" lon="7.818874">
        <ele>371.686962</ele>
        <time>2021-11-20T00:37:20.883Z</time>
      </trkpt>
      <trkpt lat="47.649183" lon="7.818814">
        <ele>371.666759</ele>
        <time>2021-11-20T00:37:21.403Z</time>
      </trkpt>
      <trkpt lat="47.649130" lon="7.818388">
        <ele>371.523032</ele>
        <time>2021-11-20T00:37:25.109Z</time>
      </trkpt>
      <trkpt lat="47.649107" lon="7.818248">
        <ele>371.475222</ele>
        <time>2021-11-20T00:37:26.349Z</time>
      </trkpt>
      <trkpt lat="47.649066" lon="7.818016">
        <ele>371.395646</ele>
        <time>2021-11-20T00:37:28.345Z</time>
      </trkpt>
      <trkpt lat="47.649051" lon="7.817919">
        <ele>371.362626</ele>
        <time>2021-11-20T00:37:29.216Z</time>
      </trkpt>
      <trkpt lat="47.649039" lon="7.817840">
        <ele>371.335758</ele>
        <time>2021-11-20T00:37:30.026Z</time>
      </trkpt>
      <trkpt lat="47.648907" lon="7.817325">
        <ele>371.152943</ele>
        <time>2021-11-20T00:37:34.810Z</time>
      </trkpt>
      <trkpt lat="47.648847" lon="7.817134">
        <ele>371.100225</ele>
        <time>2021-11-20T00:37:36.649Z</time>
      </trkpt>
      <trkpt lat="47.648834" lon="7.817092">
        <ele>371.091524</ele>
        <time>2021-11-20T00:37:37.083Z</time>
      </trkpt>
      <trkpt lat="47.648734" lon="7.816774">
        <ele>371.025460</ele>
        <time>2021-11-20T00:37:40.372Z</time>
      </trkpt>
      <trkpt lat="47.648715" lon="7.816710">
        <ele>371.012294</ele>
        <time>2021-11-20T00:37:40.994Z</time>
      </trkpt>
      <trkpt lat="47.648601" lon="7.816406">
        <ele>370.946797</ele>
        <time>2021-11-20T00:37:44.267Z</time>
      </trkpt>
      <trkpt lat="47.648460" lon="7.816084">
        <ele>370.874500</ele>
        <time>2021-11-20T00:37:47.795Z</time>
      </trkpt>
      <trkpt lat="47.648299" lon="7.815806">
        <ele>370.805487</ele>
        <time>2021-11-20T00:37:51.299Z</time>
      </trkpt>
      <trkpt lat="47.648281" lon="7.815744">
        <ele>370.792778</ele>
        <time>2021-11-20T00:37:51.941Z</time>
      </trkpt>
      <trkpt lat="47.648236" lon="7.815588">
        <ele>370.760832</ele>
        <time>2021-11-20T00:37:53.544Z</time>
      </trkpt>
      <trkpt lat="47.648240" lon="7.815548">
        <ele>370.753219</ele>
        <time>2021-11-20T00:37:53.905Z</time>
      </trkpt>
      <trkpt lat="47.648238" lon="7.815508">
        <ele>370.745668</ele>
        <time>2021-11-20T00:37:54.283Z</time>
      </trkpt>
      <trkpt lat="47.648231" lon="7.815470">
        <ele>370.738252</ele>
        <time>2021-11-20T00:37:54.659Z</time>
      </trkpt>
      <trkpt lat="47.648218" lon="7.815437">
        <ele>370.731056</ele>
        <time>2021-11-20T00:37:55.026Z</time>
      </trkpt>
      <trkpt lat="47.648201" lon="7.815408">
        <ele>370.723819</ele>
        <time>2021-11-20T00:37:55.389Z</time>
      </trkpt>
      <trkpt lat="47.648181" lon="7.815385">
        <ele>370.716749</ele>
        <time>2021-11-20T00:37:55.743Z</time>
      </trkpt>
      <trkpt lat="47.648157" lon="7.815369">
        <ele>370.709397</ele>
        <time>2021-11-20T00:37:56.093Z</time>
      </trkpt>
      <trkpt lat="47.648132" lon="7.815361">
        <ele>370.702251</ele>
        <time>2021-11-20T00:37:56.428Z</time>
      </trkpt>
      <trkpt lat="47.648106" lon="7.815361">
        <ele>370.694986</ele>
        <time>2021-11-20T00:37:56.790Z</time>
      </trkpt>
      <trkpt lat="47.648081" lon="7.815369">
        <ele>370.687839</ele>
        <time>2021-11-20T00:37:57.168Z</time>
      </trkpt>
      <trkpt lat="47.648057" lon="7.815385">
        <ele>370.680487</ele>
        <time>2021-11-20T00:37:57.516Z</time>
      </trkpt>
      <trkpt lat="47.648035" lon="7.815408">
        <ele>370.672968</ele>
        <time>2021-11-20T00:37:57.890Z</time>
      </trkpt>
      <trkpt lat="47.648018" lon="7.815437">
        <ele>370.665731</ele>
        <time>2021-11-20T00:37:58.270Z</time>
      </trkpt>
      <trkpt lat="47.647998" lon="7.815509">
        <ele>370.651070</ele>
        <time>2021-11-20T00:37:58.973Z</time>
      </trkpt>
      <trkpt lat="47.647996" lon="7.815548">
        <ele>370.643707</ele>
        <time>2021-11-20T00:37:59.342Z</time>
      </trkpt>
      <trkpt lat="47.647925" lon="7.815642">
        <ele>370.621175</ele>
        <time>2021-11-20T00:38:00.725Z</time>
      </trkpt>
      <trkpt lat="47.647882" lon="7.815699">
        <ele>370.626421</ele>
        <time>2021-11-20T00:38:01.522Z</time>
      </trkpt>
      <trkpt lat="47.647785" lon="7.815818">
        <ele>370.637874</ele>
        <time>2021-11-20T00:38:03.363Z</time>
      </trkpt>
      <trkpt lat="47.647716" lon="7.815862">
        <ele>370.644708</ele>
        <time>2021-11-20T00:38:04.409Z</time>
      </trkpt>
      <trkpt lat="47.647662" lon="7.815885">
        <ele>370.649821</ele>
        <time>2021-11-20T00:38:05.233Z</time>
      </trkpt>
      <trkpt lat="47.647306" lon="7.815996">
        <ele>370.682927</ele>
        <time>2021-11-20T00:38:10.824Z</time>
      </trkpt>
      <trkpt lat="47.646940" lon="7.816087">
        <ele>370.716699</ele>
        <time>2021-11-20T00:38:16.654Z</time>
      </trkpt>
      <trkpt lat="47.646609" lon="7.816150">
        <ele>370.747069</ele>
        <time>2021-11-20T00:38:21.890Z</time>
      </trkpt>
      <trkpt lat="47.646346" lon="7.816173">
        <ele>370.771045</ele>
        <time>2021-11-20T00:38:25.884Z</time>
      </trkpt>
      <trkpt lat="47.645949" lon="7.816228">
        <ele>370.996247</ele>
        <time>2021-11-20T00:38:31.914Z</time>
      </trkpt>
      <trkpt lat="47.645844" lon="7.816242">
        <ele>371.083087</ele>
        <time>2021-11-20T00:38:33.533Z</time>
      </trkpt>
      <trkpt lat="47.645694" lon="7.816230">
        <ele>371.206825</ele>
        <time>2021-11-20T00:38:35.936Z</time>
      </trkpt>
      <trkpt lat="47.645635" lon="7.816215">
        <ele>371.256133</ele>
        <time>2021-11-20T00:38:36.899Z</time>
      </trkpt>
      <trkpt lat="47.645589" lon="7.816192">
        <ele>371.296117</ele>
        <time>2021-11-20T00:38:37.669Z</time>
      </trkpt>
      <trkpt lat="47.645566" lon="7.816166">
        <ele>371.319931</ele>
        <time>2021-11-20T00:38:38.123Z</time>
      </trkpt>
      <trkpt lat="47.645539" lon="7.816150">
        <ele>371.343879</ele>
        <time>2021-11-20T00:38:38.582Z</time>
      </trkpt>
      <trkpt lat="47.645511" lon="7.816145">
        <ele>371.367110</ele>
        <time>2021-11-20T00:38:39.049Z</time>
      </trkpt>
      <trkpt lat="47.645482" lon="7.816151">
        <ele>371.391229</ele>
        <time>2021-11-20T00:38:39.524Z</time>
      </trkpt>
      <trkpt lat="47.645432" lon="7.816197">
        <ele>371.439685</ele>
        <time>2021-11-20T00:38:40.457Z</time>
      </trkpt>
      <trkpt lat="47.645415" lon="7.816232">
        <ele>371.463630</ele>
        <time>2021-11-20T00:38:40.926Z</time>
      </trkpt>
      <trkpt lat="47.645404" lon="7.816264">
        <ele>371.483567</ele>
        <time>2021-11-20T00:38:41.323Z</time>
      </trkpt>
      <trkpt lat="47.645327" lon="7.816290">
        <ele>371.548615</ele>
        <time>2021-11-20T00:38:42.618Z</time>
      </trkpt>
      <trkpt lat="47.645172" lon="7.816339">
        <ele>371.679156</ele>
        <time>2021-11-20T00:38:45.292Z</time>
      </trkpt>
      <trkpt lat="47.645154" lon="7.816347">
        <ele>371.694634</ele>
        <time>2021-11-20T00:38:45.605Z</time>
      </trkpt>
      <trkpt lat="47.644927" lon="7.816376">
        <ele>371.882312</ele>
        <time>2021-11-20T00:38:49.698Z</time>
      </trkpt>
      <trkpt lat="47.644797" lon="7.816399">
        <ele>371.990155</ele>
        <time>2021-11-20T00:38:52.182Z</time>
      </trkpt>
      <trkpt lat="47.644357" lon="7.816478">
        <ele>372.852032</ele>
        <time>2021-11-20T00:39:01.325Z</time>
      </trkpt>
      <trkpt lat="47.643909" lon="7.816574">
        <ele>375.288208</ele>
        <time>2021-11-20T00:39:13.873Z</time>
      </trkpt>
      <trkpt lat="47.643638" lon="7.816626">
        <ele>376.758893</ele>
        <time>2021-11-20T00:39:22.922Z</time>
      </trkpt>
      <trkpt lat="47.642952" lon="7.816765">
        <ele>380.485254</ele>
        <time>2021-11-20T00:39:52.411Z</time>
      </trkpt>
      <trkpt lat="47.642758" lon="7.816795">
        <ele>381.535032</ele>
        <time>2021-11-20T00:40:01.644Z</time>
      </trkpt>
      <trkpt lat="47.642138" lon="7.816906">
        <ele>386.222400</ele>
        <time>2021-11-20T00:40:32.043Z</time>
      </trkpt>
      <trkpt lat="47.641916" lon="7.816921">
        <ele>387.956162</ele>
        <time>2021-11-20T00:40:43.140Z</time>
      </trkpt>
      <trkpt lat="47.641819" lon="7.816919">
        <ele>388.712996</ele>
        <time>2021-11-20T00:40:47.939Z</time>
      </trkpt>
      <trkpt lat="47.641687" lon="7.816751">
        <ele>390.069599</ele>
        <time>2021-11-20T00:40:56.763Z</time>
      </trkpt>
      <trkpt lat="47.641514" lon="7.816229">
        <ele>393.127470</ele>
        <time>2021-11-20T00:41:15.243Z</time>
      </trkpt>
      <trkpt lat="47.641404" lon="7.815775">
        <ele>395.663538</ele>
        <time>2021-11-20T00:41:29.610Z</time>
      </trkpt>
      <trkpt lat="47.641246" lon="7.815390">
        <ele>396.958799</ele>
        <time>2021-11-20T00:41:41.388Z</time>
      </trkpt>
      <trkpt lat="47.640965" lon="7.814694">
        <ele>398.993918</ele>
        <time>2021-11-20T00:41:58.684Z</time>
      </trkpt>
      <trkpt lat="47.640406" lon="7.811979">
        <ele>405.793004</ele>
        <time>2021-11-20T00:42:44.829Z</time>
      </trkpt>
      <trkpt lat="47.640311" lon="7.811772">
        <ele>406.362494</ele>
        <time>2021-11-20T00:42:48.907Z</time>
      </trkpt>
      <trkpt lat="47.640114" lon="7.811584">
        <ele>407.152881</ele>
        <time>2021-11-20T00:42:56.147Z</time>
      </trkpt>
      <trkpt lat="47.639913" lon="7.811500">
        <ele>407.857572</ele>
        <time>2021-11-20T00:43:02.354Z</time>
      </trkpt>
      <trkpt lat="47.639913" lon="7.811500">
        <ele>407.857572</ele>
        <time>2021-11-20T00:43:02.449Z</time>
      </trkpt>
      <trkpt lat="47.639796" lon="7.811469">
        <ele>408.258652</ele>
        <time>2021-11-20T00:43:06.624Z</time>
      </trkpt>
      <trkpt lat="47.639195" lon="7.811442">
        <ele>411.932603</ele>
        <time>2021-11-20T00:43:29.084Z</time>
      </trkpt>
      <trkpt lat="47.638925" lon="7.811482">
        <ele>413.823836</ele>
        <time>2021-11-20T00:43:40.434Z</time>
      </trkpt>
      <trkpt lat="47.638511" lon="7.811552">
        <ele>416.728051</ele>
        <time>2021-11-20T00:43:59.114Z</time>
      </trkpt>
      <trkpt lat="47.637893" lon="7.811811">
        <ele>421.203916</ele>
        <time>2021-11-20T00:44:28.417Z</time>
      </trkpt>
      <trkpt lat="47.637370" lon="7.812117">
        <ele>425.528240</ele>
        <time>2021-11-20T00:44:57.139Z</time>
      </trkpt>
      <trkpt lat="47.637056" lon="7.812257">
        <ele>428.054914</ele>
        <time>2021-11-20T00:45:12.271Z</time>
      </trkpt>
      <trkpt lat="47.636514" lon="7.812384">
        <ele>432.283558</ele>
        <time>2021-11-20T00:45:36.213Z</time>
      </trkpt>
      <trkpt lat="47.636362" lon="7.812419">
        <ele>433.468955</ele>
        <time>2021-11-20T00:45:43.377Z</time>
      </trkpt>
      <trkpt lat="47.636234" lon="7.812469">
        <ele>434.488981</ele>
        <time>2021-11-20T00:45:48.680Z</time>
      </trkpt>
      <trkpt lat="47.635984" lon="7.812598">
        <ele>436.512258</ele>
        <time>2021-11-20T00:45:59.652Z</time>
      </trkpt>
      <trkpt lat="47.635678" lon="7.812872">
        <ele>439.233735</ele>
        <time>2021-11-20T00:46:15.169Z</time>
      </trkpt>
      <trkpt lat="47.635617" lon="7.812948">
        <ele>439.840244</ele>
        <time>2021-11-20T00:46:18.434Z</time>
      </trkpt>
      <trkpt lat="47.635537" lon="7.813043">
        <ele>440.620466</ele>
        <time>2021-11-20T00:46:23.555Z</time>
      </trkpt>
      <trkpt lat="47.635461" lon="7.813093">
        <ele>441.253523</ele>
        <time>2021-11-20T00:46:27.321Z</time>
      </trkpt>
      <trkpt lat="47.635241" lon="7.813237">
        <ele>443.084525</ele>
        <time>2021-11-20T00:46:37.995Z</time>
      </trkpt>
      <trkpt lat="47.634810" lon="7.813677">
        <ele>447.068165</ele>
        <time>2021-11-20T00:47:03.205Z</time>
      </trkpt>
      <trkpt lat="47.634638" lon="7.813802">
        <ele>448.526561</ele>
        <time>2021-11-20T00:47:11.440Z</time>
      </trkpt>
      <trkpt lat="47.634603" lon="7.813838">
        <ele>448.851434</ele>
        <time>2021-11-20T00:47:14.574Z</time>
      </trkpt>
      <trkpt lat="47.634267" lon="7.814103">
        <ele>451.881707</ele>
        <time>2021-11-20T00:47:31.924Z</time>
      </trkpt>
      <trkpt lat="47.634025" lon="7.814248">
        <ele>453.960115</ele>
        <time>2021-11-20T00:47:42.693Z</time>
      </trkpt>
      <trkpt lat="47.633899" lon="7.814255">
        <ele>454.964259</ele>
        <time>2021-11-20T00:47:49.239Z</time>
      </trkpt>
      <trkpt lat="47.633759" lon="7.814194">
        <ele>456.126259</ele>
        <time>2021-11-20T00:47:55.027Z</time>
      </trkpt>
      <trkpt lat="47.633391" lon="7.813533">
        <ele>460.727595</ele>
        <time>2021-11-20T00:48:25.408Z</time>
      </trkpt>
      <trkpt lat="47.633151" lon="7.812590">
        <ele>465.819234</ele>
        <time>2021-11-20T00:48:55.196Z</time>
      </trkpt>
      <trkpt lat="47.632938" lon="7.812283">
        <ele>467.931213</ele>
        <time>2021-11-20T00:49:06.724Z</time>
      </trkpt>
      <trkpt lat="47.632845" lon="7.812246">
        <ele>468.616052</ele>
        <time>2021-11-20T00:49:12.393Z</time>
      </trkpt>
      <trkpt lat="47.632790" lon="7.812277">
        <ele>469.034517</ele>
        <time>2021-11-20T00:49:14.791Z</time>
      </trkpt>
      <trkpt lat="47.632601" lon="7.813004">
        <ele>472.769413</ele>
        <time>2021-11-20T00:49:35.237Z</time>
      </trkpt>
      <trkpt lat="47.632573" lon="7.813067">
        <ele>473.131139</ele>
        <time>2021-11-20T00:49:38.132Z</time>
      </trkpt>
      <trkpt lat="47.632515" lon="7.813155">
        <ele>473.721135</ele>
        <time>2021-11-20T00:49:42.803Z</time>
      </trkpt>
      <trkpt lat="47.632179" lon="7.813790">
        <ele>477.831870</ele>
        <time>2021-11-20T00:50:03.854Z</time>
      </trkpt>
      <trkpt lat="47.632099" lon="7.813963">
        <ele>478.985690</ele>
        <time>2021-11-20T00:50:11.438Z</time>
      </trkpt>
      <trkpt lat="47.631707" lon="7.814641">
        <ele>483.898402</ele>
        <time>2021-11-20T00:50:39.829Z</time>
      </trkpt>
      <trkpt lat="47.631677" lon="7.814692">
        <ele>484.270684</ele>
        <time>2021-11-20T00:50:42.836Z</time>
      </trkpt>
      <trkpt lat="47.631227" lon="7.815205">
        <ele>488.901454</ele>
        <time>2021-11-20T00:51:10.484Z</time>
      </trkpt>
      <trkpt lat="47.631083" lon="7.815420">
        <ele>490.568443</ele>
        <time>2021-11-20T00:51:21.255Z</time>
      </trkpt>
      <trkpt lat="47.631021" lon="7.815514">
        <ele>491.265492</ele>
        <time>2021-11-20T00:51:25.103Z</time>
      </trkpt>
      <trkpt lat="47.630743" lon="7.815987">
        <ele>494.579283</ele>
        <time>2021-11-20T00:51:45.144Z</time>
      </trkpt>
      <trkpt lat="47.630715" lon="7.816017">
        <ele>494.849869</ele>
        <time>2021-11-20T00:51:48.324Z</time>
      </trkpt>
      <trkpt lat="47.630669" lon="7.816064">
        <ele>495.287447</ele>
        <time>2021-11-20T00:51:50.501Z</time>
      </trkpt>
      <trkpt lat="47.629850" lon="7.816905">
        <ele>503.090838</ele>
        <time>2021-11-20T00:52:39.036Z</time>
      </trkpt>
      <trkpt lat="47.629046" lon="7.818276">
        <ele>507.913138</ele>
        <time>2021-11-20T00:53:20.641Z</time>
      </trkpt>
      <trkpt lat="47.628903" lon="7.818442">
        <ele>508.482732</ele>
        <time>2021-11-20T00:53:25.281Z</time>
      </trkpt>
      <trkpt lat="47.627555" lon="7.818559">
        <ele>508.911345</ele>
        <time>2021-11-20T00:53:44.431Z</time>
      </trkpt>
      <trkpt lat="47.626983" lon="7.818622">
        <ele>507.796587</ele>
        <time>2021-11-20T00:53:50.300Z</time>
      </trkpt>
      <trkpt lat="47.626700" lon="7.818602">
        <ele>507.245945</ele>
        <time>2021-11-20T00:53:53.147Z</time>
      </trkpt>
      <trkpt lat="47.626443" lon="7.818467">
        <ele>506.585067</ele>
        <time>2021-11-20T00:53:55.870Z</time>
      </trkpt>
      <trkpt lat="47.625987" lon="7.818025">
        <ele>504.637731</ele>
        <time>2021-11-20T00:54:01.223Z</time>
      </trkpt>
      <trkpt lat="47.624281" lon="7.816985">
        <ele>497.090901</ele>
        <time>2021-11-20T00:54:19.606Z</time>
      </trkpt>
      <trkpt lat="47.623648" lon="7.816926">
        <ele>493.922345</ele>
        <time>2021-11-20T00:54:25.578Z</time>
      </trkpt>
      <trkpt lat="47.623368" lon="7.816962">
        <ele>492.518286</ele>
        <time>2021-11-20T00:54:28.154Z</time>
      </trkpt>
      <trkpt lat="47.623176" lon="7.817016">
        <ele>491.542017</ele>
        <time>2021-11-20T00:54:29.889Z</time>
      </trkpt>
      <trkpt lat="47.622635" lon="7.817204">
        <ele>487.678286</ele>
        <time>2021-11-20T00:54:34.932Z</time>
      </trkpt>
      <trkpt lat="47.622464" lon="7.817228">
        <ele>486.473153</ele>
        <time>2021-11-20T00:54:36.435Z</time>
      </trkpt>
      <trkpt lat="47.622034" lon="7.817274">
        <ele>483.448340</ele>
        <time>2021-11-20T00:54:40.238Z</time>
      </trkpt>
      <trkpt lat="47.621408" lon="7.817443">
        <ele>478.984055</ele>
        <time>2021-11-20T00:54:46.037Z</time>
      </trkpt>
      <trkpt lat="47.621327" lon="7.817470">
        <ele>478.485687</ele>
        <time>2021-11-20T00:54:46.746Z</time>
      </trkpt>
      <trkpt lat="47.621261" lon="7.817493">
        <ele>478.102046</ele>
        <time>2021-11-20T00:54:47.417Z</time>
      </trkpt>
      <trkpt lat="47.621173" lon="7.817554">
        <ele>477.552405</ele>
        <time>2021-11-20T00:54:48.322Z</time>
      </trkpt>
      <trkpt lat="47.621099" lon="7.817634">
        <ele>477.034279</ele>
        <time>2021-11-20T00:54:49.134Z</time>
      </trkpt>
      <trkpt lat="47.621041" lon="7.817725">
        <ele>476.556586</ele>
        <time>2021-11-20T00:54:49.873Z</time>
      </trkpt>
      <trkpt lat="47.620588" lon="7.818608">
        <ele>472.324096</ele>
        <time>2021-11-20T00:54:56.854Z</time>
      </trkpt>
      <trkpt lat="47.620135" lon="7.818917">
        <ele>469.502724</ele>
        <time>2021-11-20T00:55:01.515Z</time>
      </trkpt>
      <trkpt lat="47.620091" lon="7.818898">
        <ele>469.243407</ele>
        <time>2021-11-20T00:55:01.921Z</time>
      </trkpt>
      <trkpt lat="47.620052" lon="7.818861">
        <ele>468.981450</ele>
        <time>2021-11-20T00:55:02.381Z</time>
      </trkpt>
      <trkpt lat="47.619983" lon="7.818525">
        <ele>467.763251</ele>
        <time>2021-11-20T00:55:04.665Z</time>
      </trkpt>
      <trkpt lat="47.619948" lon="7.818387">
        <ele>467.268099</ele>
        <time>2021-11-20T00:55:05.584Z</time>
      </trkpt>
      <trkpt lat="47.619880" lon="7.818346">
        <ele>466.902403</ele>
        <time>2021-11-20T00:55:06.262Z</time>
      </trkpt>
      <trkpt lat="47.619481" lon="7.818077">
        <ele>464.718890</ele>
        <time>2021-11-20T00:55:10.434Z</time>
      </trkpt>
      <trkpt lat="47.619455" lon="7.818047">
        <ele>464.554788</ele>
        <time>2021-11-20T00:55:10.716Z</time>
      </trkpt>
      <trkpt lat="47.619414" lon="7.817980">
        <ele>464.250894</ele>
        <time>2021-11-20T00:55:11.335Z</time>
      </trkpt>
      <trkpt lat="47.619369" lon="7.817884">
        <ele>463.858211</ele>
        <time>2021-11-20T00:55:12.061Z</time>
      </trkpt>
      <trkpt lat="47.619286" lon="7.817698">
        <ele>463.109102</ele>
        <time>2021-11-20T00:55:13.479Z</time>
      </trkpt>
      <trkpt lat="47.619222" lon="7.817606">
        <ele>462.665114</ele>
        <time>2021-11-20T00:55:14.293Z</time>
      </trkpt>
      <trkpt lat="47.619023" lon="7.817353">
        <ele>461.359413</ele>
        <time>2021-11-20T00:55:16.768Z</time>
      </trkpt>
      <trkpt lat="47.618799" lon="7.817081">
        <ele>459.917244</ele>
        <time>2021-11-20T00:55:19.551Z</time>
      </trkpt>
      <trkpt lat="47.618674" lon="7.816980">
        <ele>459.248185</ele>
        <time>2021-11-20T00:55:20.872Z</time>
      </trkpt>
      <trkpt lat="47.618026" lon="7.816656">
        <ele>456.120580</ele>
        <time>2021-11-20T00:55:27.482Z</time>
      </trkpt>
      <trkpt lat="47.617819" lon="7.816612">
        <ele>455.164141</ele>
        <time>2021-11-20T00:55:29.454Z</time>
      </trkpt>
      <trkpt lat="47.617645" lon="7.816658">
        <ele>454.355768</ele>
        <time>2021-11-20T00:55:31.174Z</time>
      </trkpt>
      <trkpt lat="47.617591" lon="7.816685">
        <ele>454.095134</ele>
        <time>2021-11-20T00:55:31.711Z</time>
      </trkpt>
      <trkpt lat="47.617466" lon="7.816748">
        <ele>453.491320</ele>
        <time>2021-11-20T00:55:32.993Z</time>
      </trkpt>
      <trkpt lat="47.617373" lon="7.816786">
        <ele>453.050120</ele>
        <time>2021-11-20T00:55:33.965Z</time>
      </trkpt>
      <trkpt lat="47.617243" lon="7.816840">
        <ele>452.432662</ele>
        <time>2021-11-20T00:55:35.227Z</time>
      </trkpt>
      <trkpt lat="47.617000" lon="7.816677">
        <ele>451.172337</ele>
        <time>2021-11-20T00:55:37.869Z</time>
      </trkpt>
      <trkpt lat="47.616707" lon="7.816445">
        <ele>449.414141</ele>
        <time>2021-11-20T00:55:40.990Z</time>
      </trkpt>
      <trkpt lat="47.616632" lon="7.816335">
        <ele>448.855823</ele>
        <time>2021-11-20T00:55:41.947Z</time>
      </trkpt>
      <trkpt lat="47.616582" lon="7.816196">
        <ele>448.293599</ele>
        <time>2021-11-20T00:55:42.904Z</time>
      </trkpt>
      <trkpt lat="47.616439" lon="7.815458">
        <ele>445.553408</ele>
        <time>2021-11-20T00:55:47.811Z</time>
      </trkpt>
      <trkpt lat="47.616368" lon="7.815112">
        <ele>444.262766</ele>
        <time>2021-11-20T00:55:50.016Z</time>
      </trkpt>
      <trkpt lat="47.616291" lon="7.814920">
        <ele>443.465526</ele>
        <time>2021-11-20T00:55:51.469Z</time>
      </trkpt>
      <trkpt lat="47.616224" lon="7.814793">
        <ele>442.890033</ele>
        <time>2021-11-20T00:55:52.421Z</time>
      </trkpt>
      <trkpt lat="47.615803" lon="7.813616">
        <ele>438.379209</ele>
        <time>2021-11-20T00:56:00.855Z</time>
      </trkpt>
      <trkpt lat="47.615645" lon="7.813447">
        <ele>437.414015</ele>
        <time>2021-11-20T00:56:02.643Z</time>
      </trkpt>
      <trkpt lat="47.615387" lon="7.813324">
        <ele>436.071202</ele>
        <time>2021-11-20T00:56:05.232Z</time>
      </trkpt>
      <trkpt lat="47.614932" lon="7.812637">
        <ele>432.896102</ele>
        <time>2021-11-20T00:56:11.467Z</time>
      </trkpt>
      <trkpt lat="47.614764" lon="7.812475">
        <ele>432.131433</ele>
        <time>2021-11-20T00:56:13.424Z</time>
      </trkpt>
      <trkpt lat="47.614051" lon="7.812407">
        <ele>429.404866</ele>
        <time>2021-11-20T00:56:20.346Z</time>
      </trkpt>
      <trkpt lat="47.613868" lon="7.812544">
        <ele>428.622607</ele>
        <time>2021-11-20T00:56:22.340Z</time>
      </trkpt>
      <trkpt lat="47.613621" lon="7.812859">
        <ele>427.379550</ele>
        <time>2021-11-20T00:56:25.561Z</time>
      </trkpt>
      <trkpt lat="47.613501" lon="7.812899">
        <ele>426.910187</ele>
        <time>2021-11-20T00:56:26.808Z</time>
      </trkpt>
      <trkpt lat="47.612810" lon="7.813060">
        <ele>425.304109</ele>
        <time>2021-11-20T00:56:34.067Z</time>
      </trkpt>
      <trkpt lat="47.612555" lon="7.813076">
        <ele>424.866239</ele>
        <time>2021-11-20T00:56:36.856Z</time>
      </trkpt>
      <trkpt lat="47.612313" lon="7.813004">
        <ele>424.442795</ele>
        <time>2021-11-20T00:56:39.676Z</time>
      </trkpt>
      <trkpt lat="47.611013" lon="7.812221">
        <ele>422.261052</ele>
        <time>2021-11-20T00:56:57.390Z</time>
      </trkpt>
      <trkpt lat="47.610772" lon="7.811907">
        <ele>421.828748</ele>
        <time>2021-11-20T00:57:01.611Z</time>
      </trkpt>
      <trkpt lat="47.610233" lon="7.810909">
        <ele>420.666892</ele>
        <time>2021-11-20T00:57:11.425Z</time>
      </trkpt>
      <trkpt lat="47.609797" lon="7.810201">
        <ele>417.680302</ele>
        <time>2021-11-20T00:57:18.026Z</time>
      </trkpt>
      <trkpt lat="47.609427" lon="7.809753">
        <ele>415.466159</ele>
        <time>2021-11-20T00:57:22.561Z</time>
      </trkpt>
      <trkpt lat="47.608602" lon="7.809088">
        <ele>410.427333</ele>
        <time>2021-11-20T00:57:31.104Z</time>
      </trkpt>
      <trkpt lat="47.607803" lon="7.808223">
        <ele>403.244129</ele>
        <time>2021-11-20T00:57:39.912Z</time>
      </trkpt>
      <trkpt lat="47.607595" lon="7.808039">
        <ele>401.485461</ele>
        <time>2021-11-20T00:57:42.048Z</time>
      </trkpt>
      <trkpt lat="47.607385" lon="7.807967">
        <ele>399.920294</ele>
        <time>2021-11-20T00:57:43.973Z</time>
      </trkpt>
      <trkpt lat="47.606698" lon="7.808066">
        <ele>395.460235</ele>
        <time>2021-11-20T00:57:50.146Z</time>
      </trkpt>
      <trkpt lat="47.605899" lon="7.808010">
        <ele>390.388129</ele>
        <time>2021-11-20T00:57:57.491Z</time>
      </trkpt>
      <trkpt lat="47.605468" lon="7.808045">
        <ele>387.664677</ele>
        <time>2021-11-20T00:58:01.529Z</time>
      </trkpt>
      <trkpt lat="47.604338" lon="7.808356">
        <ele>380.855797</ele>
        <time>2021-11-20T00:58:12.101Z</time>
      </trkpt>
      <trkpt lat="47.604147" lon="7.808404">
        <ele>379.708104</ele>
        <time>2021-11-20T00:58:13.892Z</time>
      </trkpt>
      <trkpt lat="47.603933" lon="7.808453">
        <ele>378.425258</ele>
        <time>2021-11-20T00:58:15.801Z</time>
      </trkpt>
      <trkpt lat="47.603664" lon="7.808428">
        <ele>376.915616</ele>
        <time>2021-11-20T00:58:18.300Z</time>
      </trkpt>
      <trkpt lat="47.603050" lon="7.808058">
        <ele>373.904562</ele>
        <time>2021-11-20T00:58:24.494Z</time>
      </trkpt>
      <trkpt lat="47.602603" lon="7.807841">
        <ele>371.767683</ele>
        <time>2021-11-20T00:58:28.923Z</time>
      </trkpt>
      <trkpt lat="47.602352" lon="7.807799">
        <ele>370.620082</ele>
        <time>2021-11-20T00:58:31.485Z</time>
      </trkpt>
      <trkpt lat="47.602242" lon="7.807771">
        <ele>370.113012</ele>
        <time>2021-11-20T00:58:32.589Z</time>
      </trkpt>
      <trkpt lat="47.601856" lon="7.807444">
        <ele>368.682406</ele>
        <time>2021-11-20T00:58:37.196Z</time>
      </trkpt>
      <trkpt lat="47.601434" lon="7.806809">
        <ele>367.667782</ele>
        <time>2021-11-20T00:58:43.705Z</time>
      </trkpt>
      <trkpt lat="47.600919" lon="7.805847">
        <ele>366.269926</ele>
        <time>2021-11-20T00:58:54.510Z</time>
      </trkpt>
      <trkpt lat="47.600707" lon="7.805537">
        <ele>365.626099</ele>
        <time>2021-11-20T00:58:57.947Z</time>
      </trkpt>
      <trkpt lat="47.600367" lon="7.805144">
        <ele>364.446458</ele>
        <time>2021-11-20T00:59:02.686Z</time>
      </trkpt>
      <trkpt lat="47.599983" lon="7.804755">
        <ele>363.173876</ele>
        <time>2021-11-20T00:59:07.585Z</time>
      </trkpt>
      <trkpt lat="47.598398" lon="7.802889">
        <ele>356.730875</ele>
        <time>2021-11-20T00:59:27.533Z</time>
      </trkpt>
      <trkpt lat="47.598146" lon="7.802509">
        <ele>355.488409</ele>
        <time>2021-11-20T00:59:31.190Z</time>
      </trkpt>
      <trkpt lat="47.597927" lon="7.802250">
        <ele>354.655489</ele>
        <time>2021-11-20T00:59:34.136Z</time>
      </trkpt>
      <trkpt lat="47.597625" lon="7.801971">
        <ele>353.923167</ele>
        <time>2021-11-20T00:59:37.939Z</time>
      </trkpt>
      <trkpt lat="47.596866" lon="7.801508">
        <ele>352.233997</ele>
        <time>2021-11-20T00:59:46.674Z</time>
      </trkpt>
      <trkpt lat="47.596631" lon="7.801307">
        <ele>351.675636</ele>
        <time>2021-11-20T00:59:49.932Z</time>
      </trkpt>
      <trkpt lat="47.596154" lon="7.800842">
        <ele>350.795692</ele>
        <time>2021-11-20T00:59:56.889Z</time>
      </trkpt>
      <trkpt lat="47.596083" lon="7.800764">
        <ele>350.696085</ele>
        <time>2021-11-20T00:59:57.907Z</time>
      </trkpt>
      <trkpt lat="47.595950" lon="7.800596">
        <ele>350.499139</ele>
        <time>2021-11-20T00:59:59.978Z</time>
      </trkpt>
      <trkpt lat="47.595757" lon="7.800208">
        <ele>350.132631</ele>
        <time>2021-11-20T01:00:03.849Z</time>
      </trkpt>
      <trkpt lat="47.595466" lon="7.799497">
        <ele>349.500384</ele>
        <time>2021-11-20T01:00:10.324Z</time>
      </trkpt>
      <trkpt lat="47.595383" lon="7.799322">
        <ele>349.337744</ele>
        <time>2021-11-20T01:00:12.068Z</time>
      </trkpt>
      <trkpt lat="47.594957" lon="7.798605">
        <ele>349.879303</ele>
        <time>2021-11-20T01:00:20.159Z</time>
      </trkpt>
      <trkpt lat="47.594663" lon="7.797229">
        <ele>351.488999</ele>
        <time>2021-11-20T01:00:42.760Z</time>
      </trkpt>
      <trkpt lat="47.594601" lon="7.796746">
        <ele>352.037314</ele>
        <time>2021-11-20T01:00:51.847Z</time>
      </trkpt>
      <trkpt lat="47.594060" lon="7.796856">
        <ele>354.500812</ele>
        <time>2021-11-20T01:01:09.166Z</time>
      </trkpt>
      <trkpt lat="47.593608" lon="7.796793">
        <ele>356.645240</ele>
        <time>2021-11-20T01:01:24.627Z</time>
      </trkpt>
      <trkpt lat="47.592961" lon="7.796452">
        <ele>359.888642</ele>
        <time>2021-11-20T01:01:50.855Z</time>
      </trkpt>
      <trkpt lat="47.592802" lon="7.796368">
        <ele>360.646699</ele>
        <time>2021-11-20T01:01:57.499Z</time>
      </trkpt>
      <trkpt lat="47.592429" lon="7.796406">
        <ele>361.646034</ele>
        <time>2021-11-20T01:02:09.620Z</time>
      </trkpt>
      <trkpt lat="47.592114" lon="7.796545">
        <ele>362.524484</ele>
        <time>2021-11-20T01:02:18.720Z</time>
      </trkpt>
      <trkpt lat="47.591728" lon="7.796915">
        <ele>363.753025</ele>
        <time>2021-11-20T01:02:30.281Z</time>
      </trkpt>
      <trkpt lat="47.591349" lon="7.797193">
        <ele>364.883222</ele>
        <time>2021-11-20T01:02:39.451Z</time>
      </trkpt>
      <trkpt lat="47.590924" lon="7.797504">
        <ele>365.122054</ele>
        <time>2021-11-20T01:02:46.834Z</time>
      </trkpt>
      <trkpt lat="47.589924" lon="7.798072">
        <ele>364.044830</ele>
        <time>2021-11-20T01:02:59.602Z</time>
      </trkpt>
      <trkpt lat="47.589692" lon="7.798248">
        <ele>363.782679</ele>
        <time>2021-11-20T01:03:02.408Z</time>
      </trkpt>
      <trkpt lat="47.589486" lon="7.798387">
        <ele>363.498755</ele>
        <time>2021-11-20T01:03:04.921Z</time>
      </trkpt>
      <trkpt lat="47.589272" lon="7.798569">
        <ele>362.890811</ele>
        <time>2021-11-20T01:03:07.621Z</time>
      </trkpt>
      <trkpt lat="47.589153" lon="7.798651">
        <ele>362.567443</ele>
        <time>2021-11-20T01:03:09.108Z</time>
      </trkpt>
      <trkpt lat="47.589010" lon="7.798691">
        <ele>362.208838</ele>
        <time>2021-11-20T01:03:10.643Z</time>
      </trkpt>
      <trkpt lat="47.588854" lon="7.798676">
        <ele>361.823606</ele>
        <time>2021-11-20T01:03:12.365Z</time>
      </trkpt>
      <trkpt lat="47.588797" lon="7.798670">
        <ele>361.682790</ele>
        <time>2021-11-20T01:03:12.993Z</time>
      </trkpt>
      <trkpt lat="47.588390" lon="7.798556">
        <ele>360.662096</ele>
        <time>2021-11-20T01:03:17.303Z</time>
      </trkpt>
      <trkpt lat="47.588177" lon="7.798477">
        <ele>360.121036</ele>
        <time>2021-11-20T01:03:19.633Z</time>
      </trkpt>
      <trkpt lat="47.587698" lon="7.798426">
        <ele>358.841253</ele>
        <time>2021-11-20T01:03:24.634Z</time>
      </trkpt>
      <trkpt lat="47.587388" lon="7.798430">
        <ele>357.748469</ele>
        <time>2021-11-20T01:03:27.751Z</time>
      </trkpt>
      <trkpt lat="47.587282" lon="7.798453">
        <ele>357.370841</ele>
        <time>2021-11-20T01:03:28.787Z</time>
      </trkpt>
      <trkpt lat="47.586543" lon="7.798436">
        <ele>354.765568</ele>
        <time>2021-11-20T01:03:36.122Z</time>
      </trkpt>
      <trkpt lat="47.586281" lon="7.798381">
        <ele>353.832812</ele>
        <time>2021-11-20T01:03:38.815Z</time>
      </trkpt>
      <trkpt lat="47.585911" lon="7.798303">
        <ele>352.492039</ele>
        <time>2021-11-20T01:03:42.440Z</time>
      </trkpt>
      <trkpt lat="47.585534" lon="7.798199">
        <ele>351.036846</ele>
        <time>2021-11-20T01:03:46.197Z</time>
      </trkpt>
      <trkpt lat="47.585233" lon="7.798047">
        <ele>349.830172</ele>
        <time>2021-11-20T01:03:49.306Z</time>
      </trkpt>
      <trkpt lat="47.584729" lon="7.797820">
        <ele>347.831285</ele>
        <time>2021-11-20T01:03:54.498Z</time>
      </trkpt>
      <trkpt lat="47.584517" lon="7.797802">
        <ele>347.025469</ele>
        <time>2021-11-20T01:03:56.527Z</time>
      </trkpt>
      <trkpt lat="47.583508" lon="7.797910">
        <ele>343.126523</ele>
        <time>2021-11-20T01:04:06.762Z</time>
      </trkpt>
      <trkpt lat="47.582752" lon="7.797833">
        <ele>340.189447</ele>
        <time>2021-11-20T01:04:14.195Z</time>
      </trkpt>
      <trkpt lat="47.582160" lon="7.797772">
        <ele>337.079024</ele>
        <time>2021-11-20T01:04:19.878Z</time>
      </trkpt>
      <trkpt lat="47.581869" lon="7.797750">
        <ele>335.143413</ele>
        <time>2021-11-20T01:04:22.609Z</time>
      </trkpt>
      <trkpt lat="47.581379" lon="7.797757">
        <ele>331.888214</ele>
        <time>2021-11-20T01:04:27.061Z</time>
      </trkpt>
      <trkpt lat="47.580966" lon="7.797737">
        <ele>329.143211</ele>
        <time>2021-11-20T01:04:30.743Z</time>
      </trkpt>
      <trkpt lat="47.580444" lon="7.797575">
        <ele>324.943624</ele>
        <time>2021-11-20T01:04:35.406Z</time>
      </trkpt>
      <trkpt lat="47.580222" lon="7.797578">
        <ele>322.812457</ele>
        <time>2021-11-20T01:04:37.315Z</time>
      </trkpt>
      <trkpt lat="47.579900" lon="7.797779">
        <ele>319.458584</ele>
        <time>2021-11-20T01:04:40.333Z</time>
      </trkpt>
      <trkpt lat="47.579284" lon="7.798330">
        <ele>312.552273</ele>
        <time>2021-11-20T01:04:46.494Z</time>
      </trkpt>
      <trkpt lat="47.579085" lon="7.798411">
        <ele>310.571282</ele>
        <time>2021-11-20T01:04:48.291Z</time>
      </trkpt>
      <trkpt lat="47.578882" lon="7.798252">
        <ele>308.760141</ele>
        <time>2021-11-20T01:04:50.270Z</time>
      </trkpt>
      <trkpt lat="47.578679" lon="7.797723">
        <ele>305.892055</ele>
        <time>2021-11-20T01:04:53.889Z</time>
      </trkpt>
      <trkpt lat="47.578554" lon="7.797534">
        <ele>304.644713</ele>
        <time>2021-11-20T01:04:55.505Z</time>
      </trkpt>
      <trkpt lat="47.578531" lon="7.797520">
        <ele>304.471018</ele>
        <time>2021-11-20T01:04:55.707Z</time>
      </trkpt>
      <trkpt lat="47.578509" lon="7.797507">
        <ele>304.305566</ele>
        <time>2021-11-20T01:04:55.929Z</time>
      </trkpt>
      <trkpt lat="47.577944" lon="7.797172">
        <ele>300.054482</ele>
        <time>2021-11-20T01:05:01.474Z</time>
      </trkpt>
      <trkpt lat="47.577686" lon="7.796814">
        <ele>297.585684</ele>
        <time>2021-11-20T01:05:04.768Z</time>
      </trkpt>
      <trkpt lat="47.577609" lon="7.796684">
        <ele>297.063189</ele>
        <time>2021-11-20T01:05:05.838Z</time>
      </trkpt>
      <trkpt lat="47.577554" lon="7.796595">
        <ele>296.845333</ele>
        <time>2021-11-20T01:05:06.684Z</time>
      </trkpt>
      <trkpt lat="47.577537" lon="7.796525">
        <ele>296.711048</ele>
        <time>2021-11-20T01:05:07.182Z</time>
      </trkpt>
      <trkpt lat="47.577514" lon="7.796460">
        <ele>296.578565</ele>
        <time>2021-11-20T01:05:07.673Z</time>
      </trkpt>
      <trkpt lat="47.577487" lon="7.796404">
        <ele>296.454325</ele>
        <time>2021-11-20T01:05:08.117Z</time>
      </trkpt>
      <trkpt lat="47.577336" lon="7.796248">
        <ele>295.961866</ele>
        <time>2021-11-20T01:05:09.901Z</time>
      </trkpt>
      <trkpt lat="47.577291" lon="7.796229">
        <ele>295.836674</ele>
        <time>2021-11-20T01:05:10.391Z</time>
      </trkpt>
      <trkpt lat="47.577222" lon="7.796219">
        <ele>295.651176</ele>
        <time>2021-11-20T01:05:11.098Z</time>
      </trkpt>
      <trkpt lat="47.577124" lon="7.796239">
        <ele>295.386491</ele>
        <time>2021-11-20T01:05:12.107Z</time>
      </trkpt>
      <trkpt lat="47.576960" lon="7.796396">
        <ele>294.864138</ele>
        <time>2021-11-20T01:05:14.366Z</time>
      </trkpt>
      <trkpt lat="47.576906" lon="7.796519">
        <ele>294.599251</ele>
        <time>2021-11-20T01:05:15.385Z</time>
      </trkpt>
      <trkpt lat="47.576884" lon="7.796617">
        <ele>294.412826</ele>
        <time>2021-11-20T01:05:16.153Z</time>
      </trkpt>
      <trkpt lat="47.576845" lon="7.796669">
        <ele>294.272476</ele>
        <time>2021-11-20T01:05:16.757Z</time>
      </trkpt>
      <trkpt lat="47.576565" lon="7.796902">
        <ele>293.413327</ele>
        <time>2021-11-20T01:05:20.466Z</time>
      </trkpt>
      <trkpt lat="47.576087" lon="7.797118">
        <ele>292.313212</ele>
        <time>2021-11-20T01:05:26.336Z</time>
      </trkpt>
      <trkpt lat="47.575978" lon="7.797131">
        <ele>292.215267</ele>
        <time>2021-11-20T01:05:27.517Z</time>
      </trkpt>
      <trkpt lat="47.575955" lon="7.797114">
        <ele>292.192248</ele>
        <time>2021-11-20T01:05:27.796Z</time>
      </trkpt>
      <trkpt lat="47.575928" lon="7.797105">
        <ele>292.167461</ele>
        <time>2021-11-20T01:05:28.111Z</time>
      </trkpt>
      <trkpt lat="47.575913" lon="7.797101">
        <ele>292.153810</ele>
        <time>2021-11-20T01:05:28.300Z</time>
      </trkpt>
      <trkpt lat="47.575798" lon="7.797141">
        <ele>292.048010</ele>
        <time>2021-11-20T01:05:29.689Z</time>
      </trkpt>
      <trkpt lat="47.575766" lon="7.797180">
        <ele>292.010904</ele>
        <time>2021-11-20T01:05:30.270Z</time>
      </trkpt>
      <trkpt lat="47.575752" lon="7.797206">
        <ele>291.990803</ele>
        <time>2021-11-20T01:05:30.569Z</time>
      </trkpt>
      <trkpt lat="47.575736" lon="7.797256">
        <ele>291.957365</ele>
        <time>2021-11-20T01:05:31.038Z</time>
      </trkpt>
      <trkpt lat="47.575731" lon="7.797285">
        <ele>291.939279</ele>
        <time>2021-11-20T01:05:31.262Z</time>
      </trkpt>
      <trkpt lat="47.575703" lon="7.797314">
        <ele>291.908685</ele>
        <time>2021-11-20T01:05:31.645Z</time>
      </trkpt>
      <trkpt lat="47.575578" lon="7.797427">
        <ele>291.777548</ele>
        <time>2021-11-20T01:05:33.341Z</time>
      </trkpt>
      <trkpt lat="47.575499" lon="7.797497">
        <ele>291.695111</ele>
        <time>2021-11-20T01:05:34.516Z</time>
      </trkpt>
      <trkpt lat="47.575391" lon="7.797551">
        <ele>291.593023</ele>
        <time>2021-11-20T01:05:35.941Z</time>
      </trkpt>
      <trkpt lat="47.575240" lon="7.797626">
        <ele>291.450386</ele>
        <time>2021-11-20T01:05:37.955Z</time>
      </trkpt>
      <trkpt lat="47.574910" lon="7.797787">
        <ele>291.139214</ele>
        <time>2021-11-20T01:05:42.517Z</time>
      </trkpt>
      <trkpt lat="47.574347" lon="7.798028">
        <ele>290.692338</ele>
        <time>2021-11-20T01:05:50.674Z</time>
      </trkpt>
      <trkpt lat="47.574296" lon="7.798050">
        <ele>290.662680</ele>
        <time>2021-11-20T01:05:51.327Z</time>
      </trkpt>
      <trkpt lat="47.573813" lon="7.798212">
        <ele>290.386177</ele>
        <time>2021-11-20T01:05:57.837Z</time>
      </trkpt>
      <trkpt lat="47.573410" lon="7.798344">
        <ele>290.155732</ele>
        <time>2021-11-20T01:06:03.231Z</time>
      </trkpt>
      <trkpt lat="47.573055" lon="7.798459">
        <ele>289.952838</ele>
        <time>2021-11-20T01:06:07.890Z</time>
      </trkpt>
      <trkpt lat="47.572628" lon="7.798599">
        <ele>289.647404</ele>
        <time>2021-11-20T01:06:13.487Z</time>
      </trkpt>
      <trkpt lat="47.572527" lon="7.798632">
        <ele>289.557055</ele>
        <time>2021-11-20T01:06:14.796Z</time>
      </trkpt>
      <trkpt lat="47.572308" lon="7.798703">
        <ele>289.361219</ele>
        <time>2021-11-20T01:06:17.743Z</time>
      </trkpt>
      <trkpt lat="47.571985" lon="7.798809">
        <ele>289.072222</ele>
        <time>2021-11-20T01:06:21.985Z</time>
      </trkpt>
      <trkpt lat="47.571921" lon="7.798830">
        <ele>289.014960</ele>
        <time>2021-11-20T01:06:22.763Z</time>
      </trkpt>
      <trkpt lat="47.571202" lon="7.799089">
        <ele>288.368577</ele>
        <time>2021-11-20T01:06:31.604Z</time>
      </trkpt>
      <trkpt lat="47.569912" lon="7.799564">
        <ele>287.319035</ele>
        <time>2021-11-20T01:06:48.373Z</time>
      </trkpt>
      <trkpt lat="47.569327" lon="7.799762">
        <ele>286.851182</ele>
        <time>2021-11-20T01:06:55.822Z</time>
      </trkpt>
      <trkpt lat="47.569185" lon="7.799810">
        <ele>286.796934</ele>
        <time>2021-11-20T01:06:57.836Z</time>
      </trkpt>
      <trkpt lat="47.568384" lon="7.800059">
        <ele>286.516116</ele>
        <time>2021-11-20T01:07:09.391Z</time>
      </trkpt>
      <trkpt lat="47.568315" lon="7.800179">
        <ele>286.479616</ele>
        <time>2021-11-20T01:07:10.815Z</time>
      </trkpt>
      <trkpt lat="47.568185" lon="7.800003">
        <ele>286.419203</ele>
        <time>2021-11-20T01:07:13.653Z</time>
      </trkpt>
      <trkpt lat="47.567987" lon="7.799745">
        <ele>286.328743</ele>
        <time>2021-11-20T01:07:17.317Z</time>
      </trkpt>
      <trkpt lat="47.567788" lon="7.799488">
        <ele>286.238177</ele>
        <time>2021-11-20T01:07:20.844Z</time>
      </trkpt>
      <trkpt lat="47.567386" lon="7.798946">
        <ele>285.665993</ele>
        <time>2021-11-20T01:07:27.884Z</time>
      </trkpt>
      <trkpt lat="47.567213" lon="7.798707">
        <ele>285.405672</ele>
        <time>2021-11-20T01:07:30.974Z</time>
      </trkpt>
      <trkpt lat="47.567200" lon="7.798690">
        <ele>285.386589</ele>
        <time>2021-11-20T01:07:31.192Z</time>
      </trkpt>
      <trkpt lat="47.567008" lon="7.798425">
        <ele>285.097804</ele>
        <time>2021-11-20T01:07:34.934Z</time>
      </trkpt>
      <trkpt lat="47.566478" lon="7.797694">
        <ele>284.300891</ele>
        <time>2021-11-20T01:07:43.525Z</time>
      </trkpt>
      <trkpt lat="47.566454" lon="7.797771">
        <ele>284.213605</ele>
        <time>2021-11-20T01:07:44.149Z</time>
      </trkpt>
      <trkpt lat="47.566114" lon="7.798822">
        <ele>280.936318</ele>
        <time>2021-11-20T01:07:51.907Z</time>
      </trkpt>
      <trkpt lat="47.565704" lon="7.800090">
        <ele>276.982707</ele>
        <time>2021-11-20T01:08:00.822Z</time>
      </trkpt>
      <trkpt lat="47.565627" lon="7.800333">
        <ele>276.281981</ele>
        <time>2021-11-20T01:08:03.263Z</time>
      </trkpt>
      <trkpt lat="47.565490" lon="7.800752">
        <ele>275.108208</ele>
        <time>2021-11-20T01:08:07.570Z</time>
      </trkpt>
      <trkpt lat="47.565485" lon="7.800897">
        <ele>274.742189</ele>
        <time>2021-11-20T01:08:08.838Z</time>
      </trkpt>
      <trkpt lat="47.565517" lon="7.801041">
        <ele>274.359987</ele>
        <time>2021-11-20T01:08:09.829Z</time>
      </trkpt>
      <trkpt lat="47.566334" lon="7.802192">
        <ele>270.148463</ele>
        <time>2021-11-20T01:08:21.049Z</time>
      </trkpt>
      <trkpt lat="47.566532" lon="7.802465">
        <ele>269.871935</ele>
        <time>2021-11-20T01:08:24.121Z</time>
      </trkpt>
      <trkpt lat="47.567287" lon="7.803523">
        <ele>269.179694</ele>
        <time>2021-11-20T01:08:38.727Z</time>
      </trkpt>
      <trkpt lat="47.567503" lon="7.803912">
        <ele>268.953232</ele>
        <time>2021-11-20T01:08:43.694Z</time>
      </trkpt>
      <trkpt lat="47.567677" lon="7.804308">
        <ele>268.861894</ele>
        <time>2021-11-20T01:08:48.420Z</time>
      </trkpt>
      <trkpt lat="47.567792" lon="7.804628">
        <ele>268.913219</ele>
        <time>2021-11-20T01:08:52.064Z</time>
      </trkpt>
      <trkpt lat="47.568803" lon="7.807323">
        <ele>269.794947</ele>
        <time>2021-11-20T01:09:25.061Z</time>
      </trkpt>
      <trkpt lat="47.568962" lon="7.807589">
        <ele>270.005851</ele>
        <time>2021-11-20T01:09:29.046Z</time>
      </trkpt>
      <trkpt lat="47.570185" lon="7.808855">
        <ele>272.760774</ele>
        <time>2021-11-20T01:09:59.642Z</time>
      </trkpt>
      <trkpt lat="47.570299" lon="7.808969">
        <ele>273.213754</ele>
        <time>2021-11-20T01:10:03.145Z</time>
      </trkpt>
      <trkpt lat="47.570259" lon="7.809051">
        <ele>273.438629</ele>
        <time>2021-11-20T01:10:04.735Z</time>
      </trkpt>
      <trkpt lat="47.570230" lon="7.809116">
        <ele>273.611809</ele>
        <time>2021-11-20T01:10:06.171Z</time>
      </trkpt>
      <trkpt lat="47.568896" lon="7.812282">
        <ele>283.961009</ele>
        <time>2021-11-20T01:11:30.675Z</time>
      </trkpt>
      <trkpt lat="47.568525" lon="7.813167">
        <ele>286.668411</ele>
        <time>2021-11-20T01:11:53.204Z</time>
      </trkpt>
      <trkpt lat="47.568430" lon="7.813371">
        <ele>287.254580</ele>
        <time>2021-11-20T01:11:58.596Z</time>
      </trkpt>
      <trkpt lat="47.568248" lon="7.813814">
        <ele>288.481115</ele>
        <time>2021-11-20T01:12:09.002Z</time>
      </trkpt>
      <trkpt lat="47.568572" lon="7.814114">
        <ele>289.820096</ele>
        <time>2021-11-20T01:12:19.678Z</time>
      </trkpt>
      <trkpt lat="47.568480" lon="7.814364">
        <ele>290.493513</ele>
        <time>2021-11-20T01:12:24.084Z</time>
      </trkpt>
      <trkpt lat="47.568245" lon="7.815273">
        <ele>291.948703</ele>
        <time>2021-11-20T01:12:40.569Z</time>
      </trkpt>
      <trkpt lat="47.568209" lon="7.815459">
        <ele>292.148932</ele>
        <time>2021-11-20T01:12:43.978Z</time>
      </trkpt>
      <trkpt lat="47.568060" lon="7.816333">
        <ele>293.081740</ele>
        <time>2021-11-20T01:12:55.914Z</time>
      </trkpt>
      <trkpt lat="47.568033" lon="7.816491">
        <ele>293.250396</ele>
        <time>2021-11-20T01:12:58.463Z</time>
      </trkpt>
      <trkpt lat="47.567988" lon="7.816752">
        <ele>293.529149</ele>
        <time>2021-11-20T01:13:01.598Z</time>
      </trkpt>
      <trkpt lat="47.568049" lon="7.817619">
        <ele>293.981286</ele>
        <time>2021-11-20T01:13:12.543Z</time>
      </trkpt>
      <trkpt lat="47.568146" lon="7.818228">
        <ele>293.867828</ele>
        <time>2021-11-20T01:13:18.666Z</time>
      </trkpt>
      <trkpt lat="47.568272" lon="7.818798">
        <ele>293.759072</ele>
        <time>2021-11-20T01:13:49.888Z</time>
      </trkpt>
      <trkpt lat="47.568311" lon="7.819210">
        <ele>293.683637</ele>
        <time>2021-11-20T01:14:11.448Z</time>
      </trkpt>
      <trkpt lat="47.568417" lon="7.819772">
        <ele>293.577831</ele>
        <time>2021-11-20T01:14:41.587Z</time>
      </trkpt>
      <trkpt lat="47.568443" lon="7.820342">
        <ele>293.482836</ele>
        <time>2021-11-20T01:15:11.031Z</time>
      </trkpt>
      <trkpt lat="47.568400" lon="7.820924">
        <ele>293.386727</ele>
        <time>2021-11-20T01:15:41.272Z</time>
      </trkpt>
      <trkpt lat="47.568380" lon="7.822935">
        <ele>293.222150</ele>
        <time>2021-11-20T01:16:01.667Z</time>
      </trkpt>
      <trkpt lat="47.568448" lon="7.824552">
        <ele>293.577910</ele>
        <time>2021-11-20T01:16:20.278Z</time>
      </trkpt>
      <trkpt lat="47.568503" lon="7.825849">
        <ele>293.754796</ele>
        <time>2021-11-20T01:16:33.584Z</time>
      </trkpt>
      <trkpt lat="47.568555" lon="7.826544">
        <ele>293.797664</ele>
        <time>2021-11-20T01:16:40.620Z</time>
      </trkpt>
      <trkpt lat="47.568659" lon="7.828544">
        <ele>294.111693</ele>
        <time>2021-11-20T01:17:01.103Z</time>
      </trkpt>
      <trkpt lat="47.568703" lon="7.829421">
        <ele>294.397438</ele>
        <time>2021-11-20T01:17:10.841Z</time>
      </trkpt>
      <trkpt lat="47.568703" lon="7.829453">
        <ele>294.407835</ele>
        <time>2021-11-20T01:17:11.192Z</time>
      </trkpt>
      <trkpt lat="47.568745" lon="7.830356">
        <ele>294.701938</ele>
        <time>2021-11-20T01:17:22.048Z</time>
      </trkpt>
      <trkpt lat="47.568775" lon="7.830924">
        <ele>295.116392</ele>
        <time>2021-11-20T01:17:29.212Z</time>
      </trkpt>
      <trkpt lat="47.568760" lon="7.831139">
        <ele>295.297960</ele>
        <time>2021-11-20T01:17:31.995Z</time>
      </trkpt>
      <trkpt lat="47.568694" lon="7.831293">
        <ele>295.451214</ele>
        <time>2021-11-20T01:17:34.445Z</time>
      </trkpt>
      <trkpt lat="47.568550" lon="7.831407">
        <ele>295.654470</ele>
        <time>2021-11-20T01:17:37.785Z</time>
      </trkpt>
      <trkpt lat="47.567257" lon="7.831926">
        <ele>297.223482</ele>
        <time>2021-11-20T01:18:05.360Z</time>
      </trkpt>
      <trkpt lat="47.566920" lon="7.832056">
        <ele>297.531255</ele>
        <time>2021-11-20T01:18:12.088Z</time>
      </trkpt>
      <trkpt lat="47.566755" lon="7.832115">
        <ele>297.681271</ele>
        <time>2021-11-20T01:18:15.188Z</time>
      </trkpt>
      <trkpt lat="47.566477" lon="7.832241">
        <ele>297.938208</ele>
        <time>2021-11-20T01:18:20.500Z</time>
      </trkpt>
      <trkpt lat="47.566366" lon="7.832333">
        <ele>298.050612</ele>
        <time>2021-11-20T01:18:22.766Z</time>
      </trkpt>
      <trkpt lat="47.566744" lon="7.833235">
        <ele>298.633013</ele>
        <time>2021-11-20T01:18:34.889Z</time>
      </trkpt>
      <trkpt lat="47.567179" lon="7.834275">
        <ele>299.032830</ele>
        <time>2021-11-20T01:18:48.179Z</time>
      </trkpt>
      <trkpt lat="47.567558" lon="7.835042">
        <ele>299.343465</ele>
        <time>2021-11-20T01:18:59.248Z</time>
      </trkpt>
      <trkpt lat="47.567674" lon="7.835182">
        <ele>299.415909</ele>
        <time>2021-11-20T01:19:01.741Z</time>
      </trkpt>
      <trkpt lat="47.567566" lon="7.835567">
        <ele>299.606051</ele>
        <time>2021-11-20T01:19:06.598Z</time>
      </trkpt>
      <trkpt lat="47.567562" lon="7.835760">
        <ele>299.700150</ele>
        <time>2021-11-20T01:19:08.895Z</time>
      </trkpt>
      <trkpt lat="47.567583" lon="7.836155">
        <ele>299.893240</ele>
        <time>2021-11-20T01:19:13.553Z</time>
      </trkpt>
      <trkpt lat="47.567647" lon="7.836576">
        <ele>300.103546</ele>
        <time>2021-11-20T01:19:18.753Z</time>
      </trkpt>
      <trkpt lat="47.567670" lon="7.836721">
        <ele>300.176135</ele>
        <time>2021-11-20T01:19:20.557Z</time>
      </trkpt>
      <trkpt lat="47.567822" lon="7.837479">
        <ele>300.561495</ele>
        <time>2021-11-20T01:19:30.384Z</time>
      </trkpt>
      <trkpt lat="47.567944" lon="7.838073">
        <ele>300.836657</ele>
        <time>2021-11-20T01:19:38.035Z</time>
      </trkpt>
      <trkpt lat="47.567961" lon="7.838248">
        <ele>300.903534</ele>
        <time>2021-11-20T01:19:40.037Z</time>
      </trkpt>
      <trkpt lat="47.567936" lon="7.838380">
        <ele>300.955394</ele>
        <time>2021-11-20T01:19:41.707Z</time>
      </trkpt>
      <trkpt lat="47.567846" lon="7.838609">
        <ele>301.055638</ele>
        <time>2021-11-20T01:19:44.433Z</time>
      </trkpt>
      <trkpt lat="47.567823" lon="7.838648">
        <ele>301.075231</ele>
        <time>2021-11-20T01:19:45.025Z</time>
      </trkpt>
      <trkpt lat="47.567634" lon="7.839037">
        <ele>301.256554</ele>
        <time>2021-11-20T01:19:50.073Z</time>
      </trkpt>
      <trkpt lat="47.567626" lon="7.839064">
        <ele>301.267708</ele>
        <time>2021-11-20T01:19:50.450Z</time>
      </trkpt>
      <trkpt lat="47.567564" lon="7.839283">
        <ele>301.357543</ele>
        <time>2021-11-20T01:19:53.114Z</time>
      </trkpt>
      <trkpt lat="47.567530" lon="7.839459">
        <ele>301.426792</ele>
        <time>2021-11-20T01:19:55.152Z</time>
      </trkpt>
      <trkpt lat="47.567510" lon="7.839548">
        <ele>301.462275</ele>
        <time>2021-11-20T01:19:56.191Z</time>
      </trkpt>
      <trkpt lat="47.567481" lon="7.839664">
        <ele>301.509069</ele>
        <time>2021-11-20T01:19:57.398Z</time>
      </trkpt>
      <trkpt lat="47.567406" lon="7.839778">
        <ele>301.569296</ele>
        <time>2021-11-20T01:19:59.608Z</time>
      </trkpt>
      <trkpt lat="47.567293" lon="7.839862">
        <ele>301.640168</ele>
        <time>2021-11-20T01:20:01.782Z</time>
      </trkpt>
      <trkpt lat="47.567111" lon="7.839998">
        <ele>301.757586</ele>
        <time>2021-11-20T01:20:05.405Z</time>
      </trkpt>
      <trkpt lat="47.566826" lon="7.840179">
        <ele>302.052211</ele>
        <time>2021-11-20T01:20:10.750Z</time>
      </trkpt>
      <trkpt lat="47.566592" lon="7.840279">
        <ele>302.283619</ele>
        <time>2021-11-20T01:20:15.419Z</time>
      </trkpt>
      <trkpt lat="47.566515" lon="7.840312">
        <ele>302.359783</ele>
        <time>2021-11-20T01:20:16.620Z</time>
      </trkpt>
      <trkpt lat="47.566450" lon="7.840326">
        <ele>302.422195</ele>
        <time>2021-11-20T01:20:18.002Z</time>
      </trkpt>
      <trkpt lat="47.566350" lon="7.840350">
        <ele>302.518454</ele>
        <time>2021-11-20T01:20:19.977Z</time>
      </trkpt>
      <trkpt lat="47.566221" lon="7.840340">
        <ele>302.641199</ele>
        <time>2021-11-20T01:20:22.170Z</time>
      </trkpt>
      <trkpt lat="47.566142" lon="7.840322">
        <ele>302.717147</ele>
        <time>2021-11-20T01:20:23.341Z</time>
      </trkpt>
      <trkpt lat="47.566081" lon="7.840309">
        <ele>302.775706</ele>
        <time>2021-11-20T01:20:24.730Z</time>
      </trkpt>
      <trkpt lat="47.565906" lon="7.840272">
        <ele>302.943676</ele>
        <time>2021-11-20T01:20:28.112Z</time>
      </trkpt>
      <trkpt lat="47.565343" lon="7.840185">
        <ele>303.485966</ele>
        <time>2021-11-20T01:20:38.911Z</time>
      </trkpt>
      <trkpt lat="47.565233" lon="7.840176">
        <ele>303.611169</ele>
        <time>2021-11-20T01:20:41.248Z</time>
      </trkpt>
      <trkpt lat="47.565168" lon="7.840179">
        <ele>303.685076</ele>
        <time>2021-11-20T01:20:42.624Z</time>
      </trkpt>
      <trkpt lat="47.565057" lon="7.840213">
        <ele>303.813892</ele>
        <time>2021-11-20T01:20:44.867Z</time>
      </trkpt>
      <trkpt lat="47.564936" lon="7.840261">
        <ele>303.956247</ele>
        <time>2021-11-20T01:20:47.583Z</time>
      </trkpt>
      <trkpt lat="47.564558" lon="7.840516">
        <ele>304.428249</ele>
        <time>2021-11-20T01:20:55.865Z</time>
      </trkpt>
      <trkpt lat="47.564534" lon="7.840532">
        <ele>304.458157</ele>
        <time>2021-11-20T01:20:56.363Z</time>
      </trkpt>
      <trkpt lat="47.564463" lon="7.840580">
        <ele>304.546846</ele>
        <time>2021-11-20T01:20:57.977Z</time>
      </trkpt>
      <trkpt lat="47.564094" lon="7.840838">
        <ele>305.010536</ele>
        <time>2021-11-20T01:21:05.646Z</time>
      </trkpt>
      <trkpt lat="47.563986" lon="7.840916">
        <ele>305.147075</ele>
        <time>2021-11-20T01:21:07.929Z</time>
      </trkpt>
      <trkpt lat="47.563941" lon="7.840948">
        <ele>305.203800</ele>
        <time>2021-11-20T01:21:08.854Z</time>
      </trkpt>
      <trkpt lat="47.563805" lon="7.841046">
        <ele>305.375664</ele>
        <time>2021-11-20T01:21:11.667Z</time>
      </trkpt>
      <trkpt lat="47.563659" lon="7.841150">
        <ele>305.558144</ele>
        <time>2021-11-20T01:21:14.552Z</time>
      </trkpt>
      <trkpt lat="47.563483" lon="7.841269">
        <ele>305.771720</ele>
        <time>2021-11-20T01:21:18.288Z</time>
      </trkpt>
      <trkpt lat="47.563300" lon="7.841391">
        <ele>305.993258</ele>
        <time>2021-11-20T01:21:21.840Z</time>
      </trkpt>
      <trkpt lat="47.563016" lon="7.841568">
        <ele>306.333399</ele>
        <time>2021-11-20T01:21:27.699Z</time>
      </trkpt>
      <trkpt lat="47.562965" lon="7.841597">
        <ele>306.393707</ele>
        <time>2021-11-20T01:21:28.675Z</time>
      </trkpt>
      <trkpt lat="47.562904" lon="7.841632">
        <ele>306.465924</ele>
        <time>2021-11-20T01:21:29.916Z</time>
      </trkpt>
      <trkpt lat="47.562574" lon="7.841873">
        <ele>306.872088</ele>
        <time>2021-11-20T01:21:36.881Z</time>
      </trkpt>
      <trkpt lat="47.562440" lon="7.842083">
        <ele>307.087405</ele>
        <time>2021-11-20T01:21:40.493Z</time>
      </trkpt>
      <trkpt lat="47.562385" lon="7.842183">
        <ele>307.183514</ele>
        <time>2021-11-20T01:21:42.056Z</time>
      </trkpt>
      <trkpt lat="47.562300" lon="7.842326">
        <ele>307.325485</ele>
        <time>2021-11-20T01:21:44.965Z</time>
      </trkpt>
      <trkpt lat="47.562179" lon="7.842500">
        <ele>307.513876</ele>
        <time>2021-11-20T01:21:48.437Z</time>
      </trkpt>
      <trkpt lat="47.561498" lon="7.843130">
        <ele>308.487790</ele>
        <time>2021-11-20T01:22:05.145Z</time>
      </trkpt>
      <trkpt lat="47.561434" lon="7.843181">
        <ele>308.575945</ele>
        <time>2021-11-20T01:22:06.948Z</time>
      </trkpt>
      <trkpt lat="47.561038" lon="7.843502">
        <ele>309.123524</ele>
        <time>2021-11-20T01:22:15.649Z</time>
      </trkpt>
      <trkpt lat="47.560934" lon="7.843550">
        <ele>309.255669</ele>
        <time>2021-11-20T01:22:17.804Z</time>
      </trkpt>
      <trkpt lat="47.560812" lon="7.843560">
        <ele>309.403899</ele>
        <time>2021-11-20T01:22:20.047Z</time>
      </trkpt>
      <trkpt lat="47.560515" lon="7.843379">
        <ele>309.688085</ele>
        <time>2021-11-20T01:22:25.784Z</time>
      </trkpt>
      <trkpt lat="47.560430" lon="7.843341">
        <ele>309.703205</ele>
        <time>2021-11-20T01:22:27.586Z</time>
      </trkpt>
      <trkpt lat="47.560338" lon="7.843341">
        <ele>309.718872</ele>
        <time>2021-11-20T01:22:28.809Z</time>
      </trkpt>
      <trkpt lat="47.560209" lon="7.843393">
        <ele>309.741638</ele>
        <time>2021-11-20T01:22:31.284Z</time>
      </trkpt>
      <trkpt lat="47.560139" lon="7.843433">
        <ele>309.754414</ele>
        <time>2021-11-20T01:22:32.604Z</time>
      </trkpt>
      <trkpt lat="47.559847" lon="7.843604">
        <ele>309.807881</ele>
        <time>2021-11-20T01:22:37.772Z</time>
      </trkpt>
      <trkpt lat="47.559583" lon="7.843813">
        <ele>309.858852</ele>
        <time>2021-11-20T01:22:42.262Z</time>
      </trkpt>
      <trkpt lat="47.559158" lon="7.844233">
        <ele>309.945844</ele>
        <time>2021-11-20T01:22:49.474Z</time>
      </trkpt>
      <trkpt lat="47.559109" lon="7.844229">
        <ele>309.954201</ele>
        <time>2021-11-20T01:22:50.064Z</time>
      </trkpt>
      <trkpt lat="47.559060" lon="7.844197">
        <ele>309.963320</ele>
        <time>2021-11-20T01:22:50.695Z</time>
      </trkpt>
      <trkpt lat="47.558884" lon="7.843836">
        <ele>309.960662</ele>
        <time>2021-11-20T01:22:54.848Z</time>
      </trkpt>
      <trkpt lat="47.558555" lon="7.843392">
        <ele>309.927147</ele>
        <time>2021-11-20T01:23:00.883Z</time>
      </trkpt>
      <trkpt lat="47.558471" lon="7.843365">
        <ele>309.920673</ele>
        <time>2021-11-20T01:23:02.138Z</time>
      </trkpt>
      <trkpt lat="47.558405" lon="7.843371">
        <ele>309.915693</ele>
        <time>2021-11-20T01:23:03.307Z</time>
      </trkpt>
      <trkpt lat="47.558310" lon="7.843445">
        <ele>309.907610</ele>
        <time>2021-11-20T01:23:04.773Z</time>
      </trkpt>
      <trkpt lat="47.558136" lon="7.843582">
        <ele>309.892770</ele>
        <time>2021-11-20T01:23:07.515Z</time>
      </trkpt>
      <trkpt lat="47.557967" lon="7.843683">
        <ele>309.879045</ele>
        <time>2021-11-20T01:23:10.237Z</time>
      </trkpt>
      <trkpt lat="47.557846" lon="7.843756">
        <ele>309.869206</ele>
        <time>2021-11-20T01:23:12.078Z</time>
      </trkpt>
      <trkpt lat="47.557759" lon="7.843839">
        <ele>309.861413</ele>
        <time>2021-11-20T01:23:13.854Z</time>
      </trkpt>
      <trkpt lat="47.557715" lon="7.843940">
        <ele>309.855303</ele>
        <time>2021-11-20T01:23:15.086Z</time>
      </trkpt>
      <trkpt lat="47.557560" lon="7.844433">
        <ele>309.942636</ele>
        <time>2021-11-20T01:23:21.036Z</time>
      </trkpt>
      <trkpt lat="47.557282" lon="7.844832">
        <ele>310.152093</ele>
        <time>2021-11-20T01:23:27.401Z</time>
      </trkpt>
      <trkpt lat="47.557134" lon="7.845095">
        <ele>310.277161</ele>
        <time>2021-11-20T01:23:31.108Z</time>
      </trkpt>
      <trkpt lat="47.556636" lon="7.845928">
        <ele>310.683608</ele>
        <time>2021-11-20T01:23:43.950Z</time>
      </trkpt>
      <trkpt lat="47.556110" lon="7.846777">
        <ele>311.427372</ele>
        <time>2021-11-20T01:23:58.459Z</time>
      </trkpt>
      <trkpt lat="47.556060" lon="7.846859">
        <ele>311.512758</ele>
        <time>2021-11-20T01:24:00.141Z</time>
      </trkpt>
      <trkpt lat="47.555990" lon="7.846965">
        <ele>311.627343</ele>
        <time>2021-11-20T01:24:02.097Z</time>
      </trkpt>
      <trkpt lat="47.555966" lon="7.846932">
        <ele>311.664827</ele>
        <time>2021-11-20T01:24:02.675Z</time>
      </trkpt>
      <trkpt lat="47.555892" lon="7.846856">
        <ele>311.767907</ele>
        <time>2021-11-20T01:24:04.207Z</time>
      </trkpt>
      <trkpt lat="47.555855" lon="7.846815">
        <ele>311.820802</ele>
        <time>2021-11-20T01:24:05.098Z</time>
      </trkpt>
      <trkpt lat="47.555727" lon="7.846715">
        <ele>311.986464</ele>
        <time>2021-11-20T01:24:08.166Z</time>
      </trkpt>
      <trkpt lat="47.555199" lon="7.846687">
        <ele>312.591337</ele>
        <time>2021-11-20T01:24:18.087Z</time>
      </trkpt>
      <trkpt lat="47.555068" lon="7.846672">
        <ele>312.741760</ele>
        <time>2021-11-20T01:24:21.023Z</time>
      </trkpt>
      <trkpt lat="47.554995" lon="7.846915">
        <ele>312.962833</ele>
        <time>2021-11-20T01:24:24.728Z</time>
      </trkpt>
      <trkpt lat="47.554981" lon="7.846947">
        <ele>312.998582</ele>
        <time>2021-11-20T01:24:25.232Z</time>
      </trkpt>
      <trkpt lat="47.554892" lon="7.847148">
        <ele>313.223938</ele>
        <time>2021-11-20T01:24:28.791Z</time>
      </trkpt>
      <trkpt lat="47.554759" lon="7.847388">
        <ele>313.515049</ele>
        <time>2021-11-20T01:24:33.113Z</time>
      </trkpt>
      <trkpt lat="47.554618" lon="7.847626">
        <ele>313.811925</ele>
        <time>2021-11-20T01:24:37.671Z</time>
      </trkpt>
      <trkpt lat="47.554465" lon="7.847858">
        <ele>314.116003</ele>
        <time>2021-11-20T01:24:42.307Z</time>
      </trkpt>
      <trkpt lat="47.554351" lon="7.848049">
        <ele>314.355028</ele>
        <time>2021-11-20T01:24:45.601Z</time>
      </trkpt>
      <trkpt lat="47.554269" lon="7.848188">
        <ele>314.528095</ele>
        <time>2021-11-20T01:24:48.093Z</time>
      </trkpt>
      <trkpt lat="47.554209" lon="7.848300">
        <ele>314.662144</ele>
        <time>2021-11-20T01:24:50.232Z</time>
      </trkpt>
      <trkpt lat="47.554055" lon="7.848586">
        <ele>315.005129</ele>
        <time>2021-11-20T01:24:55.033Z</time>
      </trkpt>
      <trkpt lat="47.553725" lon="7.849291">
        <ele>315.922275</ele>
        <time>2021-11-20T01:25:06.405Z</time>
      </trkpt>
      <trkpt lat="47.553605" lon="7.849629">
        <ele>316.372805</ele>
        <time>2021-11-20T01:25:11.924Z</time>
      </trkpt>
      <trkpt lat="47.553537" lon="7.849904">
        <ele>316.718301</ele>
        <time>2021-11-20T01:25:15.990Z</time>
      </trkpt>
      <trkpt lat="47.553380" lon="7.850453">
        <ele>317.421680</ele>
        <time>2021-11-20T01:25:24.894Z</time>
      </trkpt>
      <trkpt lat="47.553344" lon="7.850525">
        <ele>317.527385</ele>
        <time>2021-11-20T01:25:26.197Z</time>
      </trkpt>
      <trkpt lat="47.553283" lon="7.850634">
        <ele>317.694425</ele>
        <time>2021-11-20T01:25:28.264Z</time>
      </trkpt>
      <trkpt lat="47.552876" lon="7.851300">
        <ele>318.935261</ele>
        <time>2021-11-20T01:25:42.073Z</time>
      </trkpt>
      <trkpt lat="47.552678" lon="7.851709">
        <ele>319.980901</ele>
        <time>2021-11-20T01:25:50.743Z</time>
      </trkpt>
      <trkpt lat="47.552449" lon="7.852231">
        <ele>321.274270</ele>
        <time>2021-11-20T01:26:02.247Z</time>
      </trkpt>
      <trkpt lat="47.552272" lon="7.852167">
        <ele>321.835075</ele>
        <time>2021-11-20T01:26:07.648Z</time>
      </trkpt>
      <trkpt lat="47.552097" lon="7.852063">
        <ele>322.415449</ele>
        <time>2021-11-20T01:26:12.895Z</time>
      </trkpt>
      <trkpt lat="47.552042" lon="7.852007">
        <ele>322.620862</ele>
        <time>2021-11-20T01:26:15.294Z</time>
      </trkpt>
      <trkpt lat="47.551925" lon="7.851845">
        <ele>323.113770</ele>
        <time>2021-11-20T01:26:19.560Z</time>
      </trkpt>
      <trkpt lat="47.551830" lon="7.851603">
        <ele>323.695369</ele>
        <time>2021-11-20T01:26:25.382Z</time>
      </trkpt>
      <trkpt lat="47.551660" lon="7.851725">
        <ele>324.264827</ele>
        <time>2021-11-20T01:26:30.616Z</time>
      </trkpt>
      <trkpt lat="47.551516" lon="7.851950">
        <ele>324.874588</ele>
        <time>2021-11-20T01:26:37.174Z</time>
      </trkpt>
      <trkpt lat="47.550221" lon="7.853833">
        <ele>329.594188</ele>
        <time>2021-11-20T01:27:24.466Z</time>
      </trkpt>
      <trkpt lat="47.549883" lon="7.854434">
        <ele>330.127304</ele>
        <time>2021-11-20T01:27:34.586Z</time>
      </trkpt>
      <trkpt lat="47.549566" lon="7.855225">
        <ele>330.754219</ele>
        <time>2021-11-20T01:27:48.445Z</time>
      </trkpt>
      <trkpt lat="47.549362" lon="7.855774">
        <ele>331.109715</ele>
        <time>2021-11-20T01:27:56.934Z</time>
      </trkpt>
      <trkpt lat="47.548887" lon="7.857308">
        <ele>331.112761</ele>
        <time>2021-11-20T01:28:19.042Z</time>
      </trkpt>
      <trkpt lat="47.548743" lon="7.857692">
        <ele>331.113554</ele>
        <time>2021-11-20T01:28:25.013Z</time>
      </trkpt>
      <trkpt lat="47.548701" lon="7.857893">
        <ele>331.113934</ele>
        <time>2021-11-20T01:28:27.985Z</time>
      </trkpt>
      <trkpt lat="47.548686" lon="7.857973">
        <ele>331.114084</ele>
        <time>2021-11-20T01:28:29.108Z</time>
      </trkpt>
      <trkpt lat="47.548611" lon="7.858381">
        <ele>331.283961</ele>
        <time>2021-11-20T01:28:35.322Z</time>
      </trkpt>
      <trkpt lat="47.548334" lon="7.859801">
        <ele>332.167347</ele>
        <time>2021-11-20T01:28:58.360Z</time>
      </trkpt>
      <trkpt lat="47.548049" lon="7.860929">
        <ele>333.054417</ele>
        <time>2021-11-20T01:29:19.378Z</time>
      </trkpt>
      <trkpt lat="47.547930" lon="7.861711">
        <ele>333.978035</ele>
        <time>2021-11-20T01:29:34.141Z</time>
      </trkpt>
      <trkpt lat="47.547568" lon="7.863151">
        <ele>335.748515</ele>
        <time>2021-11-20T01:30:03.269Z</time>
      </trkpt>
      <trkpt lat="47.547320" lon="7.863864">
        <ele>336.023937</ele>
        <time>2021-11-20T01:30:17.209Z</time>
      </trkpt>
      <trkpt lat="47.546974" lon="7.864423">
        <ele>336.264709</ele>
        <time>2021-11-20T01:30:28.033Z</time>
      </trkpt>
      <trkpt lat="47.546885" lon="7.864500">
        <ele>336.313182</ele>
        <time>2021-11-20T01:30:31.118Z</time>
      </trkpt>
      <trkpt lat="47.546894" lon="7.864837">
        <ele>336.420248</ele>
        <time>2021-11-20T01:30:35.001Z</time>
      </trkpt>
      <trkpt lat="47.546889" lon="7.865225">
        <ele>336.543443</ele>
        <time>2021-11-20T01:30:40.427Z</time>
      </trkpt>
      <trkpt lat="47.546819" lon="7.865489">
        <ele>336.603856</ele>
        <time>2021-11-20T01:30:44.371Z</time>
      </trkpt>
      <trkpt lat="47.546510" lon="7.865766">
        <ele>336.287152</ele>
        <time>2021-11-20T01:30:51.005Z</time>
      </trkpt>
      <trkpt lat="47.546327" lon="7.865959">
        <ele>336.090171</ele>
        <time>2021-11-20T01:30:54.520Z</time>
      </trkpt>
      <trkpt lat="47.546096" lon="7.866147">
        <ele>335.859055</ele>
        <time>2021-11-20T01:30:59.076Z</time>
      </trkpt>
      <trkpt lat="47.545240" lon="7.866887">
        <ele>335.099270</ele>
        <time>2021-11-20T01:31:15.750Z</time>
      </trkpt>
      <trkpt lat="47.545160" lon="7.866985">
        <ele>335.186099</ele>
        <time>2021-11-20T01:31:17.706Z</time>
      </trkpt>
      <trkpt lat="47.545003" lon="7.867278">
        <ele>335.397316</ele>
        <time>2021-11-20T01:31:23.374Z</time>
      </trkpt>
      <trkpt lat="47.544568" lon="7.867693">
        <ele>335.830089</ele>
        <time>2021-11-20T01:31:36.165Z</time>
      </trkpt>
      <trkpt lat="47.544469" lon="7.867776">
        <ele>335.925238</ele>
        <time>2021-11-20T01:31:39.027Z</time>
      </trkpt>
      <trkpt lat="47.544410" lon="7.867825">
        <ele>335.981814</ele>
        <time>2021-11-20T01:31:41.115Z</time>
      </trkpt>
      <trkpt lat="47.544246" lon="7.867967">
        <ele>336.140703</ele>
        <time>2021-11-20T01:31:45.799Z</time>
      </trkpt>
      <trkpt lat="47.544214" lon="7.867988">
        <ele>336.169977</ele>
        <time>2021-11-20T01:31:46.646Z</time>
      </trkpt>
      <trkpt lat="47.543801" lon="7.868269">
        <ele>336.550121</ele>
        <time>2021-11-20T01:31:58.250Z</time>
      </trkpt>
      <trkpt lat="47.543657" lon="7.868359">
        <ele>336.550381</ele>
        <time>2021-11-20T01:32:02.599Z</time>
      </trkpt>
      <trkpt lat="47.543201" lon="7.868657">
        <ele>336.550381</ele>
        <time>2021-11-20T01:32:12.826Z</time>
      </trkpt>
      <trkpt lat="47.543105" lon="7.868711">
        <ele>336.550381</ele>
        <time>2021-11-20T01:32:15.371Z</time>
      </trkpt>
      <trkpt lat="47.543049" lon="7.868759">
        <ele>336.550381</ele>
        <time>2021-11-20T01:32:16.668Z</time>
      </trkpt>
      <trkpt lat="47.542722" lon="7.869201">
        <ele>336.550381</ele>
        <time>2021-11-20T01:32:26.069Z</time>
      </trkpt>
      <trkpt lat="47.542696" lon="7.869257">
        <ele>336.550381</ele>
        <time>2021-11-20T01:32:26.811Z</time>
      </trkpt>
      <trkpt lat="47.542657" lon="7.869354">
        <ele>336.550381</ele>
        <time>2021-11-20T01:32:28.212Z</time>
      </trkpt>
      <trkpt lat="47.542372" lon="7.869746">
        <ele>336.550381</ele>
        <time>2021-11-20T01:32:35.046Z</time>
      </trkpt>
      <trkpt lat="47.542329" lon="7.869820">
        <ele>336.550381</ele>
        <time>2021-11-20T01:32:36.236Z</time>
      </trkpt>
      <trkpt lat="47.542329" lon="7.869820">
        <ele>336.550381</ele>
        <time>2021-11-20T01:32:36.239Z</time>
      </trkpt>
    </trkseg>
  </trk>
</gpx>